[[{"header":{"parameterUnit":"m.s-1","parameterCategory":1,"la1":31.0,"la2":29.5877,"lo1":-88.7671,"lo2":-86.6584,"dy":0.0162,"dx":0.0185,"nx":115,"ny":88,"refTime":"2024-07-24T12:00:00:Z","depth":0,"parameterNumber":2,"parameterNumberName":"U-component_of_WINDS"},"data":[0.0,0.0,0.0,0.0,0.0,0.0,0.0,0.0,0.0,0.0,0.0,0.0,0.0,0.0,0.0,0.0,0.0,0.0,0.0,0.0,0.0,0.0,0.0,0.0,0.0,0.0,0.0,0.0,0.0,0.0,0.0,0.0,0.0,0.0,0.0,0.0,0.0,0.0,0.0,0.0,0.0,0.0,0.0,0.0,0.0,0.0,0.0,0.0,0.0,0.0,0.0,0.0,0.0,0.0,0.0,0.0,0.0,0.0,0.0,0.0,0.0,0.0,0.0,0.0,0.0,0.0,0.0,0.0,0.0,0.0,0.0,0.0,0.0,0.0,0.0,0.0,0.0,0.0,0.0,0.0,0.0,0.0,0.0,0.0,0.0,0.0,0.0,0.0,0.0,0.0,0.0,0.0,0.0,0.0,0.0,0.0,0.0,0.0,0.0,0.0,0.0,0.0,0.0,0.0,0.0,0.0,0.0,0.0,0.0,0.0,0.0,0.0,0.0,0.0,0.0,0.0,0.0,0.0,0.0,0.0,0.0,0.0,0.0,0.0,0.0,0.0,0.0,0.0,0.0,0.0,0.0,0.0,0.0,0.0,0.0,0.0,0.0,0.0,0.0,0.0,0.0,0.0,0.0,0.0,0.0,0.0,0.0,0.0,0.0,0.0,0.0,0.0,0.0,0.0,0.0,0.0,0.0,0.0,0.0,0.0,0.0,0.0,0.0,0.0,0.0,0.0,0.0,0.0,0.0,0.0,0.0,0.0,0.0,0.0,0.0,0.0,0.0,0.0,0.0,0.0,0.0,0.0,0.0,0.0,0.0,0.0,0.0,0.0,0.0,0.0,0.0,0.0,0.0,0.0,0.0,0.0,0.0,0.0,0.0,0.0,0.0,0.0,0.0,0.0,0.0,0.0,0.0,0.0,0.0,0.0,0.0,0.0,0.0,0.0,0.0,0.0,0.0,0.0,0.0,0.0,0.0,0.0,0.0,0.0,0.0,0.0,0.0,0.0,0.0,0.0,0.0,0.0,0.0,0.0,0.0,0.0,0.0,0.0,0.0,0.0,0.0,0.0,0.0,0.0,0.0,0.0,0.0,0.0,0.0,0.0,0.0,0.0,0.0,0.0,0.0,0.0,0.0,0.0,0.0,0.0,0.0,0.0,0.0,0.0,0.0,0.0,0.0,0.0,0.0,0.0,0.0,0.0,0.0,0.0,0.0,0.0,0.0,0.0,0.0,0.0,0.0,0.0,0.0,0.0,0.0,0.0,0.0,0.0,0.0,0.0,0.0,0.0,0.0,0.0,0.0,0.0,0.0,0.0,0.0,0.0,0.0,0.0,0.0,0.0,0.0,0.0,0.0,0.0,0.0,0.0,0.0,0.0,0.0,0.0,0.0,0.0,0.0,0.0,0.0,0.0,0.0,0.0,0.0,0.0,0.0,0.0,0.0,0.0,0.0,0.0,0.0,0.0,0.0,0.0,0.0,0.0,0.0,0.0,0.0,0.0,0.0,0.0,0.0,0.0,0.0,0.0,0.0,0.0,0.0,0.0,0.0,0.0,0.0,0.0,0.0,0.0,0.0,0.0,0.0,0.0,0.0,0.0,0.0,0.0,0.0,0.0,0.0,0.0,0.0,0.0,0.0,0.0,0.0,0.0,0.0,0.0,0.0,0.0,0.0,0.0,0.0,0.0,0.0,0.0,0.0,0.0,0.0,0.0,0.0,0.0,0.0,0.0,0.0,0.0,0.0,0.0,0.0,0.0,0.0,0.0,0.0,0.0,0.0,0.0,0.0,0.0,0.0,0.0,0.0,0.0,0.0,0.0,0.0,0.0,0.0,0.0,0.0,0.0,0.0,0.0,0.0,0.0,0.0,0.0,0.0,0.0,0.0,0.0,0.0,0.0,0.0,0.0,0.0,0.0,0.0,0.0,0.0,0.0,0.0,0.0,0.0,0.0,0.0,0.0,0.0,0.0,0.0,0.0,0.0,0.0,0.0,0.0,0.0,0.0,0.0,0.0,0.0,0.0,0.0,0.0,0.0,0.0,0.0,0.0,0.0,0.0,0.0,0.0,0.0,0.0,0.0,0.0,0.0,0.0,0.0,0.0,0.0,0.0,0.0,0.0,0.0,0.0,0.0,0.0,0.0,0.0,0.0,0.0,0.0,0.0,0.0,0.0,0.0,0.0,0.0,0.0,0.0,0.0,0.0,0.0,0.0,0.0,0.0,0.0,0.0,0.0,0.0,0.0,0.0,0.0,0.0,0.0,0.0,0.0,0.0,0.0,0.0,0.0,0.0,0.0,0.0,0.0,0.0,0.0,0.0,0.0,0.0,0.0,0.0,0.0,0.0,0.0,0.0,0.0,0.0,0.0,0.0,0.0,0.0,0.0,0.0,0.0,0.0,0.0,0.0,0.0,0.0,0.0,0.0,0.0,0.0,0.0,0.0,0.0,0.0,0.0,0.0,0.0,0.0,0.0,0.0,0.0,0.0,0.0,0.0,0.0,0.0,0.0,0.0,0.0,0.0,0.0,0.0,0.0,0.0,0.0,0.0,0.0,0.0,0.0,0.0,0.0,0.0,0.0,0.0,0.0,0.0,0.0,0.0,0.0,0.0,0.0,0.0,0.0,0.0,0.0,0.0,0.0,0.0,0.0,0.0,0.0,0.0,0.0,0.0,0.0,0.0,0.0,0.0,0.0,0.0,0.0,0.0,0.0,0.0,0.0,0.0,0.0,0.0,0.0,0.0,0.0,0.0,0.0,0.0,0.0,0.0,0.0,0.0,0.0,0.0,0.0,0.0,0.0,0.0,0.0,0.0,0.0,0.0,0.0,0.0,0.0,0.0,0.0,0.0,0.0,0.0,0.0,0.0,0.0,0.0,0.0,0.0,0.0,0.0,0.0,0.0,0.0,0.0,0.0,0.0,0.0,0.0,0.0,0.0,0.0,0.0,0.0,0.0,0.0,0.0,0.0,0.0,0.0,0.0,0.0,0.0,0.0,0.0,0.0,0.0,0.0,0.0,0.0,0.0,0.0,0.0,0.0,0.0,0.0,0.0,0.0,0.0,0.0,0.0,0.0,0.0,0.0,0.0,0.0,0.0,0.0,0.0,0.0,0.0,0.0,0.0,0.0,0.0,0.0,0.0,0.0,0.0,0.0,0.0,0.0,0.0,0.0,0.0,0.0,0.0,0.0,0.0,0.0,0.0,0.0,0.0,0.0,0.0,0.0,0.0,0.0,0.0,0.0,0.0,0.0,0.0,0.0,0.0,0.0,0.0,0.0,0.0,0.0,0.0,0.0,0.0,0.0,0.0,0.0,0.0,0.0,0.0,0.0,0.0,0.0,0.0,0.0,0.0,0.0,0.0,0.0,0.0,0.0,0.0,0.0,0.0,0.0,0.0,0.0,0.0,0.0,0.0,0.0,0.0,0.0,0.0,0.0,0.0,0.0,0.0,0.0,0.0,0.0,0.0,0.0,0.0,0.0,0.0,0.0,0.0,0.0,0.0,0.0,0.0,0.0,0.0,0.0,0.0,0.0,0.0,0.0,0.0,0.0,0.0,0.0,0.0,0.0,0.0,0.0,0.0,0.0,0.0,0.0,0.0,0.0,0.0,0.0,0.0,0.0,0.0,0.0,0.0,0.0,0.0,0.0,0.0,0.0,0.0,0.0,0.0,0.0,0.0,0.0,0.0,0.0,0.0,0.0,0.0,0.0,0.0,0.0,0.0,0.0,0.0,0.0,0.0,0.0,0.0,0.0,0.0,0.0,0.0,0.0,0.0,0.0,0.0,0.0,0.0,0.0,0.0,0.0,0.0,0.0,0.0,0.0,0.0,0.0,0.0,0.0,0.0,0.0,0.0,0.0,0.0,0.0,0.0,0.0,0.0,0.0,0.0,0.0,0.0,0.0,0.0,0.0,0.0,0.0,0.0,0.0,0.0,0.0,0.0,0.0,0.0,0.0,0.0,0.0,0.0,0.0,0.0,0.0,0.0,0.0,0.0,0.0,0.0,0.0,0.0,0.0,0.0,0.0,0.0,0.0,0.0,0.0,0.0,0.0,0.0,0.0,0.0,0.0,0.0,0.0,0.0,0.0,0.0,0.0,0.0,0.0,0.0,0.0,0.0,0.0,0.0,0.0,0.0,0.0,0.0,0.0,0.0,0.0,0.0,0.0,0.0,0.0,0.0,0.0,0.0,0.0,0.0,0.0,0.0,0.0,0.0,0.0,0.0,0.0,0.0,0.0,0.0,0.0,0.0,0.0,0.0,0.0,-1.4208,0.0,0.0,0.0,0.0,0.0,0.0,0.0,0.0,0.0,0.0,0.0,0.0,0.0,0.0,0.0,0.0,0.0,0.0,0.0,0.0,0.0,0.0,0.0,0.0,0.0,0.0,0.0,0.0,0.0,0.0,0.0,0.0,0.0,0.0,0.0,0.0,0.0,0.0,0.0,0.0,0.0,0.0,0.0,0.0,0.0,0.0,0.0,0.0,0.0,0.0,0.0,0.0,0.0,0.0,0.0,0.0,0.0,0.0,0.0,0.0,0.0,0.0,0.0,0.0,0.0,0.0,0.0,0.0,0.0,0.0,0.0,0.0,0.0,0.0,0.0,0.0,0.0,0.0,0.0,0.0,0.0,0.0,0.0,0.0,0.0,0.0,0.0,0.0,0.0,0.0,0.0,0.0,0.0,0.0,0.0,0.0,0.0,0.0,0.0,0.0,0.0,0.0,0.0,0.0,0.0,0.0,0.0,0.0,0.0,0.0,-1.796,-1.6756,-1.7053,-1.6454,-1.4839,0.0,0.0,0.0,0.0,0.0,0.0,0.0,0.0,0.0,0.0,0.0,0.0,0.0,0.0,0.0,0.0,0.0,0.0,0.0,0.0,0.0,0.0,0.0,0.0,0.0,0.0,0.0,0.0,0.0,0.0,0.0,0.0,0.0,0.0,0.0,0.0,0.0,0.0,0.0,0.0,0.0,0.0,0.0,0.0,0.0,0.0,0.0,0.0,0.0,0.0,0.0,0.0,0.0,0.0,0.0,0.0,0.0,0.0,0.0,0.0,0.0,0.0,0.0,0.0,0.0,0.0,0.0,0.0,0.0,0.0,0.0,0.0,0.0,0.0,0.0,0.0,0.0,0.0,0.0,0.0,0.0,0.0,0.0,0.0,0.0,0.0,0.0,0.0,0.0,0.0,0.0,0.0,0.0,0.0,0.0,0.0,0.0,0.0,0.0,0.0,0.0,0.0,0.0,0.0,0.0,0.0,0.0,0.0,0.0,0.0,0.0,0.0,-1.7466,-1.6937,-1.5669,0.0,0.0,0.0,0.0,0.0,0.0,0.0,0.0,0.0,0.0,0.0,0.0,0.0,0.0,0.0,0.0,0.0,0.0,0.0,0.0,0.0,0.0,0.0,0.0,0.0,0.0,0.0,0.0,0.0,0.0,0.0,0.0,0.0,0.0,0.0,0.0,0.0,0.0,0.0,0.0,0.0,0.0,0.0,0.0,0.0,0.0,0.0,0.0,0.0,0.0,0.0,0.0,0.0,0.0,0.0,0.0,0.0,0.0,0.0,0.0,0.0,0.0,0.0,0.0,0.0,0.0,0.0,0.0,0.0,0.0,0.0,0.0,0.0,0.0,0.0,0.0,0.0,0.0,0.0,0.0,0.0,0.0,0.0,0.0,0.0,0.0,0.0,0.0,0.0,0.0,0.0,0.0,0.0,0.0,0.0,0.0,0.0,0.0,0.0,0.0,0.0,0.0,0.0,0.0,0.0,0.0,0.0,0.0,0.0,0.0,-1.7501,-1.8928,-1.971,0.0,-1.6699,0.0,0.0,0.0,0.0,0.0,0.0,0.0,0.0,0.0,0.0,0.0,0.0,0.0,0.0,0.0,0.0,0.0,0.0,0.0,0.0,0.0,0.0,0.0,0.0,0.0,0.0,0.0,0.0,0.0,0.0,0.0,0.0,0.0,0.0,0.0,0.0,0.0,0.0,0.0,0.0,0.0,0.0,0.0,0.0,0.0,0.0,0.0,0.0,0.0,0.0,0.0,0.0,0.0,0.0,0.0,0.0,0.0,0.0,0.0,0.0,0.0,0.0,0.0,0.0,0.0,0.0,0.0,0.0,0.0,0.0,0.0,0.0,0.0,0.0,0.0,0.0,0.0,0.0,0.0,0.0,0.0,0.0,0.0,0.0,0.0,0.0,0.0,0.0,0.0,0.0,0.0,0.0,0.0,0.0,0.0,0.0,0.0,0.0,0.0,0.0,0.0,0.0,0.0,0.0,0.0,0.0,0.0,0.0,0.0,0.0,0.0,-1.925,-1.9552,-1.8755,0.0,0.0,0.0,0.0,0.0,0.0,0.0,0.0,0.0,0.0,0.0,0.0,0.0,0.0,0.0,0.0,0.0,0.0,0.0,0.0,0.0,0.0,0.0,0.0,0.0,0.0,0.0,0.0,0.0,0.0,0.0,0.0,0.0,0.0,0.0,0.0,0.0,0.0,0.0,0.0,0.0,0.0,0.0,0.0,0.0,0.0,0.0,0.0,0.0,0.0,0.0,0.0,0.0,0.0,0.0,0.0,0.0,0.0,0.0,0.0,0.0,0.0,0.0,0.0,0.0,0.0,0.0,0.0,0.0,0.0,0.0,0.0,0.0,0.0,0.0,0.0,0.0,0.0,0.0,0.0,0.0,0.0,0.0,0.0,0.0,0.0,0.0,0.0,0.0,0.0,0.0,0.0,0.0,0.0,0.0,0.0,0.0,0.0,0.0,0.0,0.0,0.0,0.0,0.0,0.0,0.0,0.0,0.0,0.0,0.0,-1.8608,0.0,-2.0248,-1.9361,-1.8127,-1.6652,0.0,0.0,0.0,0.0,0.0,0.0,0.0,0.0,0.0,0.0,0.0,0.0,0.0,0.0,0.0,0.0,0.0,0.0,0.0,0.0,0.0,0.0,0.0,0.0,0.0,0.0,0.0,0.0,0.0,0.0,0.0,0.0,0.0,0.0,0.0,0.0,0.0,0.0,0.0,0.0,0.0,0.0,0.0,0.0,0.0,0.0,0.0,0.0,0.0,0.0,0.0,0.0,0.0,0.0,0.0,0.0,0.0,0.0,0.0,0.0,0.0,0.0,0.0,0.0,0.0,0.0,0.0,0.0,0.0,0.0,0.0,0.0,0.0,0.0,0.0,0.0,0.0,0.0,0.0,0.0,0.0,0.0,0.0,0.0,0.0,0.0,0.0,0.0,0.0,0.0,0.0,0.0,0.0,0.0,0.0,0.0,0.0,0.0,0.0,0.0,0.0,0.0,0.0,0.0,0.0,0.0,0.0,0.0,0.0,-2.0307,-2.0383,-2.2709,-1.9718,-1.7532,0.0,0.0,0.0,0.0,0.0,0.0,0.0,0.0,0.0,0.0,0.0,0.0,0.0,0.0,0.0,0.0,0.0,0.0,0.0,0.0,0.0,0.0,0.0,0.0,0.0,0.0,0.0,0.0,0.0,0.0,0.0,0.0,0.0,0.0,0.0,0.0,0.0,0.0,0.0,0.0,0.0,0.0,0.0,0.0,0.0,0.0,0.0,0.0,0.0,0.0,0.0,0.0,0.0,0.0,0.0,0.0,0.0,0.0,0.0,0.0,0.0,0.0,0.0,0.0,0.0,0.0,0.0,0.0,0.0,0.0,0.0,0.0,0.0,0.0,0.0,0.0,0.0,0.0,0.0,0.0,0.0,0.0,0.0,0.0,0.0,0.0,0.0,0.0,0.0,0.0,0.0,0.0,0.0,0.0,0.0,0.0,0.0,0.0,0.0,0.0,0.0,0.0,0.0,0.0,0.0,0.0,0.0,0.0,0.0,-1.7966,-1.8733,-2.0356,0.0,-2.0162,-1.8009,0.0,0.0,0.0,0.0,0.0,0.0,0.0,0.0,0.0,0.0,0.0,0.0,0.0,0.0,0.0,0.0,0.0,0.0,0.0,0.0,0.0,0.0,0.0,0.0,0.0,0.0,0.0,0.0,0.0,0.0,0.0,0.0,0.0,0.0,0.0,0.0,0.0,0.0,0.0,0.0,0.0,0.0,0.0,0.0,0.0,0.0,0.0,0.0,0.0,0.0,0.0,0.0,0.0,0.0,0.0,0.0,0.0,0.0,0.0,0.0,0.0,0.0,0.0,0.0,0.0,0.0,0.0,0.0,0.0,0.0,0.0,0.0,0.0,0.0,0.0,0.0,0.0,0.0,0.0,0.0,0.0,0.0,0.0,0.0,0.0,0.0,0.0,0.0,0.0,0.0,0.0,0.0,0.0,0.0,0.0,0.0,0.0,0.0,0.0,0.0,0.0,0.0,0.0,0.0,0.0,0.0,0.0,0.0,0.0,-1.6937,0.0,-2.0855,0.0,-1.9877,-1.7741,0.0,0.0,0.0,0.0,0.0,0.0,0.0,0.0,0.0,0.0,0.0,0.0,0.0,0.0,0.0,0.0,0.0,0.0,0.0,0.0,0.0,0.0,0.0,0.0,0.0,0.0,0.0,0.0,0.0,0.0,0.0,0.0,0.0,0.0,0.0,0.0,0.0,0.0,0.0,0.0,0.0,0.0,0.0,0.0,0.0,0.0,0.0,0.0,0.0,0.0,0.0,0.0,0.0,0.0,0.0,0.0,0.0,0.0,0.0,0.0,0.0,0.0,0.0,0.0,0.0,0.0,0.0,0.0,0.0,0.0,0.0,0.0,0.0,0.0,0.0,0.0,0.0,0.0,0.0,0.0,0.0,0.0,0.0,0.0,0.0,0.0,0.0,0.0,0.0,0.0,0.0,0.0,0.0,0.0,0.0,0.0,0.0,0.0,0.0,0.0,0.0,0.0,0.0,0.0,0.0,0.0,0.0,0.0,-1.6854,-2.0059,-2.1633,-2.171,-2.0456,-1.873,-1.6617,0.0,0.0,0.0,0.0,0.0,0.0,0.0,0.0,0.0,0.0,0.0,0.0,0.0,0.0,0.0,0.0,0.0,0.0,0.0,0.0,0.0,0.0,0.0,0.0,0.0,0.0,0.0,0.0,0.0,0.0,0.0,0.0,0.0,0.0,0.0,0.0,0.0,0.0,0.0,0.0,0.0,0.0,0.0,0.0,0.0,0.0,0.0,0.0,0.0,0.0,0.0,0.0,0.0,0.0,0.0,0.0,0.0,0.0,0.0,0.0,0.0,0.0,0.0,0.0,0.0,0.0,0.0,0.0,0.0,0.0,0.0,0.0,0.0,0.0,0.0,0.0,0.0,0.0,0.0,0.0,0.0,0.0,0.0,0.0,0.0,0.0,0.0,0.0,0.0,0.0,0.0,0.0,0.0,0.0,0.0,0.0,0.0,0.0,0.0,0.0,0.0,0.0,0.0,0.0,0.0,0.0,0.0,0.0,0.0,-1.7629,-1.863,-1.9526,-2.0131,-1.8035,-1.6711,0.0,0.0,0.0,0.0,0.0,0.0,0.0,0.0,0.0,0.0,0.0,0.0,0.0,0.0,0.0,0.0,0.0,0.0,0.0,0.0,0.0,0.0,0.0,0.0,0.0,0.0,0.0,0.0,0.0,0.0,0.0,0.0,0.0,0.0,0.0,0.0,0.0,0.0,0.0,0.0,0.0,0.0,0.0,0.0,0.0,0.0,0.0,0.0,0.0,0.0,0.0,0.0,0.0,0.0,0.0,0.0,0.0,0.0,0.0,0.0,0.0,0.0,0.0,0.0,0.0,0.0,0.0,0.0,0.0,0.0,0.0,0.0,0.0,0.0,0.0,0.0,0.0,0.0,0.0,0.0,0.0,0.0,0.0,0.0,0.0,0.0,0.0,0.0,0.0,0.0,0.0,0.0,0.0,0.0,0.0,0.0,0.0,0.0,0.0,0.0,0.0,0.0,0.0,0.0,0.0,0.0,0.0,0.0,0.0,-1.7855,-1.8926,-1.9731,-2.0192,-1.8652,-1.7603,-1.7137,0.0,0.0,0.0,0.0,0.0,0.0,0.0,0.0,0.0,0.0,0.0,0.0,0.0,0.0,0.0,0.0,0.0,0.0,0.0,0.0,0.0,0.0,0.0,0.0,0.0,0.0,0.0,0.0,0.0,0.0,0.0,0.0,0.0,0.0,0.0,0.0,0.0,0.0,0.0,0.0,0.0,0.0,0.0,0.0,0.0,0.0,0.0,0.0,0.0,0.0,0.0,0.0,0.0,0.0,0.0,0.0,0.0,0.0,0.0,0.0,0.0,0.0,0.0,0.0,0.0,0.0,0.0,0.0,0.0,0.0,0.0,0.0,0.0,0.0,0.0,0.0,0.0,0.0,0.0,0.0,0.0,0.0,0.0,0.0,0.0,0.0,0.0,0.0,0.0,0.0,0.0,0.0,0.0,0.0,0.0,0.0,0.0,0.0,0.0,0.0,0.0,0.0,0.0,0.0,0.0,0.0,0.0,0.0,-2.0165,-2.1933,-2.2067,-2.0507,-2.0259,-1.9073,0.0,0.0,0.0,0.0,0.0,0.0,0.0,0.0,0.0,0.0,0.0,0.0,0.0,0.0,0.0,0.0,0.0,0.0,0.0,0.0,0.0,0.0,0.0,0.0,0.0,0.0,0.0,0.0,0.0,0.0,0.0,0.0,0.0,0.0,0.0,0.0,0.0,0.0,0.0,0.0,0.0,0.0,0.0,0.0,0.0,0.0,0.0,0.0,0.0,0.0,0.0,0.0,0.0,0.0,0.0,0.0,0.0,0.0,0.0,0.0,0.0,0.0,0.0,0.0,0.0,0.0,0.0,0.0,0.0,0.0,0.0,0.0,0.0,0.0,0.0,0.0,0.0,0.0,0.0,0.0,0.0,0.0,0.0,0.0,0.0,0.0,0.0,0.0,0.0,0.0,0.0,0.0,0.0,0.0,0.0,0.0,0.0,0.0,0.0,0.0,0.0,0.0,0.0,0.0,0.0,0.0,0.0,0.0,0.0,-2.1154,-2.2805,-2.3448,-2.2919,-2.1111,-1.9821,0.0,0.0,0.0,0.0,0.0,0.0,0.0,0.0,0.0,0.0,0.0,0.0,0.0,0.0,0.0,0.0,0.0,0.0,0.0,0.0,0.0,0.0,0.0,0.0,0.0,0.0,0.0,0.0,0.0,0.0,0.0,0.0,0.0,0.0,0.0,0.0,0.0,0.0,0.0,0.0,0.0,0.0,0.0,0.0,0.0,0.0,0.0,0.0,0.0,0.0,0.0,0.0,0.0,0.0,0.0,0.0,0.0,0.0,0.0,0.0,0.0,0.0,0.0,0.0,0.0,0.0,0.0,0.0,0.0,0.0,0.0,0.0,0.0,0.0,0.0,0.0,0.0,0.0,0.0,0.0,0.0,0.0,0.0,0.0,0.0,0.0,0.0,0.0,0.0,0.0,0.0,0.0,0.0,0.0,0.0,0.0,0.0,0.0,0.0,0.0,0.0,0.0,0.0,0.0,0.0,0.0,0.0,0.0,-2.0881,-2.1802,-2.3526,-2.4406,-2.4371,-2.2638,-2.1187,0.0,0.0,0.0,0.0,0.0,0.0,0.0,0.0,0.0,0.0,0.0,0.0,0.0,0.0,0.0,0.0,0.0,0.0,0.0,0.0,0.0,0.0,0.0,0.0,0.0,0.0,0.0,0.0,0.0,0.0,0.0,0.0,0.0,0.0,0.0,0.0,0.0,0.0,0.0,0.0,0.0,0.0,0.0,0.0,0.0,0.0,0.0,0.0,0.0,0.0,0.0,0.0,0.0,0.0,0.0,0.0,0.0,0.0,0.0,0.0,0.0,0.0,0.0,0.0,0.0,0.0,0.0,0.0,0.0,0.0,0.0,0.0,0.0,0.0,0.0,0.0,0.0,0.0,0.0,0.0,0.0,0.0,0.0,0.0,0.0,0.0,0.0,0.0,0.0,0.0,0.0,0.0,0.0,0.0,0.0,0.0,0.0,0.0,0.0,0.0,0.0,0.0,0.0,0.0,0.0,0.0,0.0,0.0,-2.138,-2.2084,-2.4,-2.4989,-2.4961,-2.42,-2.264,0.0,0.0,0.0,0.0,0.0,0.0,0.0,0.0,0.0,0.0,0.0,0.0,0.0,0.0,0.0,0.0,0.0,0.0,0.0,0.0,0.0,0.0,0.0,0.0,0.0,0.0,0.0,0.0,0.0,0.0,0.0,0.0,0.0,0.0,0.0,0.0,0.0,0.0,0.0,0.0,0.0,0.0,0.0,0.0,0.0,0.0,0.0,0.0,0.0,0.0,0.0,0.0,0.0,0.0,0.0,0.0,0.0,0.0,0.0,0.0,0.0,0.0,0.0,0.0,0.0,0.0,0.0,0.0,0.0,0.0,0.0,0.0,0.0,0.0,0.0,0.0,0.0,0.0,0.0,0.0,0.0,0.0,0.0,0.0,0.0,0.0,0.0,0.0,0.0,0.0,0.0,0.0,0.0,0.0,0.0,0.0,0.0,0.0,0.0,0.0,0.0,0.0,0.0,0.0,0.0,0.0,0.0,0.0,-2.1725,-2.1387,-2.3687,-2.4889,-2.4851,-2.3572,-2.2273,0.0,0.0,0.0,0.0,0.0,0.0,0.0,0.0,0.0,0.0,0.0,0.0,0.0,0.0,0.0,0.0,0.0,0.0,0.0,0.0,0.0,0.0,0.0,0.0,0.0,0.0,0.0,0.0,0.0,0.0,0.0,0.0,0.0,0.0,0.0,0.0,0.0,0.0,0.0,0.0,0.0,0.0,0.0,0.0,0.0,0.0,0.0,0.0,-1.6129,0.0,0.0,0.0,0.0,0.0,0.0,0.0,0.0,0.0,0.0,0.0,0.0,0.0,0.0,0.0,0.0,0.0,0.0,0.0,0.0,0.0,0.0,0.0,0.0,0.0,0.0,0.0,0.0,0.0,0.0,0.0,0.0,0.0,0.0,0.0,0.0,0.0,0.0,0.0,0.0,0.0,0.0,0.0,0.0,0.0,0.0,0.0,0.0,0.0,0.0,0.0,0.0,0.0,0.0,0.0,0.0,0.0,0.0,0.0,-2.1862,-2.1531,-2.32,-2.4107,-2.3992,-2.2621,-2.1803,0.0,0.0,0.0,0.0,0.0,0.0,0.0,0.0,0.0,0.0,0.0,0.0,0.0,0.0,0.0,0.0,0.0,0.0,0.0,0.0,0.0,0.0,0.0,0.0,0.0,0.0,0.0,0.0,0.0,0.0,0.0,0.0,0.0,0.0,0.0,0.0,0.0,0.0,0.0,0.0,0.0,0.0,0.0,0.0,0.0,0.0,0.0,0.0,0.0,0.0,0.0,0.0,0.0,0.0,0.0,0.0,0.0,0.0,0.0,0.0,0.0,0.0,0.0,0.0,0.0,0.0,0.0,0.0,0.0,0.0,0.0,0.0,0.0,0.0,0.0,0.0,0.0,0.0,0.0,0.0,0.0,0.0,0.0,0.0,0.0,0.0,0.0,0.0,0.0,0.0,0.0,0.0,0.0,0.0,0.0,0.0,0.0,0.0,0.0,0.0,0.0,0.0,0.0,0.0,0.0,0.0,0.0,-2.0087,-2.1583,-2.1736,-2.2609,-2.3066,-2.2971,-2.1657,-2.125,-2.1859,0.0,0.0,0.0,0.0,0.0,0.0,0.0,0.0,0.0,0.0,0.0,0.0,0.0,0.0,0.0,0.0,0.0,0.0,0.0,0.0,0.0,0.0,0.0,0.0,0.0,0.0,0.0,0.0,0.0,0.0,0.0,0.0,0.0,0.0,0.0,0.0,0.0,0.0,-1.3947,-1.4472,0.0,0.0,0.0,0.0,0.0,0.0,0.0,0.0,-1.7305,0.0,0.0,0.0,0.0,0.0,0.0,0.0,0.0,0.0,0.0,0.0,0.0,0.0,0.0,0.0,0.0,0.0,0.0,0.0,0.0,0.0,0.0,0.0,0.0,0.0,0.0,0.0,0.0,0.0,0.0,0.0,0.0,0.0,0.0,0.0,0.0,0.0,0.0,0.0,0.0,0.0,0.0,0.0,0.0,0.0,0.0,0.0,0.0,0.0,0.0,0.0,0.0,0.0,0.0,0.0,0.0,-1.8098,-1.9295,-2.0207,-2.0902,-2.1701,-2.2085,-2.2005,-2.1154,-2.0711,-2.0673,0.0,0.0,0.0,0.0,0.0,0.0,0.0,0.0,0.0,0.0,0.0,0.0,0.0,0.0,0.0,0.0,0.0,0.0,0.0,0.0,0.0,0.0,0.0,0.0,0.0,0.0,0.0,0.0,0.0,0.0,0.0,0.0,0.0,0.0,0.0,0.0,0.0,0.0,0.0,-1.6372,-1.7401,0.0,0.0,0.0,0.0,0.0,0.0,0.0,0.0,-1.8076,0.0,0.0,0.0,0.0,0.0,0.0,0.0,0.0,0.0,0.0,0.0,0.0,0.0,0.0,0.0,0.0,0.0,0.0,0.0,0.0,0.0,0.0,0.0,0.0,0.0,0.0,0.0,0.0,0.0,0.0,0.0,0.0,0.0,0.0,0.0,0.0,0.0,0.0,0.0,0.0,0.0,0.0,0.0,0.0,0.0,0.0,0.0,0.0,0.0,0.0,0.0,0.0,0.0,0.0,0.0,-1.7723,-1.9295,-2.0294,-2.0637,-2.1018,-2.1189,-2.1112,-1.9936,-1.9286,0.0,0.0,0.0,0.0,0.0,0.0,0.0,0.0,0.0,0.0,0.0,0.0,0.0,0.0,0.0,0.0,0.0,0.0,0.0,0.0,0.0,0.0,0.0,0.0,0.0,0.0,0.0,0.0,0.0,0.0,0.0,0.0,0.0,0.0,0.0,0.0,0.0,0.0,0.0,0.0,-1.7156,-1.8068,-1.9293,0.0,0.0,0.0,0.0,0.0,0.0,-1.8491,-1.8446,0.0,0.0,0.0,0.0,0.0,0.0,0.0,0.0,0.0,0.0,0.0,0.0,0.0,0.0,0.0,0.0,0.0,0.0,0.0,0.0,0.0,0.0,0.0,0.0,0.0,0.0,0.0,0.0,0.0,0.0,0.0,0.0,0.0,0.0,0.0,0.0,0.0,0.0,0.0,0.0,0.0,0.0,0.0,0.0,0.0,0.0,0.0,0.0,0.0,0.0,0.0,0.0,0.0,0.0,0.0,-1.7164,-1.9133,-2.0255,-2.0344,-2.0338,-2.0303,-2.0244,-1.9023,-1.8271,0.0,0.0,0.0,0.0,0.0,0.0,0.0,0.0,0.0,0.0,0.0,0.0,0.0,0.0,0.0,0.0,0.0,0.0,0.0,0.0,0.0,0.0,0.0,0.0,0.0,0.0,0.0,0.0,0.0,0.0,0.0,0.0,0.0,0.0,0.0,0.0,0.0,0.0,0.0,0.0,0.0,-1.8735,-1.9346,-1.9351,0.0,0.0,0.0,0.0,-1.9487,-1.9102,0.0,0.0,0.0,0.0,0.0,0.0,0.0,0.0,0.0,0.0,0.0,0.0,0.0,0.0,0.0,0.0,0.0,0.0,0.0,0.0,0.0,0.0,0.0,0.0,0.0,0.0,0.0,0.0,0.0,0.0,0.0,0.0,0.0,0.0,0.0,0.0,0.0,0.0,0.0,0.0,0.0,0.0,0.0,0.0,0.0,0.0,0.0,0.0,0.0,0.0,0.0,0.0,0.0,0.0,0.0,0.0,-1.7086,-1.8019,-1.8841,-1.9491,-1.9485,-1.9442,-1.9452,-1.9253,-1.8812,0.0,0.0,0.0,0.0,0.0,0.0,0.0,0.0,0.0,0.0,0.0,0.0,0.0,0.0,0.0,0.0,0.0,0.0,0.0,0.0,0.0,0.0,0.0,0.0,0.0,0.0,0.0,0.0,0.0,0.0,0.0,0.0,0.0,0.0,0.0,0.0,0.0,0.0,0.0,0.0,0.0,-2.0431,-2.079,-2.0566,-2.0583,0.0,0.0,0.0,-2.0907,-1.996,0.0,0.0,0.0,0.0,0.0,0.0,0.0,0.0,0.0,0.0,0.0,0.0,0.0,0.0,0.0,0.0,0.0,0.0,0.0,0.0,0.0,0.0,0.0,0.0,0.0,0.0,0.0,0.0,0.0,0.0,0.0,0.0,0.0,0.0,0.0,0.0,0.0,0.0,0.0,0.0,0.0,0.0,0.0,0.0,0.0,0.0,0.0,0.0,0.0,0.0,0.0,0.0,0.0,0.0,0.0,-1.6735,-1.7067,-1.8246,-1.9018,-1.9338,-1.9323,-1.9295,-1.9295,-1.8858,-1.8252,0.0,0.0,0.0,0.0,0.0,0.0,0.0,0.0,0.0,0.0,0.0,0.0,0.0,0.0,0.0,0.0,0.0,0.0,0.0,0.0,0.0,0.0,0.0,0.0,0.0,0.0,0.0,0.0,0.0,0.0,0.0,0.0,0.0,0.0,0.0,0.0,0.0,0.0,0.0,0.0,0.0,0.0,-2.069,-2.0646,0.0,0.0,0.0,-2.0235,-2.043,0.0,0.0,0.0,0.0,0.0,0.0,0.0,0.0,0.0,0.0,0.0,0.0,0.0,0.0,0.0,0.0,0.0,0.0,0.0,0.0,0.0,0.0,0.0,0.0,0.0,0.0,0.0,0.0,0.0,0.0,0.0,0.0,0.0,0.0,0.0,0.0,0.0,0.0,0.0,0.0,0.0,0.0,0.0,0.0,0.0,0.0,0.0,0.0,0.0,0.0,0.0,0.0,0.0,0.0,0.0,0.0,0.0,-1.7032,-1.8577,-1.9372,-1.9314,-1.9295,-1.9295,-1.9286,-1.8711,0.0,0.0,0.0,0.0,0.0,0.0,0.0,0.0,0.0,0.0,0.0,0.0,0.0,0.0,0.0,0.0,0.0,0.0,0.0,0.0,0.0,0.0,0.0,0.0,0.0,0.0,0.0,-1.278,0.0,0.0,0.0,0.0,0.0,0.0,0.0,0.0,0.0,0.0,0.0,0.0,0.0,0.0,-1.978,-2.012,-2.035,-2.0308,0.0,0.0,-2.0097,-2.0118,-1.955,-1.8914,0.0,0.0,0.0,0.0,0.0,0.0,0.0,0.0,0.0,0.0,0.0,0.0,0.0,0.0,0.0,0.0,0.0,0.0,0.0,0.0,0.0,0.0,0.0,0.0,0.0,0.0,0.0,0.0,0.0,0.0,0.0,0.0,0.0,0.0,0.0,0.0,0.0,0.0,0.0,0.0,0.0,0.0,0.0,0.0,0.0,0.0,0.0,0.0,0.0,0.0,0.0,0.0,0.0,0.0,0.0,-1.7051,-1.86,-1.9372,-1.9295,-1.9295,-1.9295,-1.9295,-1.9253,-1.8482,0.0,0.0,0.0,0.0,0.0,0.0,0.0,0.0,0.0,0.0,0.0,0.0,0.0,0.0,0.0,0.0,0.0,0.0,0.0,0.0,0.0,0.0,0.0,0.0,0.0,0.0,0.0,0.0,0.0,0.0,0.0,0.0,0.0,0.0,0.0,0.0,0.0,0.0,0.0,0.0,0.0,-1.9735,-1.9339,-1.9779,-2.0326,0.0,0.0,-1.9615,-2.0819,-1.9613,-1.8446,-1.8235,0.0,0.0,0.0,0.0,0.0,0.0,0.0,0.0,0.0,0.0,0.0,0.0,0.0,0.0,0.0,0.0,0.0,0.0,0.0,0.0,0.0,0.0,0.0,0.0,0.0,0.0,0.0,0.0,0.0,0.0,0.0,0.0,0.0,0.0,0.0,0.0,0.0,0.0,0.0,0.0,0.0,0.0,0.0,0.0,0.0,0.0,0.0,0.0,0.0,0.0,0.0,0.0,0.0,-1.6943,-1.7023,-1.8535,-1.9323,-1.9305,-1.9295,-1.9295,-1.9295,-1.9295,-1.8775,0.0,0.0,0.0,0.0,0.0,0.0,0.0,0.0,0.0,0.0,0.0,0.0,0.0,0.0,0.0,0.0,0.0,0.0,0.0,0.0,0.0,0.0,0.0,0.0,0.0,0.0,0.0,0.0,-1.3477,-1.3421,-1.3474,0.0,0.0,0.0,0.0,0.0,0.0,0.0,0.0,0.0,0.0,-1.8933,-1.9148,-1.9396,0.0,0.0,-1.9489,-1.9322,-1.9793,-1.8649,-1.7727,-1.7812,-1.6726,0.0,0.0,0.0,0.0,0.0,0.0,0.0,0.0,0.0,0.0,0.0,0.0,0.0,0.0,0.0,0.0,0.0,0.0,0.0,0.0,0.0,0.0,0.0,0.0,0.0,0.0,0.0,0.0,0.0,0.0,0.0,0.0,0.0,0.0,0.0,0.0,0.0,0.0,0.0,0.0,0.0,0.0,0.0,0.0,0.0,0.0,0.0,0.0,0.0,0.0,0.0,0.0,-1.6886,-1.7001,-1.8511,-1.9295,-1.9295,-1.9295,-1.9295,-1.9295,-1.9295,-1.8913,0.0,0.0,0.0,0.0,0.0,0.0,0.0,0.0,0.0,0.0,0.0,0.0,0.0,0.0,0.0,0.0,0.0,0.0,0.0,0.0,0.0,0.0,0.0,0.0,0.0,0.0,0.0,0.0,-1.3641,-1.3486,-1.2936,0.0,0.0,0.0,0.0,0.0,0.0,0.0,0.0,0.0,0.0,-1.8476,-1.8767,-1.88,-1.8777,-1.8753,-1.8777,-1.8815,-1.8753,-1.7945,-1.7368,-1.7358,0.0,0.0,0.0,0.0,0.0,0.0,0.0,0.0,0.0,0.0,0.0,0.0,0.0,0.0,0.0,0.0,0.0,0.0,0.0,0.0,0.0,0.0,0.0,0.0,0.0,0.0,0.0,0.0,0.0,0.0,0.0,0.0,0.0,0.0,0.0,0.0,0.0,0.0,0.0,0.0,0.0,0.0,0.0,0.0,0.0,0.0,0.0,0.0,0.0,0.0,0.0,0.0,0.0,0.0,-1.703,-1.8529,-1.9295,-1.9295,-1.9295,-1.9295,-1.9295,-1.9295,-1.8922,-1.8133,0.0,0.0,0.0,0.0,0.0,0.0,0.0,0.0,0.0,0.0,0.0,0.0,0.0,0.0,0.0,0.0,0.0,0.0,0.0,0.0,0.0,0.0,0.0,0.0,0.0,0.0,-1.3689,-1.398,-1.3741,0.0,0.0,0.0,0.0,0.0,0.0,0.0,0.0,0.0,0.0,-1.8222,-1.8588,-1.8022,-1.7929,-1.7956,-1.7963,-1.7956,-1.7963,-1.7963,-1.7801,-1.7478,0.0,0.0,0.0,0.0,0.0,0.0,0.0,0.0,0.0,0.0,0.0,0.0,0.0,0.0,0.0,0.0,0.0,0.0,0.0,0.0,0.0,0.0,0.0,0.0,0.0,0.0,0.0,-1.71,-1.6394,0.0,0.0,0.0,0.0,0.0,0.0,0.0,0.0,0.0,0.0,0.0,-2.0483,-1.9929,0.0,0.0,0.0,0.0,0.0,0.0,0.0,0.0,0.0,0.0,0.0,0.0,-1.7128,-1.7817,-1.8805,-1.9295,-1.9295,-1.9295,-1.9295,-1.9295,-1.9295,-1.8904,-1.8124,0.0,0.0,0.0,0.0,0.0,0.0,0.0,0.0,0.0,0.0,0.0,0.0,0.0,0.0,0.0,0.0,0.0,0.0,0.0,0.0,0.0,0.0,0.0,0.0,0.0,-1.3724,0.0,0.0,0.0,0.0,0.0,0.0,0.0,0.0,0.0,0.0,0.0,-1.8071,-1.8162,-1.8654,-1.8731,-1.801,-1.7929,-1.7929,0.0,0.0,0.0,0.0,0.0,0.0,0.0,0.0,0.0,0.0,0.0,0.0,0.0,0.0,-1.3785,-1.3176,-1.3089,-1.3054,-1.2924,0.0,0.0,0.0,0.0,0.0,0.0,0.0,0.0,0.0,0.0,0.0,0.0,0.0,0.0,0.0,0.0,-1.7809,0.0,0.0,0.0,0.0,0.0,0.0,0.0,0.0,-2.0808,-2.1456,-2.2173,-2.1601,-2.1031,0.0,-1.9592,-1.8627,0.0,0.0,0.0,0.0,0.0,0.0,0.0,0.0,-1.754,-1.8203,-1.891,-1.9295,-1.9295,-1.9295,-1.9295,-1.9295,-1.9295,-1.9051,-1.8519,-1.8373,-1.7687,0.0,0.0,0.0,0.0,0.0,0.0,0.0,0.0,0.0,0.0,0.0,0.0,0.0,0.0,0.0,0.0,0.0,0.0,0.0,0.0,0.0,0.0,0.0,-1.4115,0.0,0.0,0.0,0.0,0.0,0.0,0.0,0.0,0.0,-1.7338,-1.8389,-1.9049,-1.8826,-1.9169,-1.9052,-1.8031,0.0,0.0,0.0,0.0,0.0,0.0,0.0,-1.6748,-1.6767,-1.6267,-1.5902,-1.5984,-1.5623,-1.5142,-1.48,0.0,0.0,-1.3674,-1.379,-1.3833,-1.3564,-1.3596,-1.374,-1.4061,-1.4092,-1.4136,0.0,0.0,0.0,0.0,0.0,0.0,0.0,0.0,-2.0117,-1.9767,0.0,-1.9011,0.0,0.0,0.0,0.0,0.0,0.0,0.0,0.0,-2.2631,-2.301,-2.2317,-2.2243,-2.2176,-2.2077,-2.1259,-2.0836,-2.0669,-1.8423,0.0,0.0,0.0,0.0,0.0,0.0,-1.8086,-1.8268,-1.8943,-1.9295,-1.9295,-1.9295,-1.9295,-1.9295,-1.9295,-1.9295,-1.9271,-1.9086,-1.866,-1.792,-1.7632,0.0,0.0,0.0,0.0,0.0,0.0,0.0,0.0,0.0,0.0,0.0,0.0,0.0,0.0,0.0,0.0,0.0,0.0,0.0,0.0,-1.4805,0.0,0.0,0.0,0.0,0.0,0.0,0.0,0.0,0.0,0.0,-1.9181,-1.9462,-1.9594,-1.945,0.0,0.0,0.0,0.0,-1.7882,-1.7889,-1.7618,-1.7399,-1.7352,-1.6782,-1.6306,-1.6262,0.0,0.0,-1.5153,-1.488,-1.4708,-1.4702,-1.4518,-1.4239,-1.3889,-1.4226,-1.437,-1.3758,-1.4152,-1.4595,-1.4532,-1.475,-1.4985,-2.2042,0.0,0.0,0.0,0.0,-2.1633,-2.2092,-2.2669,-2.241,-2.2004,-2.1475,-2.1236,0.0,0.0,0.0,0.0,0.0,0.0,-2.2163,-2.2716,-2.3203,-2.3581,-2.3905,-2.3857,-2.3508,-2.2939,-2.265,-2.221,-2.1643,-2.0938,-1.9628,-1.7776,0.0,0.0,0.0,0.0,-1.8439,-1.9013,-1.9228,-1.9295,-1.9295,-1.9295,-1.9295,-1.9295,-1.9295,-1.9295,-1.9295,-1.9243,-1.8806,-1.7948,-1.7911,0.0,0.0,0.0,0.0,0.0,0.0,0.0,0.0,0.0,0.0,0.0,0.0,0.0,0.0,0.0,0.0,0.0,0.0,0.0,-1.5566,-1.4967,-1.4965,0.0,0.0,0.0,0.0,0.0,0.0,0.0,0.0,0.0,-2.0726,-2.0046,-1.9571,0.0,0.0,-1.9017,-1.8024,-1.7929,-1.7842,-1.7577,0.0,0.0,0.0,-1.6582,-1.6238,-1.5656,-1.5226,-1.4886,-1.4834,-1.4558,-1.4507,-1.488,-1.4258,-1.3752,-1.4035,-1.4145,-1.4057,-1.3863,-1.3983,-1.4247,-1.4457,-1.4812,-1.5158,-2.366,-2.3133,-2.2448,-2.2312,-2.2602,-2.263,-2.3103,-2.3889,-2.3543,-2.3306,-2.3167,-2.2819,-2.2111,-2.1143,-2.0848,0.0,0.0,0.0,-2.3107,-2.3864,-2.3855,-2.4085,-2.4554,-2.4504,-2.4245,-2.3771,-2.3386,-2.3119,-2.2978,-2.2312,-2.1381,-2.0111,0.0,0.0,-1.9158,-1.8878,-1.8952,-1.9422,-1.9372,-1.9357,-1.9347,-1.9323,-1.9295,-1.9295,-1.9295,-1.9295,-1.9295,-1.9295,-1.9039,-1.8477,-1.8462,-1.7784,0.0,0.0,0.0,0.0,0.0,0.0,0.0,0.0,0.0,0.0,0.0,-1.4738,0.0,0.0,0.0,0.0,-1.5583,-1.638,-1.6831,-1.6555,0.0,0.0,0.0,0.0,0.0,0.0,0.0,-2.044,-2.0423,-2.0571,-2.1203,-1.9925,-1.9174,-1.9727,-1.9096,-1.8289,-1.7616,0.0,-1.7419,-1.7109,-1.7012,-1.6788,-1.6213,-1.602,-1.5718,-1.5142,-1.4817,-1.4686,-1.4834,-1.4542,-1.4444,-1.464,-1.4025,-1.3515,-1.3894,-1.3805,-1.3621,-1.3478,-1.3747,-1.3967,-1.3946,-1.4525,-1.5153,-2.4682,-2.4561,-2.3049,-2.2819,-2.3499,-2.35,-2.3961,-2.4626,-2.3851,-2.3964,-2.4642,-2.3858,-2.3506,-2.3447,-2.266,0.0,0.0,-2.3484,-2.3895,-2.4589,-2.4538,-2.4512,-2.4504,-2.4507,-2.4509,-2.4472,-2.3683,-2.373,-2.4388,-2.294,-2.2581,-2.323,-2.1745,-2.0957,-2.0845,-2.0083,-1.9694,-1.9712,-1.9653,-1.958,-1.95,-1.936,-1.9295,-1.9295,-1.9295,-1.9295,-1.9295,-1.9295,-1.9295,-1.928,-1.9113,-1.8685,-1.7948,0.0,0.0,0.0,0.0,0.0,0.0,0.0,0.0,0.0,0.0,0.0,0.0,0.0,0.0,0.0,-1.7328,0.0,-1.8375,-1.89,0.0,0.0,0.0,-1.972,-2.0033,-2.1205,-2.1675,-2.0925,0.0,0.0,0.0,0.0,-1.8647,-1.9322,-1.84,-1.7433,-1.6989,-1.6931,-1.6784,-1.6509,-1.6367,-1.6089,-1.5629,-1.5226,-1.4943,-1.4745,-1.4553,-1.4536,-1.4891,-1.4593,-1.4351,-1.4414,-1.38,-1.3372,-1.3573,-1.3372,-1.3127,-1.2852,-1.3409,-1.3779,-1.3304,-1.4107,-1.4915,-2.4682,-2.466,-2.427,-2.4232,-2.4382,-2.4376,-2.4523,-2.4664,-2.4473,-2.4507,-2.4664,-2.4492,-2.4398,-2.4367,-2.4179,-2.4186,-2.4367,-2.4379,-2.4441,-2.4538,-2.4573,-2.453,-2.4507,-2.4517,-2.4509,-2.449,-2.4269,-2.4295,-2.4472,-2.4109,-2.4007,-2.4129,-2.3138,-2.233,-2.1727,-2.1517,-2.1408,-2.1408,-2.1327,-2.0975,-2.0335,-1.966,-1.9295,-1.9295,-1.9295,-1.9295,-1.9295,-1.9295,-1.9295,-1.928,-1.9259,-1.8886,-1.8093,-1.7065,0.0,0.0,0.0,0.0,0.0,0.0,0.0,0.0,0.0,-1.6306,-1.4917,0.0,-1.7228,0.0,-1.763,-1.8637,-1.9757,-1.9113,0.0,0.0,-2.0451,-2.0734,-2.1356,-2.2009,-2.2305,-2.2152,-2.1875,-2.136,-2.0615,-1.9713,-1.8935,-1.8427,-1.7658,-1.7066,-1.6888,-1.6888,-1.6705,-1.6244,-1.6119,-1.5806,-1.5068,-1.4455,-1.4211,-1.4569,-1.4127,-1.391,-1.4602,-1.3876,-1.3457,-1.4071,-1.342,-1.2992,-1.3367,-1.319,-1.2963,-1.2822,-1.3238,-1.3605,-1.3362,-1.3931,-1.449,-2.4682,-2.4682,-2.4682,-2.4682,-2.4682,-2.4682,-2.4682,-2.4682,-2.4686,-2.4686,-2.4682,-2.4679,-2.4682,-2.4654,-2.4679,-2.4689,-2.4666,-2.4689,-2.4638,-2.4538,-2.4538,-2.454,-2.4515,-2.4517,-2.4509,-2.4509,-2.4509,-2.4509,-2.4509,-2.4509,-2.4509,-2.45,-2.4018,-2.3553,-2.3108,-2.2386,-2.2008,-2.2008,-2.1976,-2.1687,-2.1168,-2.0335,-1.9871,-1.988,-1.9507,-1.9295,-1.9295,-1.9295,-1.9259,-1.9162,-1.9162,-1.8979,-1.8517,-1.7523,-1.676,0.0,0.0,0.0,0.0,0.0,0.0,0.0,0.0,0.0,0.0,0.0,-1.8297,0.0,-1.9232,0.0,-2.1316,-2.0585,-2.0464,-2.1474,-2.1633,-2.1786,-2.2156,-2.2512,-2.2549,-2.2021,-2.1732,-2.1233,-2.0408,-1.9619,-1.8937,-1.8429,-1.7616,-1.7134,-1.7127,-1.7121,-1.6895,-1.6377,-1.6383,-1.6109,-1.5218,-1.4232,-1.3813,-1.4421,-1.4086,-1.3906,-1.445,-1.3949,-1.3518,-1.3847,-1.3233,-1.2725,-1.3104,-1.3065,-1.2886,-1.2876,-1.3055,-1.3243,-1.319,-1.3615,-1.3972,-2.4876,-2.4876,-2.4867,-2.4867,-2.4858,-2.4745,-2.4682,-2.4682,-2.4682,-2.4682,-2.4682,-2.4695,-2.4647,-2.4631,-2.4682,-2.4657,-2.4615,-2.4657,-2.4657,-2.4589,-2.4538,-2.4512,-2.4512,-2.4507,-2.4509,-2.4509,-2.4509,-2.4509,-2.4509,-2.4509,-2.4509,-2.4509,-2.4509,-2.4509,-2.4444,-2.3043,-2.2312,-2.2312,-2.2212,-2.2134,-2.2039,-2.1104,-2.0602,-2.0549,-1.9761,-1.9295,-1.9295,-1.9295,-1.9227,-1.9057,-1.9048,-1.9039,-1.9013,-1.8062,-1.7584,0.0,-1.6782,0.0,0.0,0.0,0.0,0.0,0.0,0.0,0.0,-1.8879,-1.9197,-2.0584,-2.1325,-2.1988,-2.259,-2.2366,-2.2316,-2.2635,-2.2751,-2.2724,-2.251,-2.284,-2.2596,-2.1382,-2.123,-2.093,-2.0066,-1.9334,-1.8902,-1.866,-1.8012,-1.7523,-1.75,-1.746,-1.7182,-1.6734,-1.6729,-1.631,-1.5432,-1.43,-1.3748,-1.4376,-1.4282,-1.419,-1.4457,-1.4184,-1.3901,-1.3542,-1.3055,-1.2779,-1.2876,-1.2934,-1.2886,-1.2886,-1.2929,-1.2934,-1.2978,-1.32,-1.3478,-2.5756,-2.5765,-2.5765,-2.5765,-2.5709,-2.5008,-2.4682,-2.4682,-2.4682,-2.4682,-2.4682,-2.4692,-2.4692,-2.4686,-2.4692,-2.4695,-2.4682,-2.4686,-2.467,-2.4599,-2.4589,-2.4538,-2.4495,-2.4498,-2.4509,-2.4509,-2.4509,-2.4509,-2.4509,-2.4509,-2.4509,-2.4509,-2.4509,-2.4509,0.0,0.0,0.0,0.0,-2.3325,-2.293,-2.2833,-2.1389,-2.0577,-2.0501,-1.9711,0.0,-1.9295,-1.9295,-1.9289,-1.9259,-1.9234,0.0,0.0,0.0,0.0,0.0,0.0,0.0,0.0,0.0,0.0,0.0,-2.0127,-1.9636,-1.9352,-2.0244,-2.1257,-2.2169,-2.2358,-2.238,-2.2311,-2.2534,-2.2488,-2.208,-2.2742,-2.3046,-2.2512,-2.2826,-2.2701,-2.165,-2.1334,-2.0666,-1.9365,-1.9276,-1.9134,-1.846,-1.8101,-1.7966,-1.7943,-1.7645,-1.7307,-1.7044,-1.6446,-1.5645,-1.4925,-1.4287,-1.3998,-1.4474,-1.4155,-1.3922,-1.4037,-1.3763,-1.3369,-1.312,-1.2871,-1.273,-1.2881,-1.2886,-1.2886,-1.2886,-1.2886,-1.2886,-1.2886,-1.2973,-1.3022,-2.6601,0.0,-2.616,-2.6,0.0,-2.5064,-2.4682,-2.4682,-2.4682,-2.4682,-2.4682,-2.4682,-2.4682,-2.4682,-2.4682,-2.4692,-2.4686,-2.4692,-2.4695,-2.465,-2.4624,-2.4573,-2.4495,-2.4507,-2.4509,-2.4509,-2.4509,-2.4509,-2.4509,-2.4509,-2.4509,-2.4509,-2.4509,-2.4509,-2.4509,-2.4509,-2.4509,-2.4509,-2.4064,-2.3817,-2.3744,-2.2545,-2.1646,-2.1182,0.0,0.0,0.0,0.0,0.0,0.0,0.0,0.0,0.0,0.0,0.0,-1.9886,-1.9157,-1.9016,-1.9783,-2.0196,-2.0756,-2.1539,-2.1523,-2.1188,-2.0472,-2.1438,-2.2392,-2.3133,-2.2856,-2.2661,-2.277,-2.2778,-2.2631,-2.2412,-2.2793,-2.299,-2.278,-2.2559,-2.2149,-2.1341,-2.0795,-2.0073,-1.9154,-1.9166,-1.9147,-1.865,-1.8313,-1.8093,-1.8058,-1.7885,-1.7681,-1.7404,-1.6337,-1.5531,-1.5142,-1.4521,-1.4233,-1.4609,-1.4424,-1.4194,-1.4229,-1.3932,-1.3583,-1.3276,-1.2978,-1.2832,-1.2886,-1.2886,-1.2886,-1.2886,-1.2886,-1.2886,-1.2886,-1.2886,-1.2886,-2.742,-2.7336,-2.6536,-2.6226,-2.6141,-2.5139,-2.4682,-2.4682,0.0,0.0,0.0,-2.4682,-2.4682,-2.4682,-2.4682,-2.4682,-2.4692,-2.4692,-2.4686,-2.4685,-2.4615,-2.4556,-2.4504,-2.4507,-2.4509,-2.4509,-2.4509,-2.4509,-2.4509,-2.4509,-2.4509,-2.4509,-2.4509,-2.4509,-2.4509,-2.4509,-2.4509,-2.4509,-2.4509,-2.449,-2.4428,-2.3614,-2.2839,-2.2098,-2.1246,-2.0469,-1.9791,-2.0381,-2.0352,-1.959,-2.0807,-2.1252,-2.0616,-2.0751,-2.0994,-2.1245,-2.0865,-2.0653,-2.0799,-2.1427,-2.1798,-2.1798,-2.2306,-2.2392,-2.1815,-2.2288,-2.2863,-2.3519,-2.293,-2.2724,-2.3245,-2.2965,-2.2807,-2.2899,-2.2914,-2.2942,-2.2995,-2.2356,-2.1643,-2.095,-2.0295,-1.9701,-1.9198,-1.9087,-1.8993,-1.8928,-1.8465,-1.8038,-1.7978,-1.7878,-1.7724,-1.7313,-1.6398,-1.5673,-1.5461,-1.4929,-1.4581,-1.4863,-1.4799,-1.4699,-1.4569,-1.4319,-1.3951,-1.355,-1.3169,-1.293,-1.2886,-1.2886,-1.2886,-1.2886,-1.2886,-1.2886,-1.2886,-1.2886,-1.2886,-2.8229,-2.8163,-2.7373,-2.7035,-2.6904,-2.5364,-2.4682,-2.4682,-2.4682,-2.4682,-2.4682,-2.4682,-2.4682,-2.4682,-2.4682,-2.4692,-2.4689,-2.4689,-2.4657,0.0,-2.4528,-2.4512,-2.4504,-2.4507,-2.4509,-2.4509,-2.4509,-2.4509,-2.4509,-2.4509,-2.4509,-2.4509,-2.4509,-2.4509,-2.4509,-2.4509,-2.4509,-2.4509,-2.4509,-2.4438,-2.4321,-2.3526,-2.3048,-2.2831,-2.2051,-2.1582,-2.1455,-2.1555,-2.1565,-2.142,-2.1631,-2.1713,-2.1595,-2.1281,-2.1352,-2.1962,-2.1651,-2.1686,-2.2324,-2.247,-2.2556,-2.2556,-2.2642,-2.2605,-2.2485,-2.2465,-2.2576,-2.2769,-2.243,-2.2379,-2.2822,-2.2871,-2.2907,-2.2923,-2.3167,-2.3194,-2.2926,-2.2456,-2.1779,-2.1048,-2.049,-1.9792,-1.9146,-1.8987,-1.8934,-1.8881,-1.8321,-1.7869,-1.7363,-1.7307,-1.709,-1.6652,-1.628,-1.585,-1.5399,-1.5076,-1.4936,-1.4983,-1.5037,-1.496,-1.4719,-1.4334,-1.3961,-1.3599,-1.3188,-1.2925,-1.2886,-1.2886,-1.2886,-1.2886,-1.2886,-1.2886,-1.2886,-1.2886,-1.2886,-2.911,-2.895,-2.7739,-2.7448,-2.7713,-2.6106,-2.513,-2.4707,-2.4682,-2.4682,-2.4682,-2.4682,-2.4682,-2.4682,-2.4686,-2.4695,-2.4686,-2.4657,-2.4641,-2.4599,-2.4538,-2.4513,-2.4506,-2.4517,-2.4509,-2.4509,-2.4509,-2.4509,-2.4509,-2.4509,-2.4509,-2.4509,-2.4509,-2.4509,-2.4509,-2.4509,-2.4509,-2.4509,-2.4509,-2.4482,-2.4384,-2.4005,-2.3555,-2.3077,-2.2655,-2.2224,-2.183,-2.2217,-2.2253,-2.183,-2.262,-2.2914,-2.2474,-2.2511,-2.2647,-2.2816,-2.2582,-2.2503,-2.2686,-2.2712,-2.2712,-2.2712,-2.268,-2.2643,-2.2604,-2.2586,-2.2586,-2.2667,-2.2663,-2.2735,-2.2811,-2.3187,-2.3286,-2.293,-2.3176,-2.3135,-2.2601,-2.2063,-2.1492,-2.0746,-2.0156,-1.9488,-1.8715,-1.8548,-1.8375,-1.8038,-1.7545,-1.6928,-1.6363,-1.6249,-1.6249,-1.6156,-1.5936,-1.5594,-1.5269,-1.5156,-1.5098,-1.5098,-1.5156,-1.5129,-1.4883,-1.4513,-1.4063,-1.3848,-1.333,-1.2939,-1.2886,-1.2886,-1.2886,-1.2886,-1.2886,-1.2886,-1.2886,-1.2886,-1.2886,-2.9692,-2.9542,-2.789,-2.7345,-2.7459,-2.6238,-2.5318,-2.4726,-2.4682,-2.4682,-2.4682,-2.4682,-2.4682,-2.4682,-2.4695,-2.4695,-2.4686,-2.4647,-2.4624,-2.4589,-2.4556,-2.4504,-2.4507,-2.4517,-2.4507,-2.45,-2.4509,-2.4509,-2.4509,-2.4509,-2.4509,-2.4509,-2.4509,-2.4509,-2.4509,-2.4509,-2.4509,-2.4509,-2.4509,-2.4518,-2.4482,-2.443,-2.4079,-2.3443,-2.3316,-2.2986,-2.24,-2.2942,-2.2988,-2.2437,-2.352,-2.3924,-2.3327,-2.354,-2.3619,-2.341,-2.3149,-2.2902,-2.2712,-2.2712,-2.2712,-2.272,-2.2651,-2.2622,-2.2621,-2.2523,-2.259,-2.2779,-2.2962,-2.3067,-2.3112,-2.337,-2.3499,-2.3058,-2.3137,-2.292,-2.2217,-2.163,-2.1042,-2.0352,-1.9766,-1.9093,-1.8441,-1.8159,-1.7929,-1.7307,-1.6816,-1.6306,-1.5743,-1.558,-1.5758,-1.5773,-1.5594,-1.542,-1.5259,-1.5259,-1.5269,-1.5269,-1.5259,-1.5187,-1.5003,-1.4499,-1.4068,-1.3906,-1.3369,-1.2954,-1.2886,-1.2886,-1.2886,-1.2886,-1.2886,-1.2886,-1.2886,-1.2886,-1.2886,-2.9692,-2.9439,-2.7927,-2.6331,-2.5224,-2.4961,-2.4829,-2.4736,-2.4682,-2.4682,-2.4682,-2.4682,-2.4682,-2.4682,-2.4682,-2.4686,-2.4689,-2.4682,-2.4657,-2.4606,-2.4589,-2.4564,-2.4504,-2.4504,-2.4506,-2.4517,-2.45,-2.45,-2.45,-2.4509,-2.4509,-2.4509,-2.4509,-2.4509,-2.4509,-2.4509,-2.4509,-2.4509,-2.4509,-2.4482,-2.4421,-2.4421,-2.433,-2.4201,-2.4118,-2.4054,-2.3879,-2.4044,-2.4052,-2.3988,-2.4089,-2.4162,-2.4032,-2.3687,-2.3437,-2.3378,-2.3001,-2.2712,-2.2712,-2.2712,-2.2712,-2.272,-2.2701,-2.2691,-2.2676,-2.2362,-2.2436,-2.2933,-2.294,-2.3137,-2.3673,-2.339,-2.32,-2.334,-2.2965,-2.2509,-2.203,-2.1348,-2.0646,-2.0099,-1.9558,-1.8952,-1.8267,-1.7935,-1.7705,-1.7085,-1.6866,-1.6641,-1.6135,-1.6021,-1.5864,-1.5478,-1.5308,-1.5415,-1.5362,-1.5362,-1.5366,-1.5357,-1.5357,-1.5225,-1.4885,-1.4452,-1.398,-1.3696,-1.3237,-1.291,-1.2886,-1.2886,-1.2886,-1.2886,-1.2886,-1.2886,-1.2886,-1.2886,-1.2886,-2.9692,-2.9579,-2.8415,-2.7251,-2.6191,-2.5684,-2.5468,-2.5437,-2.4923,-2.4682,-2.4682,-2.4682,-2.4682,-2.4682,-2.4686,-2.4695,-2.4686,-2.4657,-2.4659,-2.4641,-2.4615,-2.458,-2.4554,-2.4554,-2.4556,-2.4549,-2.4532,-2.4506,-2.4506,-2.4507,-2.4509,-2.4509,-2.4509,-2.4509,-2.4509,-2.4509,-2.4509,-2.4509,-2.4509,-2.4492,-2.4474,-2.442,-2.4385,-2.4367,-2.4294,-2.4275,-2.4257,-2.4266,-2.4256,-2.4191,-2.42,-2.419,-2.4199,-2.3828,-2.3566,-2.3401,-2.2959,-2.2712,-2.2712,-2.2712,-2.2712,-2.2712,-2.2707,-2.2706,-2.2676,-2.2319,-2.2358,-2.2845,-2.3063,-2.3456,-2.3994,-2.3802,-2.358,-2.3643,-2.309,-2.2456,-2.2123,-2.1348,-2.059,-2.0188,-1.9558,-1.878,-1.7705,-1.6922,-1.6477,-1.6192,-1.6135,-1.6083,-1.5806,-1.5748,-1.5637,-1.5425,-1.5362,-1.5366,-1.5308,-1.5357,-1.5415,-1.5415,-1.5415,-1.5264,-1.4834,-1.4424,-1.3946,-1.3569,-1.3159,-1.29,-1.2886,-1.2886,-1.2886,-1.2886,-1.2886,-1.2886,-1.2886,-1.2886,-1.2886,-2.9692,-2.9551,-2.8763,-2.7815,-2.6838,-2.6254,-2.5869,-2.5596,-2.4961,-2.4682,-2.4682,-2.4682,-2.4682,-2.4682,-2.4695,-2.4686,-2.4682,-2.4654,-2.4638,-2.4689,-2.4638,-2.4631,-2.4624,-2.4634,-2.4615,-2.4589,-2.4554,-2.4521,-2.4512,-2.4523,-2.4524,-2.4507,-2.4507,-2.4517,-2.4509,-2.4509,-2.4509,-2.4509,-2.4509,-2.4509,-2.45,-2.4447,-2.442,-2.4439,-2.4348,-2.4339,-2.4312,-2.433,-2.4294,-2.4238,-2.4247,-2.4182,-2.4122,-2.3867,-2.3553,-2.3224,-2.2901,-2.2712,-2.2712,-2.2712,-2.2712,-2.2703,-2.2697,-2.2661,-2.2532,-2.2231,-2.222,-2.2579,-2.2847,-2.3245,-2.3976,-2.3708,-2.3542,-2.3699,-2.2922,-2.2257,-2.2095,-2.1341,-2.064,-2.0238,-1.961,-1.8673,-1.7424,-1.642,-1.5806,-1.5522,-1.5473,-1.5415,-1.5415,-1.5415,-1.5415,-1.5415,-1.5415,-1.5357,-1.5254,-1.5303,-1.5415,-1.5371,-1.5337,-1.5054,-1.4678,-1.4189,-1.3818,-1.3301,-1.3037,-1.2915,-1.2891,-1.2886,-1.2886,-1.2886,-1.2886,-1.2886,-1.2886,-1.2886,-1.2886,-2.9692,-2.9579,-2.8763,-2.758,-2.6094,-2.6075,-2.5578,-2.5008,-2.4782,-2.4726,-2.4707,-2.4682,-2.4682,-2.4682,-2.4682,-2.4682,-2.4682,-2.4682,-2.4692,-2.4682,-2.4692,-2.4686,-2.4682,-2.4682,-2.4666,-2.4615,-2.4599,-2.4599,-2.4589,-2.4599,-2.4564,-2.4504,-2.4504,-2.4497,-2.45,-2.45,-2.4509,-2.4509,-2.4509,-2.4509,-2.4509,-2.4509,-2.4482,-2.4492,-2.443,-2.4385,-2.4375,-2.4339,-2.4284,-2.4294,-2.4294,-2.4182,-2.3937,-2.364,-2.328,-2.2825,-2.2738,-2.2712,-2.2712,-2.2712,-2.2712,-2.2712,-2.2711,-2.2561,-2.2301,-2.1986,-2.1974,-2.2273,-2.2095,-2.2386,-2.3241,-2.287,-2.2669,-2.3255,-2.2411,-2.1913,-2.2035,-2.1348,-2.0696,-2.0238,-1.9604,-1.8655,-1.7368,-1.6759,-1.6093,-1.5642,-1.5415,-1.5415,-1.5415,-1.5415,-1.5415,-1.5415,-1.5415,-1.5415,-1.541,-1.541,-1.5415,-1.5298,-1.5029,-1.4687,-1.4243,-1.3766,-1.3418,-1.3105,-1.2969,-1.2895,-1.2891,-1.2886,-1.2886,-1.2886,-1.2881,-1.2881,-1.2735,-1.2886,-1.2886,-2.9782,-2.9626,-2.8852,-2.8448,-2.8256,-2.7242,-2.6575,-2.6256,-2.5731,-2.5205,-2.4764,-2.4682,-2.4682,-2.4682,-2.4682,-2.4682,-2.4682,-2.4682,-2.4682,-2.4682,-2.4682,-2.4682,-2.4686,-2.4686,-2.4686,-2.467,-2.4663,-2.4641,-2.4589,-2.4599,-2.4589,-2.4564,-2.4512,-2.4504,-2.4506,-2.4507,-2.4509,-2.4509,-2.4509,-2.4509,-2.4509,-2.4509,-2.4509,-2.4509,-2.4473,-2.4456,-2.4474,-2.4429,-2.4411,-2.4358,-2.4321,-2.4191,-2.3896,-2.3468,-2.3075,-2.2756,-2.2712,-2.2712,-2.2712,-2.2712,-2.2712,-2.2712,-2.2712,-2.2544,-2.2228,-2.194,-2.1785,-2.1625,-2.1381,-2.1771,-2.2707,-2.2771,-2.2695,-2.293,-2.2586,-2.2276,-2.2292,-2.1541,-2.0802,-2.0633,-1.9664,-1.8417,-1.771,-1.7045,-1.6436,-1.5773,-1.5609,-1.5541,-1.5415,-1.5415,-1.5415,-1.5415,-1.5415,-1.5415,-1.5415,-1.5415,-1.5352,-1.5088,-1.48,-1.4394,-1.3912,-1.3682,-1.332,-1.2988,-1.2852,-1.2832,-1.2832,-1.2681,-1.2681,-1.2529,-1.2578,-1.2676,-1.2475,-1.273,-1.2886,-2.9946,-2.9748,-2.9288,-2.9162,-2.9183,-2.8148,-2.7323,-2.6829,-2.6507,-2.5916,-2.5224,-2.512,-2.513,-2.5064,-2.4839,-2.4682,-2.4682,-2.4682,-2.4682,-2.4682,-2.4682,-2.4682,-2.4682,-2.4682,-2.4682,-2.4682,-2.4686,-2.4663,-2.4638,-2.4638,-2.4631,-2.4606,-2.458,-2.4554,-2.4538,-2.4532,-2.4524,-2.4498,-2.4507,-2.4507,-2.45,-2.4509,-2.4509,-2.4509,-2.4509,-2.4509,-2.4509,-2.4509,-2.4473,-2.443,-2.4284,-2.403,-2.3671,-2.3221,-2.2885,-2.2738,-2.2712,-2.2712,-2.2712,-2.2712,-2.2712,-2.2712,-2.2685,-2.2526,-2.2124,-2.1899,-2.1617,-2.1238,-2.1229,-2.1624,-2.233,-2.2755,-2.3011,-2.3077,-2.2775,-2.255,-2.2761,-2.1759,-2.0979,-2.0484,-1.9676,-1.8685,-1.7941,-1.7385,-1.6719,-1.6009,-1.5783,-1.5541,-1.542,-1.5415,-1.5415,-1.5415,-1.5415,-1.5415,-1.5352,-1.5273,-1.5156,-1.4902,-1.4556,-1.4082,-1.3646,-1.344,-1.3161,-1.2846,-1.2735,-1.273,-1.2676,-1.2475,-1.2328,-1.2126,-1.2278,-1.2426,-1.2529,-1.273,-1.2881,-3.015,-3.0099,-3.008,-2.9538,-2.8886,-2.869,-2.7669,-2.6561,-2.694,-2.6761,-2.6047,-2.5972,-2.5859,-2.5775,-2.5045,-2.4682,-2.4682,-2.4682,-2.4682,-2.4682,-2.4682,-2.4682,-2.4682,-2.4682,-2.4682,-2.4682,-2.4682,-2.4682,-2.4682,-2.4682,-2.4686,-2.4698,-2.4682,-2.4641,-2.4599,-2.4589,-2.4564,-2.453,-2.4521,-2.4506,-2.45,-2.45,-2.45,-2.45,-2.45,-2.4509,-2.4509,-2.4509,-2.4509,-2.4456,-2.421,-2.372,-2.3253,-2.2917,-2.2721,-2.2703,-2.2712,-2.2712,-2.2712,-2.2712,-2.2712,-2.2712,-2.2712,-2.2445,-2.1998,-2.1819,-2.1573,-2.1239,-2.1486,-2.1924,-2.2079,-2.2548,-2.3147,-2.3712,-2.2832,-2.2403,-2.2548,-2.2009,-2.0937,-2.0003,-1.95,-1.9174,-1.8423,-1.7831,-1.7168,-1.643,-1.5926,-1.5536,-1.5415,-1.5415,-1.5415,-1.5415,-1.5415,-1.5415,-1.5264,-1.5088,-1.4912,-1.4702,-1.4262,-1.3863,-1.3255,-1.2958,-1.2743,-1.248,-1.2436,-1.2431,-1.217,-1.2022,-1.1972,-1.1873,-1.2071,-1.2368,-1.2559,-1.271,-1.2963,-3.0314,-3.0186,-3.0228,-3.0012,-2.9654,-2.962,-2.8907,-2.7858,-2.8077,-2.7648,-2.6846,-2.6244,-2.6,-2.5812,-2.5092,-2.4682,-2.4682,-2.4682,-2.4682,-2.4682,-2.4682,-2.4682,-2.4682,-2.4682,-2.4682,-2.4682,-2.4682,-2.4682,-2.4682,-2.4682,-2.4682,-2.4686,-2.4689,-2.4682,-2.4666,-2.4615,-2.4589,-2.4564,-2.4582,-2.4582,-2.4566,-2.4523,-2.4497,-2.4506,-2.4507,-2.4509,-2.4509,-2.4509,-2.4509,-2.4509,-2.421,-2.3795,-2.3268,-2.3052,-2.2893,-2.2738,-2.2712,-2.2712,-2.2712,-2.2712,-2.2712,-2.2712,-2.2712,-2.2482,-2.2071,-2.1874,-2.1798,-2.1697,-2.1871,-2.2185,-2.2999,-2.3002,-2.3079,-2.3238,-2.2854,-2.2627,-2.268,-2.2009,-2.093,-1.9856,-1.961,-1.9245,-1.8715,-1.8273,-1.7722,-1.6775,-1.6327,-1.6056,-1.5589,-1.5473,-1.5415,-1.5415,-1.5415,-1.5434,-1.5258,-1.4983,-1.4689,-1.4444,-1.4033,-1.3531,-1.2989,-1.2705,-1.2483,-1.2328,-1.2278,-1.2126,-1.1819,-1.1665,-1.166,-1.1814,-1.2116,-1.2353,-1.2535,-1.2788,-1.3045,-3.0482,-3.0358,-3.0338,-3.0266,-3.0142,-3.0109,-2.9547,-2.8777,-2.8943,-2.857,-2.7676,-2.6848,-2.6458,-2.6197,-2.5233,-2.4701,-2.4682,-2.4682,-2.4682,-2.4682,-2.4682,-2.4682,-2.4682,-2.4682,-2.4682,-2.4682,-2.4682,-2.4682,-2.4682,-2.4682,-2.4682,-2.4682,-2.4686,-2.4679,-2.4689,-2.4663,-2.4638,-2.4631,-2.4631,-2.4615,-2.458,-2.4564,-2.4538,-2.4504,-2.4506,-2.4507,-2.45,-2.4509,-2.4446,-2.433,-2.4096,-2.3732,-2.3385,-2.3292,-2.3116,-2.2917,-2.2833,-2.2799,-2.2738,-2.2712,-2.2712,-2.2712,-2.2712,-2.2544,-2.2211,-2.201,-2.2054,-2.2159,-2.2435,-2.2857,-2.3595,-2.3588,-2.3348,-2.3288,-2.3061,-2.273,-2.2395,-2.1806,-2.0924,-1.9997,-1.9668,-1.935,-1.9081,-1.8649,-1.8321,-1.7446,-1.6949,-1.6565,-1.5984,-1.5758,-1.5652,-1.5599,-1.5604,-1.5501,-1.5323,-1.4911,-1.4493,-1.4111,-1.3782,-1.321,-1.2665,-1.2678,-1.2578,-1.2475,-1.2426,-1.222,-1.1963,-1.1746,-1.1642,-1.19,-1.2255,-1.2491,-1.2725,-1.2967,-1.3175,-3.0661,-3.0595,-3.0472,-3.0335,-3.0215,-3.0147,-2.9659,-2.9036,-2.9535,-2.9399,-2.8596,-2.7751,-2.726,-2.6853,-2.5568,-2.4867,-2.4717,-2.4682,-2.4682,-2.4682,-2.4682,-2.4682,-2.4682,-2.4682,-2.4682,-2.4682,-2.4682,-2.4682,-2.4682,-2.4682,-2.4682,-2.4682,-2.4682,-2.4682,-2.4692,-2.4682,-2.4676,-2.4689,-2.4682,-2.4666,-2.4615,-2.4615,-2.4589,-2.4538,-2.453,-2.4523,-2.4507,-2.4456,-2.4339,-2.4116,-2.3921,-2.3765,-2.3628,-2.3553,-2.3401,-2.3126,-2.3124,-2.2952,-2.2782,-2.272,-2.2712,-2.2712,-2.2685,-2.2588,-2.2328,-2.2217,-2.2216,-2.2394,-2.2918,-2.3442,-2.3752,-2.3881,-2.3865,-2.3749,-2.3083,-2.2391,-2.1588,-2.1363,-2.0777,-1.9997,-1.9664,-1.9558,-1.9454,-1.8969,-1.8638,-1.825,-1.7534,-1.7101,-1.677,-1.6441,-1.6072,-1.5936,-1.5886,-1.5467,-1.5196,-1.4513,-1.4071,-1.3875,-1.3552,-1.3098,-1.2629,-1.267,-1.2515,-1.2412,-1.2515,-1.2309,-1.2098,-1.1837,-1.1927,-1.2276,-1.2526,-1.272,-1.2967,-1.3213,-1.3314,-3.0671,-3.0595,-3.0558,-3.045,-3.0282,-3.0244,-3.0056,-2.9758,-2.9939,-2.983,-2.938,-2.8643,-2.7865,-2.7182,-2.6148,-2.5327,-2.4876,-2.4707,-2.4682,-2.4682,-2.4682,-2.4682,-2.4682,-2.4682,-2.4682,-2.4682,-2.4682,-2.4682,-2.4682,-2.4682,-2.4682,-2.4682,-2.4682,-2.4682,-2.4682,-2.4682,-2.4682,-2.4692,-2.4692,-2.4686,-2.4676,-2.4673,-2.4666,-2.4641,-2.4599,-2.4556,-2.4497,-2.4302,-2.4192,-2.4116,-2.4154,-2.3969,-2.3683,-2.3701,-2.3619,-2.3378,-2.3188,-2.3077,-2.2995,-2.2816,-2.2712,-2.2712,-2.2712,-2.2685,-2.2588,-2.2328,-2.2379,-2.2666,-2.3126,-2.3415,-2.3545,-2.3767,-2.3518,-2.2663,-2.2323,-2.1915,-2.1384,-2.0911,-2.0347,-1.9722,-1.9617,-1.9536,-1.946,-1.9303,-1.9028,-1.8632,-1.825,-1.7875,-1.7484,-1.7014,-1.6608,-1.6223,-1.6028,-1.5487,-1.4939,-1.4178,-1.3738,-1.3611,-1.3306,-1.3027,-1.2763,-1.27,-1.2358,-1.1985,-1.2403,-1.2398,-1.2143,-1.1882,-1.2223,-1.2711,-1.2759,-1.2962,-1.3266,-1.3515,-1.3515,-3.0676,-3.0647,-3.0613,-3.053,-3.041,-3.034,-3.0254,-3.0189,-3.0142,-3.0093,-2.9817,-2.9058,-2.8376,-2.7796,-2.6594,-2.58,-2.5305,-2.4882,-2.4682,-2.4682,-2.4682,-2.4682,-2.4682,-2.4682,-2.4682,-2.4682,-2.4682,-2.4682,-2.4682,-2.4682,-2.4682,-2.4682,-2.4682,-2.4682,-2.4682,-2.4682,-2.4682,-2.4682,-2.4682,-2.4682,-2.4682,-2.4686,-2.4663,-2.4657,-2.4624,-2.4582,-2.447,-2.4348,-2.4266,-2.4275,-2.4238,-2.4125,-2.397,-2.3959,-2.389,-2.361,-2.3359,-2.3206,-2.3061,-2.2859,-2.2712,-2.2712,-2.2712,-2.2712,-2.265,-2.24,-2.237,-2.2768,-2.2899,-2.2944,-2.2971,-2.2985,-2.2502,-2.1781,-2.1351,-2.109,-2.0858,-2.0347,-1.998,-1.9645,-1.9464,-1.9438,-1.9515,-1.9546,-1.9377,-1.9115,-1.8786,-1.8465,-1.8124,-1.7596,-1.7,-1.6509,-1.5878,-1.5262,-1.4702,-1.3977,-1.3524,-1.3381,-1.3278,-1.2988,-1.2925,-1.2827,-1.2657,-1.2433,-1.254,-1.254,-1.2433,-1.2472,-1.2817,-1.316,-1.3107,-1.3208,-1.3462,-1.3615,-1.3615,-3.07,-3.0666,-3.0631,-3.0605,-3.054,-3.0378,-3.0309,-3.0304,-3.026,-3.018,-2.9985,-2.9308,-2.8903,-2.8643,-2.728,-2.634,-2.6046,-2.532,-2.4873,-2.4754,-2.4723,-2.4713,-2.4682,-2.4682,-2.4682,-2.4682,-2.4682,-2.4682,-2.4682,-2.4682,-2.4682,-2.4682,-2.4682,-2.4682,-2.4682,-2.4682,-2.4682,-2.4682,-2.4682,-2.4682,-2.4682,-2.4692,-2.467,-2.4631,-2.4589,-2.4566,-2.4524,-2.4473,-2.4482,-2.45,-2.4275,-2.4238,-2.4349,-2.4321,-2.4144,-2.3887,-2.3584,-2.3335,-2.3126,-2.2885,-2.2738,-2.2747,-2.2729,-2.2712,-2.2677,-2.2463,-2.2377,-2.2621,-2.2467,-2.2553,-2.2457,-2.2,-2.1513,-2.1072,-2.0491,-2.0234,-2.0098,-1.9803,-1.9555,-1.9533,-1.9172,-1.9233,-1.9459,-1.9641,-1.9534,-1.8895,-1.8702,-1.8479,-1.8168,-1.7664,-1.6976,-1.633,-1.5668,-1.4945,-1.4394,-1.3771,-1.3472,-1.3229,-1.3243,-1.3104,-1.3157,-1.3109,-1.32,-1.3142,-1.3035,-1.3079,-1.317,-1.3314,-1.3462,-1.3462,-1.3362,-1.3462,-1.3615,-1.3615,-1.3615,-3.0668,-3.0621,-3.0604,-3.0539,-3.0452,-3.0392,-3.0371,-3.037,-3.0378,-3.0306,-3.0246,-3.0028,-2.9551,-2.8905,-2.8222,-2.7509,-2.6309,-2.581,-2.5433,-2.4736,-2.4759,-2.4744,-2.4713,-2.4698,-2.4707,-2.4707,-2.4682,-2.4682,-2.4682,-2.4682,-2.4682,-2.4682,-2.4682,-2.4698,-2.4707,-2.4698,-2.4682,-2.4698,-2.4689,-2.4682,-2.4682,-2.4682,-2.4686,-2.4657,-2.4573,-2.4521,-2.4523,-2.4507,-2.4509,-2.4482,-2.4403,-2.4339,-2.4394,-2.4312,-2.4191,-2.3958,-2.3701,-2.345,-2.3247,-2.3011,-2.2868,-2.2833,-2.2825,-2.2859,-2.2842,-2.2624,-2.2422,-2.2408,-2.2501,-2.2473,-2.223,-2.1972,-2.1267,-2.0629,-2.0274,-1.997,-1.9626,-1.9189,-1.8981,-1.8899,-1.8635,-1.843,-1.8555,-1.8662,-1.8643,-1.852,-1.849,-1.838,-1.8044,-1.7613,-1.7002,-1.6277,-1.543,-1.4744,-1.4152,-1.3606,-1.3337,-1.3222,-1.3225,-1.319,-1.3248,-1.3339,-1.3329,-1.3425,-1.3478,-1.3568,-1.3563,-1.3563,-1.3563,-1.361,-1.3615,-1.3663,-1.3663,-1.3663,-1.3615,-3.0673,-3.0639,-3.0644,-3.0602,-3.0538,-3.0511,-3.0492,-3.0482,-3.0433,-3.0169,-2.9943,-3.009,-2.979,-2.8935,-2.8444,-2.7632,-2.6807,-2.5873,-2.5277,-2.4856,-2.4828,-2.4837,-2.479,-2.4794,-2.4774,-2.4713,-2.4682,-2.4682,-2.4682,-2.4698,-2.4682,-2.4682,-2.4698,-2.4704,-2.4738,-2.4723,-2.4713,-2.4719,-2.4704,-2.4682,-2.4682,-2.4682,-2.4676,-2.4647,-2.4564,-2.4504,-2.4506,-2.4507,-2.4509,-2.449,-2.4465,-2.443,-2.4376,-2.4284,-2.4143,-2.3987,-2.3633,-2.3431,-2.3247,-2.3061,-2.2876,-2.291,-2.2902,-2.2825,-2.2721,-2.2535,-2.2271,-2.2045,-2.1968,-2.1891,-2.1419,-2.1051,-2.0505,-2.0002,-1.9732,-1.9571,-1.9254,-1.8896,-1.8652,-1.8613,-1.84,-1.8265,-1.816,-1.8069,-1.8147,-1.8238,-1.8203,-1.8088,-1.7966,-1.7545,-1.6907,-1.6172,-1.5269,-1.4489,-1.3931,-1.3498,-1.3267,-1.3177,-1.3253,-1.3281,-1.3329,-1.342,-1.351,-1.3563,-1.3568,-1.3663,-1.3658,-1.3658,-1.371,-1.3763,-1.3815,-1.3768,-1.3716,-1.3721,-1.3668,-3.0698,-3.0697,-3.0694,-3.07,-3.0683,-3.0628,-3.0613,-3.0575,-3.0356,-2.9834,-2.9318,-2.9796,-2.9333,-2.8724,-2.8045,-2.7663,-2.6972,-2.5911,-2.5057,-2.4977,-2.4984,-2.4981,-2.4945,-2.4919,-2.4865,-2.4731,-2.4749,-2.4734,-2.4729,-2.4729,-2.4744,-2.4729,-2.4719,-2.477,-2.4794,-2.4774,-2.4764,-2.4808,-2.4755,-2.4734,-2.4713,-2.4713,-2.4701,-2.4631,-2.4564,-2.4513,-2.4506,-2.4507,-2.45,-2.4509,-2.4509,-2.4465,-2.4385,-2.4228,-2.4025,-2.3926,-2.3531,-2.3342,-2.3232,-2.3061,-2.2936,-2.2944,-2.2936,-2.2859,-2.2677,-2.2463,-2.2206,-2.1899,-2.1694,-2.1255,-2.0402,-2.0323,-1.9946,-1.9443,-1.9235,-1.9139,-1.9108,-1.8836,-1.8724,-1.8611,-1.8159,-1.7835,-1.7804,-1.7749,-1.788,-1.7919,-1.7866,-1.7787,-1.7635,-1.73,-1.659,-1.5969,-1.5045,-1.4359,-1.3808,-1.3659,-1.3359,-1.3392,-1.3425,-1.3563,-1.361,-1.3752,-1.3847,-1.361,-1.3615,-1.3663,-1.371,-1.3663,-1.3763,-1.3915,-1.3915,-1.3815,-1.3815,-1.3821,-1.3768,-3.0697,-3.0703,-3.0701,-3.07,-3.07,-3.0693,-3.0686,-3.054,-2.9962,-2.9499,-2.927,-2.8759,-2.8516,-2.8086,-2.8058,-2.7499,-2.6579,-2.5656,-2.5223,-2.516,-2.5171,-2.5191,-2.5124,-2.5037,-2.4968,-2.4943,-2.4906,-2.4851,-2.4808,-2.4818,-2.4823,-2.4799,-2.4828,-2.4874,-2.4874,-2.4865,-2.4861,-2.4884,-2.4847,-2.4828,-2.4794,-2.4774,-2.4763,-2.4689,-2.4622,-2.4547,-2.4504,-2.4513,-2.4506,-2.45,-2.4509,-2.4473,-2.4411,-2.422,-2.3969,-2.3728,-2.3544,-2.3403,-2.3247,-2.3126,-2.3052,-2.3061,-2.3061,-2.3011,-2.2876,-2.2686,-2.2373,-2.2056,-2.173,-2.1317,-2.0786,-2.0496,-2.0266,-1.9904,-1.9479,-1.9332,-1.9384,-1.9205,-1.8865,-1.8721,-1.8031,-1.7434,-1.753,-1.7516,-1.7371,-1.7327,-1.7218,-1.7142,-1.7023,-1.6579,-1.5993,-1.5394,-1.4775,-1.4213,-1.3689,-1.3694,-1.3615,-1.371,-1.38,-1.403,-1.4129,-1.4233,-1.4192,-1.4124,-1.3842,-1.371,-1.371,-1.3716,-1.3763,-1.391,-1.391,-1.3858,-1.3863,-1.391,-1.3921,-3.0764,-3.0735,-3.0713,-3.0698,-3.0708,-3.0697,-3.07,-3.0651,-3.0253,-2.9521,-2.8907,-2.864,-2.8126,-2.7505,-2.7275,-2.6756,-2.6014,-2.5619,-2.536,-2.5313,-2.5341,-2.5322,-2.5262,-2.5179,-2.5143,-2.5108,-2.5079,-2.4983,-2.4879,-2.4874,-2.4888,-2.487,-2.4888,-2.4925,-2.4961,-2.4934,-2.4951,-2.4961,-2.4947,-2.4888,-2.4865,-2.4823,-2.4798,-2.4783,-2.4695,-2.4606,-2.4573,-2.4547,-2.4556,-2.4558,-2.4568,-2.4472,-2.4357,-2.4238,-2.4058,-2.3846,-2.3719,-2.3611,-2.3463,-2.3371,-2.3319,-2.3286,-2.3175,-2.3028,-2.291,-2.2756,-2.2553,-2.2198,-2.199,-2.1615,-2.0999,-2.0747,-2.0379,-2.0007,-1.9566,-1.945,-1.9428,-1.9347,-1.9146,-1.8898,-1.8453,-1.7977,-1.7535,-1.7358,-1.6986,-1.6778,-1.665,-1.6571,-1.6528,-1.625,-1.5838,-1.5534,-1.5102,-1.464,-1.4212,-1.4165,-1.4113,-1.4165,-1.4305,-1.449,-1.4669,-1.4817,-1.4858,-1.4801,-1.4433,-1.403,-1.3863,-1.3915,-1.391,-1.3952,-1.3994,-1.4041,-1.3999,-1.3999,-1.401,-3.0794,-3.0794,-3.0735,-3.0709,-3.0697,-3.0708,-3.0704,-3.0665,-3.0464,-2.9618,-2.8485,-2.8518,-2.7915,-2.6925,-2.6435,-2.6049,-2.5448,-2.5437,-2.5456,-2.5448,-2.5422,-2.5388,-2.5341,-2.5301,-2.5269,-2.5206,-2.5214,-2.5125,-2.4993,-2.4974,-2.4951,-2.4961,-2.4947,-2.5006,-2.5082,-2.5057,-2.5066,-2.5069,-2.5069,-2.5006,-2.4951,-2.4879,-2.4842,-2.4898,-2.4798,-2.4711,-2.4663,-2.4647,-2.4622,-2.4599,-2.4582,-2.4497,-2.433,-2.4293,-2.4257,-2.4164,-2.3969,-2.3846,-2.3732,-2.3567,-2.3458,-2.3458,-2.3223,-2.3036,-2.2876,-2.2738,-2.2536,-2.2209,-2.2039,-2.171,-2.1095,-2.0772,-2.0405,-2.0007,-1.9654,-1.9428,-1.942,-1.942,-1.9391,-1.9146,-1.8874,-1.8546,-1.8108,-1.7516,-1.7192,-1.7067,-1.6899,-1.6742,-1.6663,-1.6472,-1.6201,-1.5982,-1.5623,-1.5175,-1.4846,-1.4801,-1.4801,-1.4801,-1.4892,-1.5073,-1.5299,-1.5478,-1.5421,-1.5377,-1.4983,-1.4582,-1.4373,-1.4067,-1.4015,-1.4051,-1.4134,-1.4181,-1.4134,-1.4093,-1.4145,-3.0791,-3.0798,-3.0789,-3.0745,-3.0709,-3.0703,-3.0707,-3.0613,-3.0001,-2.9519,-2.91,-2.789,-2.722,-2.6683,-2.6016,-2.5712,-2.5596,-2.5557,-2.5567,-2.5551,-2.5505,-2.5476,-2.5437,-2.5332,-2.5322,-2.5282,-2.5282,-2.5214,-2.5134,-2.5115,-2.5113,-2.5088,-2.5125,-2.518,-2.5193,-2.5208,-2.5261,-2.5271,-2.5312,-2.5283,-2.5155,-2.499,-2.4934,-2.4902,-2.4874,-2.4832,-2.4763,-2.4757,-2.4726,-2.4638,-2.4596,-2.458,-2.4556,-2.4566,-2.4547,-2.4382,-2.4126,-2.3804,-2.3807,-2.3655,-2.3517,-2.3472,-2.3271,-2.3086,-2.2944,-2.2712,-2.2456,-2.2144,-2.2056,-2.1705,-2.1142,-2.0755,-2.0402,-2.0108,-1.9762,-1.9603,-1.9531,-1.956,-1.9531,-1.9494,-1.925,-1.9056,-1.8777,-1.8075,-1.7441,-1.7317,-1.715,-1.6996,-1.6791,-1.6607,-1.6324,-1.6101,-1.6113,-1.5706,-1.5611,-1.5522,-1.5522,-1.5478,-1.5611,-1.57,-1.592,-1.6089,-1.6039,-1.5908,-1.5517,-1.5209,-1.4943,-1.4634,-1.4239,-1.415,-1.4326,-1.4321,-1.4228,-1.4228,-1.4414,-3.0792,-3.0791,-3.079,-3.0788,-3.0769,-3.0755,-3.0745,-3.0686,-3.0374,-2.9916,-2.9343,-2.8222,-2.714,-2.6287,-2.5708,-2.5613,-2.5604,-2.5609,-2.5605,-2.5605,-2.5565,-2.5543,-2.5489,-2.5442,-2.5405,-2.5359,-2.5359,-2.5341,-2.5273,-2.525,-2.5239,-2.5262,-2.525,-2.5281,-2.5292,-2.5351,-2.5341,-2.5341,-2.5361,-2.5332,-2.5262,-2.513,-2.5041,-2.5053,-2.4968,-2.4907,-2.4875,-2.487,-2.4847,-2.4779,-2.4779,-2.4753,-2.4726,-2.4704,-2.467,-2.4564,-2.4339,-2.4181,-2.4134,-2.3876,-2.3698,-2.3491,-2.3301,-2.3095,-2.3019,-2.2901,-2.2669,-2.2362,-2.2343,-2.1986,-2.1471,-2.1182,-2.0836,-2.047,-2.0065,-1.9833,-1.9733,-1.9705,-1.9669,-1.9669,-1.9669,-1.9479,-1.928,-1.8777,-1.814,-1.7854,-1.7578,-1.7269,-1.7038,-1.684,-1.6503,-1.612,-1.6232,-1.6293,-1.6331,-1.6331,-1.6331,-1.6324,-1.6367,-1.6497,-1.6582,-1.6667,-1.6612,-1.657,-1.6312,-1.5958,-1.5594,-1.4977,-1.4449,-1.446,-1.4518,-1.464,-1.4801,-1.4977,-1.5152,-3.0486,-3.0523,-3.0723,-3.0694,-3.0515,-3.069,-3.0667,-3.0477,-3.0682,-3.0414,-2.9668,-2.8642,-2.7205,-2.5906,-2.5624,-2.5605,-2.5605,-2.5605,-2.5609,-2.5607,-2.5589,-2.5547,-2.5506,-2.5479,-2.5447,-2.5401,-2.5425,-2.5412,-2.5392,-2.5377,-2.5368,-2.5395,-2.5332,-2.5351,-2.5397,-2.5423,-2.5432,-2.5423,-2.538,-2.5351,-2.5332,-2.5216,-2.5172,-2.5141,-2.5084,-2.4987,-2.4977,-2.497,-2.4966,-2.4898,-2.4884,-2.4851,-2.4837,-2.4822,-2.4774,-2.4689,-2.4552,-2.4495,-2.4347,-2.4107,-2.3849,-2.3606,-2.3399,-2.3241,-2.3217,-2.3193,-2.3086,-2.2712,-2.2632,-2.2362,-2.1911,-2.1546,-2.1182,-2.0853,-2.0556,-2.0258,-1.9987,-1.996,-1.9869,-1.9812,-1.9856,-1.9891,-1.9661,-1.9354,-1.8952,-1.8511,-1.8087,-1.7666,-1.7434,-1.724,-1.6964,-1.6659,-1.6678,-1.6795,-1.6729,-1.682,-1.6911,-1.6996,-1.7073,-1.7109,-1.706,-1.7144,-1.7144,-1.706,-1.697,-1.6618,-1.6126,-1.5416,-1.4749,-1.5022,-1.5299,-1.5389,-1.5555,-1.5726,-1.5896,-2.9624,-2.9751,-3.0474,-3.0303,-2.9686,-3.0466,-3.0306,-2.9805,-3.0442,-3.0651,-3.025,-2.8977,-2.7366,-2.6042,-2.5732,-2.5697,-2.5611,-2.5607,-2.5615,-2.5584,-2.5542,-2.5547,-2.5517,-2.5477,-2.5441,-2.5434,-2.5488,-2.5508,-2.5483,-2.5473,-2.5439,-2.5414,-2.5405,-2.5396,-2.543,-2.5485,-2.549,-2.5476,-2.5421,-2.5389,-2.5351,-2.5262,-2.5231,-2.5261,-2.5236,-2.5191,-2.5185,-2.5125,-2.5054,-2.4955,-2.4951,-2.4934,-2.4926,-2.4926,-2.4879,-2.4818,-2.4775,-2.4691,-2.4547,-2.4192,-2.3878,-2.3741,-2.3585,-2.343,-2.3435,-2.3453,-2.3327,-2.306,-2.285,-2.2473,-2.2014,-2.1625,-2.1424,-2.1103,-2.0837,-2.0607,-2.0345,-2.025,-2.0162,-2.0018,-2.0033,-2.0068,-2.0061,-1.9754,-1.942,-1.8975,-1.8542,-1.812,-1.8133,-1.7974,-1.772,-1.745,-1.7333,-1.7236,-1.6983,-1.7031,-1.715,-1.7234,-1.731,-1.7352,-1.7386,-1.7441,-1.7454,-1.7427,-1.729,-1.6999,-1.6831,-1.6483,-1.6207,-1.6058,-1.6071,-1.6195,-1.6324,-1.6495,-1.6629,-2.9818,-3.0277,-2.9589,-2.9383,-2.9535,-2.934,-2.9379,-2.9603,-2.9929,-3.004,-2.9959,-2.9217,-2.8026,-2.6755,-2.6352,-2.6092,-2.5736,-2.5662,-2.5655,-2.5648,-2.5636,-2.5629,-2.5597,-2.5586,-2.5582,-2.5579,-2.5607,-2.5603,-2.5571,-2.5556,-2.5551,-2.5531,-2.5481,-2.5495,-2.5522,-2.5547,-2.5545,-2.5529,-2.5499,-2.5459,-2.5427,-2.5365,-2.533,-2.5349,-2.5341,-2.5322,-2.5312,-2.5251,-2.5187,-2.5141,-2.5103,-2.5054,-2.5015,-2.5015,-2.4983,-2.4915,-2.4865,-2.4795,-2.4702,-2.4369,-2.4099,-2.384,-2.3655,-2.3535,-2.3607,-2.3558,-2.3304,-2.3052,-2.2902,-2.2554,-2.2059,-2.192,-2.1797,-2.1415,-2.1118,-2.0926,-2.0731,-2.0607,-2.0395,-2.022,-2.0193,-2.02,-2.0193,-2.015,-1.9818,-1.9442,-1.9006,-1.8696,-1.8664,-1.8563,-1.827,-1.7907,-1.7706,-1.7632,-1.7421,-1.7386,-1.7352,-1.7468,-1.7591,-1.7659,-1.774,-1.7625,-1.7631,-1.7639,-1.7801,-1.782,-1.7814,-1.778,-1.749,-1.6983,-1.6864,-1.6947,-1.712,-1.7258,-1.7429,-2.924,-2.9791,-2.8219,-2.8329,-2.9396,-2.894,-2.8859,-2.925,-2.9796,-2.9586,-2.9139,-2.885,-2.7969,-2.6861,-2.6484,-2.6247,-2.5781,-2.5696,-2.5691,-2.5693,-2.5685,-2.5697,-2.5697,-2.5685,-2.5666,-2.5696,-2.5693,-2.5668,-2.5648,-2.5636,-2.5618,-2.5586,-2.5546,-2.5556,-2.5581,-2.5604,-2.5599,-2.5566,-2.5537,-2.55,-2.5473,-2.5444,-2.5435,-2.5425,-2.5395,-2.5374,-2.5367,-2.5322,-2.5262,-2.5228,-2.5203,-2.5177,-2.5141,-2.5098,-2.5066,-2.4974,-2.4902,-2.4856,-2.4795,-2.4554,-2.4317,-2.4099,-2.3855,-2.378,-2.375,-2.3629,-2.3342,-2.3126,-2.2961,-2.2677,-2.2206,-2.2183,-2.2115,-2.1781,-2.1675,-2.1477,-2.1126,-2.0934,-2.0656,-2.0418,-2.0418,-2.046,-2.0553,-2.0545,-2.0342,-2.0015,-1.9724,-1.9303,-1.9013,-1.89,-1.8664,-1.8309,-1.7954,-1.7881,-1.7854,-1.7848,-1.7841,-1.8028,-1.8101,-1.8166,-1.8173,-1.8075,-1.8323,-1.8715,-1.8896,-1.8819,-1.8781,-1.8722,-1.8221,-1.7646,-1.7686,-1.78,-1.786,-1.8033,-1.8245,-2.7535,-2.8001,-2.653,-2.7251,-2.9296,-2.9492,-2.8988,-2.8559,-2.9796,-2.9747,-2.8542,-2.7773,-2.6896,-2.613,-2.6142,-2.5969,-2.5761,-2.5695,-2.5697,-2.5697,-2.5697,-2.5697,-2.5697,-2.5697,-2.5697,-2.5697,-2.5695,-2.5698,-2.5697,-2.5681,-2.5655,-2.5636,-2.5605,-2.5598,-2.5607,-2.5604,-2.5566,-2.5522,-2.5526,-2.5506,-2.5485,-2.5488,-2.5504,-2.55,-2.5463,-2.5441,-2.5427,-2.5382,-2.5312,-2.5262,-2.5248,-2.5214,-2.5193,-2.5191,-2.517,-2.5158,-2.5156,-2.5156,-2.5146,-2.4691,-2.4482,-2.4372,-2.4145,-2.4075,-2.3996,-2.378,-2.3495,-2.3324,-2.3075,-2.2833,-2.2597,-2.247,-2.236,-2.2268,-2.2186,-2.199,-2.1663,-2.1366,-2.1109,-2.0967,-2.0845,-2.0811,-2.0909,-2.0942,-2.0811,-2.0579,-2.035,-2.0023,-1.9601,-1.9259,-1.9059,-1.8878,-1.8514,-1.8531,-1.8538,-1.832,-1.8295,-1.8518,-1.8696,-1.888,-1.9008,-1.9119,-1.9432,-1.9843,-1.9897,-1.977,-1.971,-1.9613,-1.9302,-1.9038,-1.8698,-1.8688,-1.871,-1.8824,-1.9043,-2.7361,-2.8056,-2.6399,-2.6829,-2.8351,-2.7451,-2.7157,-2.7592,-2.8571,-2.9123,-2.9006,-2.825,-2.7371,-2.6778,-2.6408,-2.6183,-2.5746,-2.5697,-2.5697,-2.5697,-2.5697,-2.5697,-2.5697,-2.5697,-2.5697,-2.5697,-2.5697,-2.5697,-2.5703,-2.5696,-2.5698,-2.5679,-2.5661,-2.5659,-2.5671,-2.5671,-2.5655,-2.5645,-2.5632,-2.5619,-2.5609,-2.5611,-2.5611,-2.5613,-2.556,-2.5522,-2.5504,-2.5453,-2.5389,-2.5313,-2.5302,-2.5253,-2.5232,-2.524,-2.5209,-2.5208,-2.5206,-2.5212,-2.5184,-2.4958,-2.4814,-2.4645,-2.4442,-2.4312,-2.4266,-2.4122,-2.3822,-2.3558,-2.335,-2.3082,-2.2867,-2.2893,-2.2807,-2.2773,-2.2669,-2.2484,-2.2197,-2.1967,-2.1749,-2.167,-2.1576,-2.1337,-2.1331,-2.1432,-2.1331,-2.1329,-2.118,-2.078,-2.0356,-1.9869,-1.9527,-1.9448,-1.9259,-1.9302,-1.928,-1.9257,-1.9385,-1.9659,-1.9775,-1.9813,-1.9959,-2.0177,-2.0393,-2.0759,-2.0735,-2.0711,-2.0751,-2.0767,-2.0791,-2.0564,-2.0164,-1.9831,-1.9811,-1.9861,-1.9954,-2.687,-2.7561,-2.6279,-2.6474,-2.7521,-2.6913,-2.7225,-2.8096,-2.8072,-2.8332,-2.873,-2.7926,-2.7054,-2.6615,-2.649,-2.6373,-2.5707,-2.5697,-2.5699,-2.5699,-2.5699,-2.5699,-2.5701,-2.5699,-2.5699,-2.5699,-2.5697,-2.5697,-2.5699,-2.5693,-2.5697,-2.5694,-2.5698,-2.5684,-2.5697,-2.5697,-2.5697,-2.5685,-2.5673,-2.5683,-2.5681,-2.5691,-2.5691,-2.5691,-2.5666,-2.5623,-2.5593,-2.5541,-2.5486,-2.543,-2.5364,-2.5311,-2.5293,-2.5274,-2.5255,-2.5274,-2.5274,-2.5262,-2.5221,-2.5241,-2.5068,-2.4906,-2.4623,-2.4467,-2.4403,-2.4265,-2.3994,-2.3762,-2.3622,-2.3414,-2.32,-2.3248,-2.3262,-2.3198,-2.3126,-2.2937,-2.2804,-2.2574,-2.2293,-2.2228,-2.2071,-2.1894,-2.1799,-2.1853,-2.1911,-2.1956,-2.2,-2.1562,-2.1109,-2.0588,-2.0234,-2.0182,-2.0122,-2.0177,-2.0313,-2.0454,-2.0599,-2.0827,-2.0914,-2.0954,-2.1171,-2.1425,-2.1529,-2.1645,-2.191,-2.2048,-2.1978,-2.1956,-2.1874,-2.1777,-2.1611,-2.1299,-2.1022,-2.0871,-2.0806,-2.5984,-2.6685,-2.6027,-2.6135,-2.6923,-2.7603,-2.892,-3.0221,-2.7988,-2.7461,-2.8154,-2.6555,-2.5947,-2.5816,-2.5748,-2.5748,-2.5717,-2.5697,-2.5701,-2.5693,-2.5693,-2.5693,-2.5693,-2.5693,-2.5701,-2.5699,-2.5699,-2.5701,-2.5694,-2.5694,-2.5697,-2.5699,-2.5701,-2.57,-2.5699,-2.5697,-2.5694,-2.5693,-2.5693,-2.5701,-2.5699,-2.5693,-2.5693,-2.5694,-2.5684,-2.5666,-2.5639,-2.5605,-2.5537,-2.5473,-2.5418,-2.5374,-2.5353,-2.5354,-2.5379,-2.5387,-2.5397,-2.5365,-2.5322,-2.535,-2.5264,-2.5077,-2.4854,-2.4623,-2.4502,-2.4448,-2.4229,-2.4011,-2.3857,-2.3687,-2.355,-2.3593,-2.3636,-2.3593,-2.3559,-2.3463,-2.3406,-2.3174,-2.2853,-2.2651,-2.247,-2.2371,-2.2502,-2.2563,-2.26,-2.2728,-2.2727,-2.2427,-2.1953,-2.1406,-2.113,-2.1154,-2.1116,-2.1108,-2.1272,-2.161,-2.1779,-2.1973,-2.2185,-2.2298,-2.2501,-2.2558,-2.2587,-2.2772,-2.3221,-2.3316,-2.305,-2.2915,-2.2851,-2.276,-2.2633,-2.2338,-2.1936,-2.1611,-2.1469,-2.5582,-2.5813,-2.569,-2.577,-2.6087,-2.6926,-2.7638,-2.7837,-2.6617,-2.6571,-2.7304,-2.6191,-2.5712,-2.57,-2.57,-2.5697,-2.5694,-2.5699,-2.5701,-2.5694,-2.5688,-2.5694,-2.5693,-2.5694,-2.5693,-2.5693,-2.5693,-2.5696,-2.5698,-2.5699,-2.5701,-2.5702,-2.5683,-2.5683,-2.5693,-2.5693,-2.5691,-2.5688,-2.5689,-2.5697,-2.5696,-2.5698,-2.57,-2.5701,-2.5702,-2.5676,-2.5676,-2.5671,-2.5603,-2.5551,-2.5547,-2.5522,-2.5532,-2.5486,-2.5455,-2.5415,-2.5425,-2.5438,-2.5398,-2.5444,-2.5397,-2.5283,-2.5173,-2.5077,-2.4911,-2.4706,-2.4531,-2.4357,-2.4235,-2.4145,-2.4082,-2.41,-2.4154,-2.4153,-2.4109,-2.4054,-2.3979,-2.3814,-2.35,-2.3303,-2.3103,-2.3103,-2.3229,-2.3294,-2.3345,-2.3487,-2.3431,-2.3204,-2.2849,-2.2332,-2.2079,-2.2096,-2.2089,-2.2081,-2.2501,-2.2862,-2.2991,-2.3127,-2.3289,-2.3388,-2.3382,-2.3443,-2.3539,-2.3701,-2.3921,-2.3986,-2.3925,-2.3808,-2.3635,-2.3584,-2.348,-2.3156,-2.2844,-2.2522,-2.2313,-2.5301,-2.5371,-2.5466,-2.5558,-2.5703,-2.6159,-2.6412,-2.6403,-2.6237,-2.6529,-2.6866,-2.6047,-2.5681,-2.5693,-2.5693,-2.5684,-2.5644,-2.5654,-2.5654,-2.5652,-2.5654,-2.5674,-2.5683,-2.5699,-2.5697,-2.5697,-2.568,-2.5672,-2.5692,-2.5693,-2.5693,-2.5692,-2.5671,-2.566,-2.5659,-2.5649,-2.5641,-2.5654,-2.5674,-2.5692,-2.5701,-2.5702,-2.5693,-2.5693,-2.5693,-2.5701,-2.5698,-2.5697,-2.567,-2.5634,-2.5641,-2.5626,-2.5629,-2.5572,-2.5512,-2.549,-2.5537,-2.5524,-2.5483,-2.5492,-2.5447,-2.541,-2.5459,-2.539,-2.5264,-2.5094,-2.492,-2.4758,-2.4738,-2.4695,-2.4655,-2.4629,-2.4714,-2.478,-2.4719,-2.4655,-2.4554,-2.4424,-2.4243,-2.4035,-2.3933,-2.3886,-2.3925,-2.398,-2.4033,-2.4053,-2.4108,-2.4089,-2.3773,-2.3349,-2.3129,-2.3115,-2.3062,-2.3062,-2.3538,-2.3878,-2.3943,-2.4025,-2.4227,-2.4295,-2.4266,-2.4256,-2.4314,-2.436,-2.4424,-2.444,-2.4416,-2.4416,-2.432,-2.4259,-2.421,-2.4038,-2.3741,-2.3445,-2.3307,-2.5173,-2.5293,-2.5361,-2.5467,-2.5571,-2.563,-2.5632,-2.5683,-2.6348,-2.6809,-2.6649,-2.5981,-2.5639,-2.5676,-2.5677,-2.5655,-2.5624,-2.5615,-2.5619,-2.5606,-2.5622,-2.5633,-2.567,-2.5692,-2.5673,-2.5664,-2.5654,-2.5641,-2.5683,-2.5682,-2.5675,-2.5683,-2.564,-2.562,-2.5625,-2.562,-2.5627,-2.5657,-2.5681,-2.5693,-2.5693,-2.5693,-2.5693,-2.5693,-2.5693,-2.5693,-2.5693,-2.5693,-2.5693,-2.5701,-2.5681,-2.566,-2.5636,-2.5634,-2.5581,-2.5563,-2.5604,-2.559,-2.5551,-2.5548,-2.5576,-2.557,-2.56,-2.5566,-2.5469,-2.5305,-2.512,-2.5069,-2.5013,-2.4996,-2.4948,-2.4958,-2.5027,-2.5059,-2.5038,-2.4975,-2.4901,-2.473,-2.4521,-2.442,-2.4502,-2.4445,-2.4364,-2.4412,-2.4548,-2.4592,-2.462,-2.4704,-2.4546,-2.4176,-2.4088,-2.3998,-2.3961,-2.3958,-2.4206,-2.452,-2.4708,-2.487,-2.4958,-2.4956,-2.4771,-2.4875,-2.5067,-2.496,-2.481,-2.4815,-2.4805,-2.4801,-2.4798,-2.4765,-2.4731,-2.4826,-2.4624,-2.4247,-2.4126,-2.5115,-2.5154,-2.5274,-2.5375,-2.5439,-2.5441,-2.5521,-2.5617,-2.5747,-2.5901,-2.5887,-2.5734,-2.5609,-2.5639,-2.5632,-2.5619,-2.5593,-2.5584,-2.5606,-2.5593,-2.5593,-2.5593,-2.5627,-2.5642,-2.5634,-2.562,-2.5615,-2.5605,-2.5619,-2.5626,-2.5626,-2.5629,-2.5596,-2.5593,-2.5602,-2.5603,-2.5619,-2.5654,-2.5683,-2.5701,-2.5693,-2.5693,-2.5692,-2.5693,-2.5693,-2.5693,-2.5701,-2.5696,-2.5694,-2.5693,-2.5649,-2.563,-2.5605,-2.563,-2.5608,-2.5576,-2.5601,-2.5595,-2.5594,-2.5584,-2.5616,-2.5657,-2.5665,-2.5664,-2.5586,-2.5405,-2.5292,-2.5294,-2.5269,-2.5234,-2.5235,-2.5266,-2.5284,-2.5302,-2.5309,-2.5248,-2.5194,-2.4995,-2.4778,-2.4849,-2.4957,-2.4918,-2.484,-2.4887,-2.5043,-2.5101,-2.5111,-2.512,-2.5024,-2.4791,-2.4749,-2.4714,-2.4763,-2.4829,-2.4969,-2.5008,-2.51,-2.513,-2.5149,-2.5184,-2.5224,-2.5207,-2.52,-2.5207,-2.5151,-2.5098,-2.5071,-2.5136,-2.5132,-2.5071,-2.5049,-2.5034,-2.5093,-2.4832,-2.4773,-2.5044,-2.5075,-2.5166,-2.5273,-2.534,-2.5375,-2.5434,-2.5498,-2.5502,-2.5518,-2.5574,-2.5594,-2.56,-2.5604,-2.5599,-2.5571,-2.5552,-2.5552,-2.5551,-2.5546,-2.5557,-2.5551,-2.557,-2.5588,-2.5606,-2.5603,-2.5605,-2.5598,-2.5546,-2.559,-2.5603,-2.5595,-2.5576,-2.5579,-2.5597,-2.5606,-2.561,-2.5634,-2.5671,-2.5693,-2.5691,-2.5699,-2.5699,-2.5701,-2.5701,-2.5701,-2.5698,-2.5699,-2.5693,-2.5673,-2.5642,-2.5615,-2.5599,-2.5605,-2.5585,-2.5576,-2.558,-2.5578,-2.5574,-2.558,-2.5622,-2.5644,-2.5683,-2.5666,-2.5664,-2.551,-2.546,-2.5443,-2.5408,-2.5371,-2.5374,-2.54,-2.5401,-2.5414,-2.5408,-2.538,-2.5364,-2.5278,-2.5172,-2.5192,-2.526,-2.5259,-2.5191,-2.5161,-2.5298,-2.535,-2.5399,-2.5376,-2.5316,-2.5239,-2.5258,-2.5266,-2.523,-2.5276,-2.5319,-2.5323,-2.5366,-2.537,-2.5337,-2.5337,-2.5336,-2.5299,-2.529,-2.53,-2.529,-2.5242,-2.5246,-2.5252,-2.5244,-2.5156,-2.5165,-2.5185,-2.5234,-2.5263,-2.5118,-2.4964,-2.5,-2.506,-2.5163,-2.5273,-2.5331,-2.5377,-2.5393,-2.5439,-2.5461,-2.5485,-2.5557,-2.5595,-2.5597,-2.5594,-2.5547,-2.5512,-2.5528,-2.5517,-2.551,-2.5514,-2.5528,-2.5539,-2.5551,-2.5547,-2.5557,-2.5566,-2.5493,-2.5418,-2.5502,-2.5556,-2.5571,-2.5556,-2.5542,-2.5588,-2.5605,-2.5609,-2.5616,-2.5636,-2.5669,-2.5676,-2.5701,-2.5696,-2.5698,-2.5698,-2.5698,-2.5694,-2.5673,-2.5671,-2.5645,-2.5599,-2.5566,-2.5551,-2.5546,-2.5527,-2.5518,-2.5515,-2.5521,-2.5523,-2.5531,-2.5541,-2.5573,-2.5631,-2.5632,-2.5615,-2.5588,-2.5541,-2.5505,-2.5458,-2.5466,-2.5473,-2.548,-2.5481,-2.5484,-2.5485,-2.5483,-2.5487,-2.5498,-2.5498,-2.5478,-2.5495,-2.5507,-2.5474,-2.5447,-2.5475,-2.5531,-2.5554,-2.5547,-2.552,-2.5443,-2.541,-2.5412,-2.5391,-2.547,-2.5544,-2.5537,-2.551,-2.5522,-2.548,-2.5467,-2.5439,-2.5399,-2.5378,-2.5383,-2.5373,-2.527,-2.5227,-2.5206,-2.5201,-2.5172,-2.5206,-2.5214,-2.5216,-2.5231,-2.5226,-2.4846,-2.5,-2.4995,-2.5073,-2.5139,-2.5164,-2.5189,-2.5234,-2.5312,-2.5347,-2.5382,-2.5471,-2.5525,-2.5515,-2.5585,-2.5567,-2.5512,-2.5507,-2.5517,-2.5519,-2.5517,-2.5515,-2.5503,-2.5476,-2.5437,-2.5454,-2.5485,-2.5463,-2.5405,-2.5426,-2.5471,-2.5502,-2.5511,-2.5527,-2.5593,-2.5598,-2.5584,-2.5578,-2.557,-2.5592,-2.5588,-2.5619,-2.5691,-2.5701,-2.5695,-2.5666,-2.5629,-2.5561,-2.5536,-2.5533,-2.5528,-2.5476,-2.5452,-2.5435,-2.5439,-2.5416,-2.5414,-2.5456,-2.5456,-2.5454,-2.5459,-2.5424,-2.5449,-2.5406,-2.5403,-2.5411,-2.537,-2.5339,-2.5333,-2.5405,-2.5424,-2.5469,-2.5483,-2.5496,-2.5509,-2.549,-2.5484,-2.5541,-2.558,-2.5576,-2.5582,-2.5575,-2.5546,-2.5535,-2.5564,-2.5606,-2.5606,-2.5593,-2.5546,-2.5541,-2.5536,-2.5527,-2.5507,-2.5542,-2.5566,-2.5564,-2.5556,-2.5584,-2.5575,-2.5475,-2.5439,-2.548,-2.5453,-2.5332,-2.5279,-2.519,-2.5165,-2.5105,-2.5097,-2.5081,-2.5166,-2.5212,-2.5177,-2.5014,-2.4833]},{"header":{"parameterUnit":"m.s-1","parameterCategory":1,"la1":31.0,"la2":29.5877,"lo1":-88.7671,"lo2":-86.6584,"dy":0.0162,"dx":0.0185,"nx":115,"ny":88,"refTime":"2024-07-24T12:00:00:Z","depth":0,"parameterNumber":3,"parameterNumberName":"V-component_of_WINDS"},"data":[0.0,0.0,0.0,0.0,0.0,0.0,0.0,0.0,0.0,0.0,0.0,0.0,0.0,0.0,0.0,0.0,0.0,0.0,0.0,0.0,0.0,0.0,0.0,0.0,0.0,0.0,0.0,0.0,0.0,0.0,0.0,0.0,0.0,0.0,0.0,0.0,0.0,0.0,0.0,0.0,0.0,0.0,0.0,0.0,0.0,0.0,0.0,0.0,0.0,0.0,0.0,0.0,0.0,0.0,0.0,0.0,0.0,0.0,0.0,0.0,0.0,0.0,0.0,0.0,0.0,0.0,0.0,0.0,0.0,0.0,0.0,0.0,0.0,0.0,0.0,0.0,0.0,0.0,0.0,0.0,0.0,0.0,0.0,0.0,0.0,0.0,0.0,0.0,0.0,0.0,0.0,0.0,0.0,0.0,0.0,0.0,0.0,0.0,0.0,0.0,0.0,0.0,0.0,0.0,0.0,0.0,0.0,0.0,0.0,0.0,0.0,0.0,0.0,0.0,0.0,0.0,0.0,0.0,0.0,0.0,0.0,0.0,0.0,0.0,0.0,0.0,0.0,0.0,0.0,0.0,0.0,0.0,0.0,0.0,0.0,0.0,0.0,0.0,0.0,0.0,0.0,0.0,0.0,0.0,0.0,0.0,0.0,0.0,0.0,0.0,0.0,0.0,0.0,0.0,0.0,0.0,0.0,0.0,0.0,0.0,0.0,0.0,0.0,0.0,0.0,0.0,0.0,0.0,0.0,0.0,0.0,0.0,0.0,0.0,0.0,0.0,0.0,0.0,0.0,0.0,0.0,0.0,0.0,0.0,0.0,0.0,0.0,0.0,0.0,0.0,0.0,0.0,0.0,0.0,0.0,0.0,0.0,0.0,0.0,0.0,0.0,0.0,0.0,0.0,0.0,0.0,0.0,0.0,0.0,0.0,0.0,0.0,0.0,0.0,0.0,0.0,0.0,0.0,0.0,0.0,0.0,0.0,0.0,0.0,0.0,0.0,0.0,0.0,0.0,0.0,0.0,0.0,0.0,0.0,0.0,0.0,0.0,0.0,0.0,0.0,0.0,0.0,0.0,0.0,0.0,0.0,0.0,0.0,0.0,0.0,0.0,0.0,0.0,0.0,0.0,0.0,0.0,0.0,0.0,0.0,0.0,0.0,0.0,0.0,0.0,0.0,0.0,0.0,0.0,0.0,0.0,0.0,0.0,0.0,0.0,0.0,0.0,0.0,0.0,0.0,0.0,0.0,0.0,0.0,0.0,0.0,0.0,0.0,0.0,0.0,0.0,0.0,0.0,0.0,0.0,0.0,0.0,0.0,0.0,0.0,0.0,0.0,0.0,0.0,0.0,0.0,0.0,0.0,0.0,0.0,0.0,0.0,0.0,0.0,0.0,0.0,0.0,0.0,0.0,0.0,0.0,0.0,0.0,0.0,0.0,0.0,0.0,0.0,0.0,0.0,0.0,0.0,0.0,0.0,0.0,0.0,0.0,0.0,0.0,0.0,0.0,0.0,0.0,0.0,0.0,0.0,0.0,0.0,0.0,0.0,0.0,0.0,0.0,0.0,0.0,0.0,0.0,0.0,0.0,0.0,0.0,0.0,0.0,0.0,0.0,0.0,0.0,0.0,0.0,0.0,0.0,0.0,0.0,0.0,0.0,0.0,0.0,0.0,0.0,0.0,0.0,0.0,0.0,0.0,0.0,0.0,0.0,0.0,0.0,0.0,0.0,0.0,0.0,0.0,0.0,0.0,0.0,0.0,0.0,0.0,0.0,0.0,0.0,0.0,0.0,0.0,0.0,0.0,0.0,0.0,0.0,0.0,0.0,0.0,0.0,0.0,0.0,0.0,0.0,0.0,0.0,0.0,0.0,0.0,0.0,0.0,0.0,0.0,0.0,0.0,0.0,0.0,0.0,0.0,0.0,0.0,0.0,0.0,0.0,0.0,0.0,0.0,0.0,0.0,0.0,0.0,0.0,0.0,0.0,0.0,0.0,0.0,0.0,0.0,0.0,0.0,0.0,0.0,0.0,0.0,0.0,0.0,0.0,0.0,0.0,0.0,0.0,0.0,0.0,0.0,0.0,0.0,0.0,0.0,0.0,0.0,0.0,0.0,0.0,0.0,0.0,0.0,0.0,0.0,0.0,0.0,0.0,0.0,0.0,0.0,0.0,0.0,0.0,0.0,0.0,0.0,0.0,0.0,0.0,0.0,0.0,0.0,0.0,0.0,0.0,0.0,0.0,0.0,0.0,0.0,0.0,0.0,0.0,0.0,0.0,0.0,0.0,0.0,0.0,0.0,0.0,0.0,0.0,0.0,0.0,0.0,0.0,0.0,0.0,0.0,0.0,0.0,0.0,0.0,0.0,0.0,0.0,0.0,0.0,0.0,0.0,0.0,0.0,0.0,0.0,0.0,0.0,0.0,0.0,0.0,0.0,0.0,0.0,0.0,0.0,0.0,0.0,0.0,0.0,0.0,0.0,0.0,0.0,0.0,0.0,0.0,0.0,0.0,0.0,0.0,0.0,0.0,0.0,0.0,0.0,0.0,0.0,0.0,0.0,0.0,0.0,0.0,0.0,0.0,0.0,0.0,0.0,0.0,0.0,0.0,0.0,0.0,0.0,0.0,0.0,0.0,0.0,0.0,0.0,0.0,0.0,0.0,0.0,0.0,0.0,0.0,0.0,0.0,0.0,0.0,0.0,0.0,0.0,0.0,0.0,0.0,0.0,0.0,0.0,0.0,0.0,0.0,0.0,0.0,0.0,0.0,0.0,0.0,0.0,0.0,0.0,0.0,0.0,0.0,0.0,0.0,0.0,0.0,0.0,0.0,0.0,0.0,0.0,0.0,0.0,0.0,0.0,0.0,0.0,0.0,0.0,0.0,0.0,0.0,0.0,0.0,0.0,0.0,0.0,0.0,0.0,0.0,0.0,0.0,0.0,0.0,0.0,0.0,0.0,0.0,0.0,0.0,0.0,0.0,0.0,0.0,0.0,0.0,0.0,0.0,0.0,0.0,0.0,0.0,0.0,0.0,0.0,0.0,0.0,0.0,0.0,0.0,0.0,0.0,0.0,0.0,0.0,0.0,0.0,0.0,0.0,0.0,0.0,0.0,0.0,0.0,0.0,0.0,0.0,0.0,0.0,0.0,0.0,0.0,0.0,0.0,0.0,0.0,0.0,0.0,0.0,0.0,0.0,0.0,0.0,0.0,0.0,0.0,0.0,0.0,0.0,0.0,0.0,0.0,0.0,0.0,0.0,0.0,0.0,0.0,0.0,0.0,0.0,0.0,0.0,0.0,0.0,0.0,0.0,0.0,0.0,0.0,0.0,0.0,0.0,0.0,0.0,0.0,0.0,0.0,0.0,0.0,0.0,0.0,0.0,0.0,0.0,0.0,0.0,0.0,0.0,0.0,0.0,0.0,0.0,0.0,0.0,0.0,0.0,0.0,0.0,0.0,0.0,0.0,0.0,0.0,0.0,0.0,0.0,0.0,0.0,0.0,0.0,0.0,0.0,0.0,0.0,0.0,0.0,0.0,0.0,0.0,0.0,0.0,0.0,0.0,0.0,0.0,0.0,0.0,0.0,0.0,0.0,0.0,0.0,0.0,0.0,0.0,0.0,0.0,0.0,0.0,0.0,0.0,0.0,0.0,0.0,0.0,0.0,0.0,0.0,0.0,0.0,0.0,0.0,0.0,0.0,0.0,0.0,0.0,0.0,0.0,0.0,0.0,0.0,0.0,0.0,0.0,0.0,0.0,0.0,0.0,0.0,0.0,0.0,0.0,0.0,0.0,0.0,0.0,0.0,0.0,0.0,0.0,0.0,0.0,0.0,0.0,0.0,0.0,0.0,0.0,0.0,0.0,0.0,0.0,0.0,0.0,0.0,0.0,0.0,0.0,0.0,0.0,0.0,0.0,0.0,0.0,0.0,0.0,0.0,0.0,0.0,0.0,0.0,0.0,0.0,0.0,0.0,0.0,0.0,0.0,0.0,0.0,0.0,0.0,0.0,0.0,0.0,0.0,0.0,0.0,0.0,0.0,0.0,0.0,0.0,0.0,0.0,0.0,0.0,0.0,0.0,0.0,0.0,0.0,0.0,0.0,0.0,0.0,0.0,0.0,0.0,0.0,0.0,0.0,0.0,0.0,0.0,0.0,0.0,0.0,0.0,0.0,0.0,0.0,0.0,0.0,0.0,0.0,0.0,0.0,0.0,0.0,0.0,0.0,0.0,0.0,0.0,0.0,0.0,0.0,0.0,0.0,0.0,0.0,-0.0558,0.0,0.0,0.0,0.0,0.0,0.0,0.0,0.0,0.0,0.0,0.0,0.0,0.0,0.0,0.0,0.0,0.0,0.0,0.0,0.0,0.0,0.0,0.0,0.0,0.0,0.0,0.0,0.0,0.0,0.0,0.0,0.0,0.0,0.0,0.0,0.0,0.0,0.0,0.0,0.0,0.0,0.0,0.0,0.0,0.0,0.0,0.0,0.0,0.0,0.0,0.0,0.0,0.0,0.0,0.0,0.0,0.0,0.0,0.0,0.0,0.0,0.0,0.0,0.0,0.0,0.0,0.0,0.0,0.0,0.0,0.0,0.0,0.0,0.0,0.0,0.0,0.0,0.0,0.0,0.0,0.0,0.0,0.0,0.0,0.0,0.0,0.0,0.0,0.0,0.0,0.0,0.0,0.0,0.0,0.0,0.0,0.0,0.0,0.0,0.0,0.0,0.0,0.0,0.0,0.0,0.0,0.0,0.0,0.0,0.0,-0.0823,-0.1025,-0.0968,-0.1006,-0.1135,0.0,0.0,0.0,0.0,0.0,0.0,0.0,0.0,0.0,0.0,0.0,0.0,0.0,0.0,0.0,0.0,0.0,0.0,0.0,0.0,0.0,0.0,0.0,0.0,0.0,0.0,0.0,0.0,0.0,0.0,0.0,0.0,0.0,0.0,0.0,0.0,0.0,0.0,0.0,0.0,0.0,0.0,0.0,0.0,0.0,0.0,0.0,0.0,0.0,0.0,0.0,0.0,0.0,0.0,0.0,0.0,0.0,0.0,0.0,0.0,0.0,0.0,0.0,0.0,0.0,0.0,0.0,0.0,0.0,0.0,0.0,0.0,0.0,0.0,0.0,0.0,0.0,0.0,0.0,0.0,0.0,0.0,0.0,0.0,0.0,0.0,0.0,0.0,0.0,0.0,0.0,0.0,0.0,0.0,0.0,0.0,0.0,0.0,0.0,0.0,0.0,0.0,0.0,0.0,0.0,0.0,0.0,0.0,0.0,0.0,0.0,0.0,-0.149,-0.1594,-0.1612,0.0,0.0,0.0,0.0,0.0,0.0,0.0,0.0,0.0,0.0,0.0,0.0,0.0,0.0,0.0,0.0,0.0,0.0,0.0,0.0,0.0,0.0,0.0,0.0,0.0,0.0,0.0,0.0,0.0,0.0,0.0,0.0,0.0,0.0,0.0,0.0,0.0,0.0,0.0,0.0,0.0,0.0,0.0,0.0,0.0,0.0,0.0,0.0,0.0,0.0,0.0,0.0,0.0,0.0,0.0,0.0,0.0,0.0,0.0,0.0,0.0,0.0,0.0,0.0,0.0,0.0,0.0,0.0,0.0,0.0,0.0,0.0,0.0,0.0,0.0,0.0,0.0,0.0,0.0,0.0,0.0,0.0,0.0,0.0,0.0,0.0,0.0,0.0,0.0,0.0,0.0,0.0,0.0,0.0,0.0,0.0,0.0,0.0,0.0,0.0,0.0,0.0,0.0,0.0,0.0,0.0,0.0,0.0,0.0,0.0,-0.1416,-0.1906,-0.2028,0.0,-0.1718,0.0,0.0,0.0,0.0,0.0,0.0,0.0,0.0,0.0,0.0,0.0,0.0,0.0,0.0,0.0,0.0,0.0,0.0,0.0,0.0,0.0,0.0,0.0,0.0,0.0,0.0,0.0,0.0,0.0,0.0,0.0,0.0,0.0,0.0,0.0,0.0,0.0,0.0,0.0,0.0,0.0,0.0,0.0,0.0,0.0,0.0,0.0,0.0,0.0,0.0,0.0,0.0,0.0,0.0,0.0,0.0,0.0,0.0,0.0,0.0,0.0,0.0,0.0,0.0,0.0,0.0,0.0,0.0,0.0,0.0,0.0,0.0,0.0,0.0,0.0,0.0,0.0,0.0,0.0,0.0,0.0,0.0,0.0,0.0,0.0,0.0,0.0,0.0,0.0,0.0,0.0,0.0,0.0,0.0,0.0,0.0,0.0,0.0,0.0,0.0,0.0,0.0,0.0,0.0,0.0,0.0,0.0,0.0,0.0,0.0,0.0,-0.1346,-0.1625,-0.1765,0.0,0.0,0.0,0.0,0.0,0.0,0.0,0.0,0.0,0.0,0.0,0.0,0.0,0.0,0.0,0.0,0.0,0.0,0.0,0.0,0.0,0.0,0.0,0.0,0.0,0.0,0.0,0.0,0.0,0.0,0.0,0.0,0.0,0.0,0.0,0.0,0.0,0.0,0.0,0.0,0.0,0.0,0.0,0.0,0.0,0.0,0.0,0.0,0.0,0.0,0.0,0.0,0.0,0.0,0.0,0.0,0.0,0.0,0.0,0.0,0.0,0.0,0.0,0.0,0.0,0.0,0.0,0.0,0.0,0.0,0.0,0.0,0.0,0.0,0.0,0.0,0.0,0.0,0.0,0.0,0.0,0.0,0.0,0.0,0.0,0.0,0.0,0.0,0.0,0.0,0.0,0.0,0.0,0.0,0.0,0.0,0.0,0.0,0.0,0.0,0.0,0.0,0.0,0.0,0.0,0.0,0.0,0.0,0.0,0.0,-0.1424,0.0,-0.1194,-0.1439,-0.1666,-0.1787,0.0,0.0,0.0,0.0,0.0,0.0,0.0,0.0,0.0,0.0,0.0,0.0,0.0,0.0,0.0,0.0,0.0,0.0,0.0,0.0,0.0,0.0,0.0,0.0,0.0,0.0,0.0,0.0,0.0,0.0,0.0,0.0,0.0,0.0,0.0,0.0,0.0,0.0,0.0,0.0,0.0,0.0,0.0,0.0,0.0,0.0,0.0,0.0,0.0,0.0,0.0,0.0,0.0,0.0,0.0,0.0,0.0,0.0,0.0,0.0,0.0,0.0,0.0,0.0,0.0,0.0,0.0,0.0,0.0,0.0,0.0,0.0,0.0,0.0,0.0,0.0,0.0,0.0,0.0,0.0,0.0,0.0,0.0,0.0,0.0,0.0,0.0,0.0,0.0,0.0,0.0,0.0,0.0,0.0,0.0,0.0,0.0,0.0,0.0,0.0,0.0,0.0,0.0,0.0,0.0,0.0,0.0,0.0,0.0,-0.2045,-0.1649,-0.1837,-0.1855,-0.192,0.0,0.0,0.0,0.0,0.0,0.0,0.0,0.0,0.0,0.0,0.0,0.0,0.0,0.0,0.0,0.0,0.0,0.0,0.0,0.0,0.0,0.0,0.0,0.0,0.0,0.0,0.0,0.0,0.0,0.0,0.0,0.0,0.0,0.0,0.0,0.0,0.0,0.0,0.0,0.0,0.0,0.0,0.0,0.0,0.0,0.0,0.0,0.0,0.0,0.0,0.0,0.0,0.0,0.0,0.0,0.0,0.0,0.0,0.0,0.0,0.0,0.0,0.0,0.0,0.0,0.0,0.0,0.0,0.0,0.0,0.0,0.0,0.0,0.0,0.0,0.0,0.0,0.0,0.0,0.0,0.0,0.0,0.0,0.0,0.0,0.0,0.0,0.0,0.0,0.0,0.0,0.0,0.0,0.0,0.0,0.0,0.0,0.0,0.0,0.0,0.0,0.0,0.0,0.0,0.0,0.0,0.0,0.0,0.0,-0.2166,-0.1886,-0.205,0.0,-0.2386,-0.2211,0.0,0.0,0.0,0.0,0.0,0.0,0.0,0.0,0.0,0.0,0.0,0.0,0.0,0.0,0.0,0.0,0.0,0.0,0.0,0.0,0.0,0.0,0.0,0.0,0.0,0.0,0.0,0.0,0.0,0.0,0.0,0.0,0.0,0.0,0.0,0.0,0.0,0.0,0.0,0.0,0.0,0.0,0.0,0.0,0.0,0.0,0.0,0.0,0.0,0.0,0.0,0.0,0.0,0.0,0.0,0.0,0.0,0.0,0.0,0.0,0.0,0.0,0.0,0.0,0.0,0.0,0.0,0.0,0.0,0.0,0.0,0.0,0.0,0.0,0.0,0.0,0.0,0.0,0.0,0.0,0.0,0.0,0.0,0.0,0.0,0.0,0.0,0.0,0.0,0.0,0.0,0.0,0.0,0.0,0.0,0.0,0.0,0.0,0.0,0.0,0.0,0.0,0.0,0.0,0.0,0.0,0.0,0.0,0.0,-0.1967,0.0,-0.2746,0.0,-0.2617,-0.2454,0.0,0.0,0.0,0.0,0.0,0.0,0.0,0.0,0.0,0.0,0.0,0.0,0.0,0.0,0.0,0.0,0.0,0.0,0.0,0.0,0.0,0.0,0.0,0.0,0.0,0.0,0.0,0.0,0.0,0.0,0.0,0.0,0.0,0.0,0.0,0.0,0.0,0.0,0.0,0.0,0.0,0.0,0.0,0.0,0.0,0.0,0.0,0.0,0.0,0.0,0.0,0.0,0.0,0.0,0.0,0.0,0.0,0.0,0.0,0.0,0.0,0.0,0.0,0.0,0.0,0.0,0.0,0.0,0.0,0.0,0.0,0.0,0.0,0.0,0.0,0.0,0.0,0.0,0.0,0.0,0.0,0.0,0.0,0.0,0.0,0.0,0.0,0.0,0.0,0.0,0.0,0.0,0.0,0.0,0.0,0.0,0.0,0.0,0.0,0.0,0.0,0.0,0.0,0.0,0.0,0.0,0.0,0.0,-0.2707,-0.273,-0.362,-0.3633,-0.2557,-0.2716,-0.2706,0.0,0.0,0.0,0.0,0.0,0.0,0.0,0.0,0.0,0.0,0.0,0.0,0.0,0.0,0.0,0.0,0.0,0.0,0.0,0.0,0.0,0.0,0.0,0.0,0.0,0.0,0.0,0.0,0.0,0.0,0.0,0.0,0.0,0.0,0.0,0.0,0.0,0.0,0.0,0.0,0.0,0.0,0.0,0.0,0.0,0.0,0.0,0.0,0.0,0.0,0.0,0.0,0.0,0.0,0.0,0.0,0.0,0.0,0.0,0.0,0.0,0.0,0.0,0.0,0.0,0.0,0.0,0.0,0.0,0.0,0.0,0.0,0.0,0.0,0.0,0.0,0.0,0.0,0.0,0.0,0.0,0.0,0.0,0.0,0.0,0.0,0.0,0.0,0.0,0.0,0.0,0.0,0.0,0.0,0.0,0.0,0.0,0.0,0.0,0.0,0.0,0.0,0.0,0.0,0.0,0.0,0.0,0.0,0.0,-0.299,-0.3495,-0.3751,-0.3595,-0.3383,-0.3286,0.0,0.0,0.0,0.0,0.0,0.0,0.0,0.0,0.0,0.0,0.0,0.0,0.0,0.0,0.0,0.0,0.0,0.0,0.0,0.0,0.0,0.0,0.0,0.0,0.0,0.0,0.0,0.0,0.0,0.0,0.0,0.0,0.0,0.0,0.0,0.0,0.0,0.0,0.0,0.0,0.0,0.0,0.0,0.0,0.0,0.0,0.0,0.0,0.0,0.0,0.0,0.0,0.0,0.0,0.0,0.0,0.0,0.0,0.0,0.0,0.0,0.0,0.0,0.0,0.0,0.0,0.0,0.0,0.0,0.0,0.0,0.0,0.0,0.0,0.0,0.0,0.0,0.0,0.0,0.0,0.0,0.0,0.0,0.0,0.0,0.0,0.0,0.0,0.0,0.0,0.0,0.0,0.0,0.0,0.0,0.0,0.0,0.0,0.0,0.0,0.0,0.0,0.0,0.0,0.0,0.0,0.0,0.0,0.0,-0.3592,-0.3765,-0.3925,-0.4108,-0.3837,-0.3702,-0.3643,0.0,0.0,0.0,0.0,0.0,0.0,0.0,0.0,0.0,0.0,0.0,0.0,0.0,0.0,0.0,0.0,0.0,0.0,0.0,0.0,0.0,0.0,0.0,0.0,0.0,0.0,0.0,0.0,0.0,0.0,0.0,0.0,0.0,0.0,0.0,0.0,0.0,0.0,0.0,0.0,0.0,0.0,0.0,0.0,0.0,0.0,0.0,0.0,0.0,0.0,0.0,0.0,0.0,0.0,0.0,0.0,0.0,0.0,0.0,0.0,0.0,0.0,0.0,0.0,0.0,0.0,0.0,0.0,0.0,0.0,0.0,0.0,0.0,0.0,0.0,0.0,0.0,0.0,0.0,0.0,0.0,0.0,0.0,0.0,0.0,0.0,0.0,0.0,0.0,0.0,0.0,0.0,0.0,0.0,0.0,0.0,0.0,0.0,0.0,0.0,0.0,0.0,0.0,0.0,0.0,0.0,0.0,0.0,-0.4378,-0.4263,-0.4189,-0.4126,-0.4122,-0.3924,0.0,0.0,0.0,0.0,0.0,0.0,0.0,0.0,0.0,0.0,0.0,0.0,0.0,0.0,0.0,0.0,0.0,0.0,0.0,0.0,0.0,0.0,0.0,0.0,0.0,0.0,0.0,0.0,0.0,0.0,0.0,0.0,0.0,0.0,0.0,0.0,0.0,0.0,0.0,0.0,0.0,0.0,0.0,0.0,0.0,0.0,0.0,0.0,0.0,0.0,0.0,0.0,0.0,0.0,0.0,0.0,0.0,0.0,0.0,0.0,0.0,0.0,0.0,0.0,0.0,0.0,0.0,0.0,0.0,0.0,0.0,0.0,0.0,0.0,0.0,0.0,0.0,0.0,0.0,0.0,0.0,0.0,0.0,0.0,0.0,0.0,0.0,0.0,0.0,0.0,0.0,0.0,0.0,0.0,0.0,0.0,0.0,0.0,0.0,0.0,0.0,0.0,0.0,0.0,0.0,0.0,0.0,0.0,0.0,-0.3968,-0.4227,-0.4505,-0.4663,-0.4391,-0.4213,0.0,0.0,0.0,0.0,0.0,0.0,0.0,0.0,0.0,0.0,0.0,0.0,0.0,0.0,0.0,0.0,0.0,0.0,0.0,0.0,0.0,0.0,0.0,0.0,0.0,0.0,0.0,0.0,0.0,0.0,0.0,0.0,0.0,0.0,0.0,0.0,0.0,0.0,0.0,0.0,0.0,0.0,0.0,0.0,0.0,0.0,0.0,0.0,0.0,0.0,0.0,0.0,0.0,0.0,0.0,0.0,0.0,0.0,0.0,0.0,0.0,0.0,0.0,0.0,0.0,0.0,0.0,0.0,0.0,0.0,0.0,0.0,0.0,0.0,0.0,0.0,0.0,0.0,0.0,0.0,0.0,0.0,0.0,0.0,0.0,0.0,0.0,0.0,0.0,0.0,0.0,0.0,0.0,0.0,0.0,0.0,0.0,0.0,0.0,0.0,0.0,0.0,0.0,0.0,0.0,0.0,0.0,0.0,-0.5013,-0.4933,-0.5054,-0.5188,-0.5347,-0.4863,-0.4455,0.0,0.0,0.0,0.0,0.0,0.0,0.0,0.0,0.0,0.0,0.0,0.0,0.0,0.0,0.0,0.0,0.0,0.0,0.0,0.0,0.0,0.0,0.0,0.0,0.0,0.0,0.0,0.0,0.0,0.0,0.0,0.0,0.0,0.0,0.0,0.0,0.0,0.0,0.0,0.0,0.0,0.0,0.0,0.0,0.0,0.0,0.0,0.0,0.0,0.0,0.0,0.0,0.0,0.0,0.0,0.0,0.0,0.0,0.0,0.0,0.0,0.0,0.0,0.0,0.0,0.0,0.0,0.0,0.0,0.0,0.0,0.0,0.0,0.0,0.0,0.0,0.0,0.0,0.0,0.0,0.0,0.0,0.0,0.0,0.0,0.0,0.0,0.0,0.0,0.0,0.0,0.0,0.0,0.0,0.0,0.0,0.0,0.0,0.0,0.0,0.0,0.0,0.0,0.0,0.0,0.0,0.0,0.0,-0.6181,-0.6385,-0.6151,-0.6057,-0.605,-0.531,-0.4761,0.0,0.0,0.0,0.0,0.0,0.0,0.0,0.0,0.0,0.0,0.0,0.0,0.0,0.0,0.0,0.0,0.0,0.0,0.0,0.0,0.0,0.0,0.0,0.0,0.0,0.0,0.0,0.0,0.0,0.0,0.0,0.0,0.0,0.0,0.0,0.0,0.0,0.0,0.0,0.0,0.0,0.0,0.0,0.0,0.0,0.0,0.0,0.0,0.0,0.0,0.0,0.0,0.0,0.0,0.0,0.0,0.0,0.0,0.0,0.0,0.0,0.0,0.0,0.0,0.0,0.0,0.0,0.0,0.0,0.0,0.0,0.0,0.0,0.0,0.0,0.0,0.0,0.0,0.0,0.0,0.0,0.0,0.0,0.0,0.0,0.0,0.0,0.0,0.0,0.0,0.0,0.0,0.0,0.0,0.0,0.0,0.0,0.0,0.0,0.0,0.0,0.0,0.0,0.0,0.0,0.0,0.0,0.0,-0.6076,-0.5681,-0.6071,-0.6379,-0.6485,-0.5388,-0.4887,0.0,0.0,0.0,0.0,0.0,0.0,0.0,0.0,0.0,0.0,0.0,0.0,0.0,0.0,0.0,0.0,0.0,0.0,0.0,0.0,0.0,0.0,0.0,0.0,0.0,0.0,0.0,0.0,0.0,0.0,0.0,0.0,0.0,0.0,0.0,0.0,0.0,0.0,0.0,0.0,0.0,0.0,0.0,0.0,0.0,0.0,0.0,0.0,-0.9033,0.0,0.0,0.0,0.0,0.0,0.0,0.0,0.0,0.0,0.0,0.0,0.0,0.0,0.0,0.0,0.0,0.0,0.0,0.0,0.0,0.0,0.0,0.0,0.0,0.0,0.0,0.0,0.0,0.0,0.0,0.0,0.0,0.0,0.0,0.0,0.0,0.0,0.0,0.0,0.0,0.0,0.0,0.0,0.0,0.0,0.0,0.0,0.0,0.0,0.0,0.0,0.0,0.0,0.0,0.0,0.0,0.0,0.0,0.0,-0.6684,-0.6429,-0.6707,-0.6912,-0.6993,-0.5903,-0.5436,0.0,0.0,0.0,0.0,0.0,0.0,0.0,0.0,0.0,0.0,0.0,0.0,0.0,0.0,0.0,0.0,0.0,0.0,0.0,0.0,0.0,0.0,0.0,0.0,0.0,0.0,0.0,0.0,0.0,0.0,0.0,0.0,0.0,0.0,0.0,0.0,0.0,0.0,0.0,0.0,0.0,0.0,0.0,0.0,0.0,0.0,0.0,0.0,0.0,0.0,0.0,0.0,0.0,0.0,0.0,0.0,0.0,0.0,0.0,0.0,0.0,0.0,0.0,0.0,0.0,0.0,0.0,0.0,0.0,0.0,0.0,0.0,0.0,0.0,0.0,0.0,0.0,0.0,0.0,0.0,0.0,0.0,0.0,0.0,0.0,0.0,0.0,0.0,0.0,0.0,0.0,0.0,0.0,0.0,0.0,0.0,0.0,0.0,0.0,0.0,0.0,0.0,0.0,0.0,0.0,0.0,0.0,-0.6721,-0.7327,-0.7484,-0.7401,-0.7383,-0.7519,-0.6621,-0.6244,-0.6527,0.0,0.0,0.0,0.0,0.0,0.0,0.0,0.0,0.0,0.0,0.0,0.0,0.0,0.0,0.0,0.0,0.0,0.0,0.0,0.0,0.0,0.0,0.0,0.0,0.0,0.0,0.0,0.0,0.0,0.0,0.0,0.0,0.0,0.0,0.0,0.0,0.0,0.0,-0.7691,-0.8313,0.0,0.0,0.0,0.0,0.0,0.0,0.0,0.0,-1.14,0.0,0.0,0.0,0.0,0.0,0.0,0.0,0.0,0.0,0.0,0.0,0.0,0.0,0.0,0.0,0.0,0.0,0.0,0.0,0.0,0.0,0.0,0.0,0.0,0.0,0.0,0.0,0.0,0.0,0.0,0.0,0.0,0.0,0.0,0.0,0.0,0.0,0.0,0.0,0.0,0.0,0.0,0.0,0.0,0.0,0.0,0.0,0.0,0.0,0.0,0.0,0.0,0.0,0.0,0.0,0.0,-0.5924,-0.6409,-0.6761,-0.6994,-0.7314,-0.7551,-0.7631,-0.7284,-0.7131,-0.727,0.0,0.0,0.0,0.0,0.0,0.0,0.0,0.0,0.0,0.0,0.0,0.0,0.0,0.0,0.0,0.0,0.0,0.0,0.0,0.0,0.0,0.0,0.0,0.0,0.0,0.0,0.0,0.0,0.0,0.0,0.0,0.0,0.0,0.0,0.0,0.0,0.0,0.0,0.0,-1.038,-1.0926,0.0,0.0,0.0,0.0,0.0,0.0,0.0,0.0,-1.225,0.0,0.0,0.0,0.0,0.0,0.0,0.0,0.0,0.0,0.0,0.0,0.0,0.0,0.0,0.0,0.0,0.0,0.0,0.0,0.0,0.0,0.0,0.0,0.0,0.0,0.0,0.0,0.0,0.0,0.0,0.0,0.0,0.0,0.0,0.0,0.0,0.0,0.0,0.0,0.0,0.0,0.0,0.0,0.0,0.0,0.0,0.0,0.0,0.0,0.0,0.0,0.0,0.0,0.0,0.0,-0.5844,-0.6409,-0.684,-0.7106,-0.7288,-0.7451,-0.758,-0.7158,-0.6972,0.0,0.0,0.0,0.0,0.0,0.0,0.0,0.0,0.0,0.0,0.0,0.0,0.0,0.0,0.0,0.0,0.0,0.0,0.0,0.0,0.0,0.0,0.0,0.0,0.0,0.0,0.0,0.0,0.0,0.0,0.0,0.0,0.0,0.0,0.0,0.0,0.0,0.0,0.0,0.0,-1.1572,-1.2016,-1.241,0.0,0.0,0.0,0.0,0.0,0.0,-1.2768,-1.3036,0.0,0.0,0.0,0.0,0.0,0.0,0.0,0.0,0.0,0.0,0.0,0.0,0.0,0.0,0.0,0.0,0.0,0.0,0.0,0.0,0.0,0.0,0.0,0.0,0.0,0.0,0.0,0.0,0.0,0.0,0.0,0.0,0.0,0.0,0.0,0.0,0.0,0.0,0.0,0.0,0.0,0.0,0.0,0.0,0.0,0.0,0.0,0.0,0.0,0.0,0.0,0.0,0.0,0.0,0.0,-0.5701,-0.6402,-0.6925,-0.7204,-0.7252,-0.729,-0.7368,-0.6924,-0.665,0.0,0.0,0.0,0.0,0.0,0.0,0.0,0.0,0.0,0.0,0.0,0.0,0.0,0.0,0.0,0.0,0.0,0.0,0.0,0.0,0.0,0.0,0.0,0.0,0.0,0.0,0.0,0.0,0.0,0.0,0.0,0.0,0.0,0.0,0.0,0.0,0.0,0.0,0.0,0.0,0.0,-1.3118,-1.342,-1.355,0.0,0.0,0.0,0.0,-1.3645,-1.3815,0.0,0.0,0.0,0.0,0.0,0.0,0.0,0.0,0.0,0.0,0.0,0.0,0.0,0.0,0.0,0.0,0.0,0.0,0.0,0.0,0.0,0.0,0.0,0.0,0.0,0.0,0.0,0.0,0.0,0.0,0.0,0.0,0.0,0.0,0.0,0.0,0.0,0.0,0.0,0.0,0.0,0.0,0.0,0.0,0.0,0.0,0.0,0.0,0.0,0.0,0.0,0.0,0.0,0.0,0.0,0.0,-0.5717,-0.616,-0.6533,-0.695,-0.6996,-0.7028,-0.7032,-0.7007,-0.6847,0.0,0.0,0.0,0.0,0.0,0.0,0.0,0.0,0.0,0.0,0.0,0.0,0.0,0.0,0.0,0.0,0.0,0.0,0.0,0.0,0.0,0.0,0.0,0.0,0.0,0.0,0.0,0.0,0.0,0.0,0.0,0.0,0.0,0.0,0.0,0.0,0.0,0.0,0.0,0.0,0.0,-1.4844,-1.449,-1.4874,-1.5231,0.0,0.0,0.0,-1.597,-1.5455,0.0,0.0,0.0,0.0,0.0,0.0,0.0,0.0,0.0,0.0,0.0,0.0,0.0,0.0,0.0,0.0,0.0,0.0,0.0,0.0,0.0,0.0,0.0,0.0,0.0,0.0,0.0,0.0,0.0,0.0,0.0,0.0,0.0,0.0,0.0,0.0,0.0,0.0,0.0,0.0,0.0,0.0,0.0,0.0,0.0,0.0,0.0,0.0,0.0,0.0,0.0,0.0,0.0,0.0,0.0,-0.5599,-0.5835,-0.6372,-0.6735,-0.6943,-0.6985,-0.6975,-0.6975,-0.6864,-0.6643,0.0,0.0,0.0,0.0,0.0,0.0,0.0,0.0,0.0,0.0,0.0,0.0,0.0,0.0,0.0,0.0,0.0,0.0,0.0,0.0,0.0,0.0,0.0,0.0,0.0,0.0,0.0,0.0,0.0,0.0,0.0,0.0,0.0,0.0,0.0,0.0,0.0,0.0,0.0,0.0,0.0,0.0,-1.5101,-1.5277,0.0,0.0,0.0,-1.511,-1.5256,0.0,0.0,0.0,0.0,0.0,0.0,0.0,0.0,0.0,0.0,0.0,0.0,0.0,0.0,0.0,0.0,0.0,0.0,0.0,0.0,0.0,0.0,0.0,0.0,0.0,0.0,0.0,0.0,0.0,0.0,0.0,0.0,0.0,0.0,0.0,0.0,0.0,0.0,0.0,0.0,0.0,0.0,0.0,0.0,0.0,0.0,0.0,0.0,0.0,0.0,0.0,0.0,0.0,0.0,0.0,0.0,0.0,-0.5906,-0.6578,-0.6907,-0.6982,-0.6975,-0.6975,-0.6972,-0.681,0.0,0.0,0.0,0.0,0.0,0.0,0.0,0.0,0.0,0.0,0.0,0.0,0.0,0.0,0.0,0.0,0.0,0.0,0.0,0.0,0.0,0.0,0.0,0.0,0.0,0.0,0.0,-0.6233,0.0,0.0,0.0,0.0,0.0,0.0,0.0,0.0,0.0,0.0,0.0,0.0,0.0,0.0,-1.5177,-1.579,-1.5971,-1.6009,0.0,0.0,-1.5914,-1.5507,-1.5551,-1.5453,0.0,0.0,0.0,0.0,0.0,0.0,0.0,0.0,0.0,0.0,0.0,0.0,0.0,0.0,0.0,0.0,0.0,0.0,0.0,0.0,0.0,0.0,0.0,0.0,0.0,0.0,0.0,0.0,0.0,0.0,0.0,0.0,0.0,0.0,0.0,0.0,0.0,0.0,0.0,0.0,0.0,0.0,0.0,0.0,0.0,0.0,0.0,0.0,0.0,0.0,0.0,0.0,0.0,0.0,0.0,-0.5913,-0.6541,-0.6907,-0.6975,-0.6975,-0.6975,-0.6975,-0.7007,-0.6727,0.0,0.0,0.0,0.0,0.0,0.0,0.0,0.0,0.0,0.0,0.0,0.0,0.0,0.0,0.0,0.0,0.0,0.0,0.0,0.0,0.0,0.0,0.0,0.0,0.0,0.0,0.0,0.0,0.0,0.0,0.0,0.0,0.0,0.0,0.0,0.0,0.0,0.0,0.0,0.0,0.0,-1.6268,-1.6811,-1.7422,-1.7983,0.0,0.0,-1.743,-1.8338,-1.7972,-1.7277,-1.6204,0.0,0.0,0.0,0.0,0.0,0.0,0.0,0.0,0.0,0.0,0.0,0.0,0.0,0.0,0.0,0.0,0.0,0.0,0.0,0.0,0.0,0.0,0.0,0.0,0.0,0.0,0.0,0.0,0.0,0.0,0.0,0.0,0.0,0.0,0.0,0.0,0.0,0.0,0.0,0.0,0.0,0.0,0.0,0.0,0.0,0.0,0.0,0.0,0.0,0.0,0.0,0.0,0.0,-0.6042,-0.5903,-0.6609,-0.6985,-0.6979,-0.6975,-0.6975,-0.6975,-0.6975,-0.6834,0.0,0.0,0.0,0.0,0.0,0.0,0.0,0.0,0.0,0.0,0.0,0.0,0.0,0.0,0.0,0.0,0.0,0.0,0.0,0.0,0.0,0.0,0.0,0.0,0.0,0.0,0.0,0.0,-0.7432,-0.7827,-0.842,0.0,0.0,0.0,0.0,0.0,0.0,0.0,0.0,0.0,0.0,-1.6386,-1.6941,-1.7235,0.0,0.0,-1.7395,-1.7245,-1.7744,-1.7014,-1.6458,-1.661,-1.6152,0.0,0.0,0.0,0.0,0.0,0.0,0.0,0.0,0.0,0.0,0.0,0.0,0.0,0.0,0.0,0.0,0.0,0.0,0.0,0.0,0.0,0.0,0.0,0.0,0.0,0.0,0.0,0.0,0.0,0.0,0.0,0.0,0.0,0.0,0.0,0.0,0.0,0.0,0.0,0.0,0.0,0.0,0.0,0.0,0.0,0.0,0.0,0.0,0.0,0.0,0.0,0.0,-0.6229,-0.5937,-0.6646,-0.6975,-0.6975,-0.6975,-0.6975,-0.6975,-0.6975,-0.6884,0.0,0.0,0.0,0.0,0.0,0.0,0.0,0.0,0.0,0.0,0.0,0.0,0.0,0.0,0.0,0.0,0.0,0.0,0.0,0.0,0.0,0.0,0.0,0.0,0.0,0.0,0.0,0.0,-0.76,-0.8063,-0.8481,0.0,0.0,0.0,0.0,0.0,0.0,0.0,0.0,0.0,0.0,-1.6783,-1.7348,-1.7455,-1.7509,-1.7564,-1.7509,-1.7468,-1.7564,-1.6955,-1.6626,-1.7057,0.0,0.0,0.0,0.0,0.0,0.0,0.0,0.0,0.0,0.0,0.0,0.0,0.0,0.0,0.0,0.0,0.0,0.0,0.0,0.0,0.0,0.0,0.0,0.0,0.0,0.0,0.0,0.0,0.0,0.0,0.0,0.0,0.0,0.0,0.0,0.0,0.0,0.0,0.0,0.0,0.0,0.0,0.0,0.0,0.0,0.0,0.0,0.0,0.0,0.0,0.0,0.0,0.0,0.0,-0.6031,-0.6653,-0.6975,-0.6975,-0.6975,-0.6975,-0.6975,-0.6975,-0.6887,-0.66,0.0,0.0,0.0,0.0,0.0,0.0,0.0,0.0,0.0,0.0,0.0,0.0,0.0,0.0,0.0,0.0,0.0,0.0,0.0,0.0,0.0,0.0,0.0,0.0,0.0,0.0,-0.7013,-0.8071,-0.8838,0.0,0.0,0.0,0.0,0.0,0.0,0.0,0.0,0.0,0.0,-1.7216,-1.7639,-1.834,-1.8485,-1.8432,-1.8439,-1.8432,-1.8439,-1.8439,-1.8514,-1.8418,0.0,0.0,0.0,0.0,0.0,0.0,0.0,0.0,0.0,0.0,0.0,0.0,0.0,0.0,0.0,0.0,0.0,0.0,0.0,0.0,0.0,0.0,0.0,0.0,0.0,0.0,0.0,-0.5392,-0.513,0.0,0.0,0.0,0.0,0.0,0.0,0.0,0.0,0.0,0.0,0.0,-0.6116,-0.6093,0.0,0.0,0.0,0.0,0.0,0.0,0.0,0.0,0.0,0.0,0.0,0.0,-0.6361,-0.6353,-0.6752,-0.6975,-0.6975,-0.6975,-0.6975,-0.6975,-0.6975,-0.688,-0.6597,0.0,0.0,0.0,0.0,0.0,0.0,0.0,0.0,0.0,0.0,0.0,0.0,0.0,0.0,0.0,0.0,0.0,0.0,0.0,0.0,0.0,0.0,0.0,0.0,0.0,-0.703,0.0,0.0,0.0,0.0,0.0,0.0,0.0,0.0,0.0,0.0,0.0,-1.6705,-1.7463,-1.8092,-1.8488,-1.8488,-1.8485,-1.8485,0.0,0.0,0.0,0.0,0.0,0.0,0.0,0.0,0.0,0.0,0.0,0.0,0.0,0.0,-1.9687,-1.873,-1.8265,-1.805,-1.8119,0.0,0.0,0.0,0.0,0.0,0.0,0.0,0.0,0.0,0.0,0.0,0.0,0.0,0.0,0.0,0.0,-0.5275,0.0,0.0,0.0,0.0,0.0,0.0,0.0,0.0,-0.6016,-0.6305,-0.6568,-0.6604,-0.653,0.0,-0.6319,-0.6097,0.0,0.0,0.0,0.0,0.0,0.0,0.0,0.0,-0.6514,-0.6491,-0.6836,-0.6975,-0.6975,-0.6975,-0.6975,-0.6975,-0.6975,-0.6934,-0.674,-0.7099,-0.7056,0.0,0.0,0.0,0.0,0.0,0.0,0.0,0.0,0.0,0.0,0.0,0.0,0.0,0.0,0.0,0.0,0.0,0.0,0.0,0.0,0.0,0.0,0.0,-0.7505,0.0,0.0,0.0,0.0,0.0,0.0,0.0,0.0,0.0,-1.5272,-1.6777,-1.7919,-1.818,-1.8837,-1.9135,-1.859,0.0,0.0,0.0,0.0,0.0,0.0,0.0,-1.86,-1.9288,-1.9215,-1.9291,-1.9916,-2.0361,-2.0745,-2.1038,0.0,0.0,-1.9989,-1.9695,-1.9665,-1.9828,-1.9782,-1.9623,-1.9442,-1.9396,-1.9279,0.0,0.0,0.0,0.0,0.0,0.0,0.0,0.0,-0.6246,-0.609,0.0,-0.5586,0.0,0.0,0.0,0.0,0.0,0.0,0.0,0.0,-0.6704,-0.687,-0.6664,-0.6907,-0.6992,-0.7014,-0.6908,-0.682,-0.6766,-0.603,0.0,0.0,0.0,0.0,0.0,0.0,-0.6672,-0.6424,-0.6801,-0.6975,-0.6975,-0.6975,-0.6975,-0.6975,-0.6975,-0.6975,-0.7014,-0.7422,-0.7492,-0.7104,-0.7621,0.0,0.0,0.0,0.0,0.0,0.0,0.0,0.0,0.0,0.0,0.0,0.0,0.0,0.0,0.0,0.0,0.0,0.0,0.0,0.0,-0.783,0.0,0.0,0.0,0.0,0.0,0.0,0.0,0.0,0.0,0.0,-1.7271,-1.7991,-1.8594,-1.8701,0.0,0.0,0.0,0.0,-1.8517,-1.8524,-1.8728,-1.8905,-1.8936,-1.9391,-1.978,-1.9816,0.0,0.0,-2.0761,-2.0958,-2.1103,-2.1095,-2.1222,-2.1411,-2.1593,-2.129,-2.1205,-2.1595,-2.128,-2.1039,-2.1046,-2.0775,-2.0437,-0.6425,0.0,0.0,0.0,0.0,-0.6666,-0.6701,-0.6715,-0.6798,-0.6622,-0.631,-0.629,0.0,0.0,0.0,0.0,0.0,0.0,-0.6565,-0.6729,-0.6873,-0.7041,-0.7251,-0.7408,-0.7412,-0.7233,-0.7305,-0.727,-0.7085,-0.6854,-0.6615,-0.6382,0.0,0.0,0.0,0.0,-0.6529,-0.678,-0.6904,-0.6975,-0.6975,-0.6975,-0.6975,-0.6975,-0.6975,-0.6975,-0.6975,-0.7147,-0.7172,-0.7115,-0.7101,0.0,0.0,0.0,0.0,0.0,0.0,0.0,0.0,0.0,0.0,0.0,0.0,0.0,0.0,0.0,0.0,0.0,0.0,0.0,-0.806,-0.8127,-0.8553,0.0,0.0,0.0,0.0,0.0,0.0,0.0,0.0,0.0,-1.9243,-1.894,-1.89,0.0,0.0,-1.91,-1.8583,-1.8485,-1.8556,-1.8767,0.0,0.0,0.0,-1.9588,-1.9874,-2.0311,-2.0671,-2.0966,-2.099,-2.1183,-2.1206,-2.0958,-2.1339,-2.1691,-2.1509,-2.1472,-2.1542,-2.1656,-2.1532,-2.1323,-2.1134,-2.0958,-2.0673,-0.684,-0.6798,-0.6703,-0.6715,-0.6802,-0.6811,-0.6898,-0.6963,-0.703,-0.6903,-0.6752,-0.6759,-0.6602,-0.6363,-0.6225,0.0,0.0,0.0,-0.6954,-0.7182,-0.718,-0.7364,-0.7566,-0.7726,-0.7703,-0.7552,-0.7599,-0.7568,-0.7466,-0.7303,-0.7102,-0.6925,0.0,0.0,-0.669,-0.6454,-0.648,-0.6735,-0.6907,-0.695,-0.6946,-0.6985,-0.6975,-0.6975,-0.6975,-0.6975,-0.6975,-0.6975,-0.7024,-0.7047,-0.7087,-0.705,0.0,0.0,0.0,0.0,0.0,0.0,0.0,0.0,0.0,0.0,0.0,-0.7428,0.0,0.0,0.0,0.0,-0.8112,-0.8527,-0.8761,-0.8989,0.0,0.0,0.0,0.0,0.0,0.0,0.0,-1.8163,-1.8879,-1.9607,-2.0386,-1.9752,-1.9426,-2.0074,-1.9775,-1.9357,-1.8891,0.0,-1.8927,-1.9169,-1.9229,-1.9398,-1.9844,-2.005,-2.03,-2.0745,-2.0966,-2.1071,-2.099,-2.1158,-2.1214,-2.1103,-2.1493,-2.184,-2.1601,-2.167,-2.1797,-2.1886,-2.1683,-2.1507,-2.1475,-2.1134,-2.0761,-0.7136,-0.7101,-0.6773,-0.6759,-0.6905,-0.7073,-0.7098,-0.712,-0.6952,-0.6985,-0.7066,-0.7067,-0.7019,-0.7113,-0.6982,0.0,0.0,-0.7124,-0.7249,-0.7518,-0.7619,-0.767,-0.7726,-0.7845,-0.7904,-0.7892,-0.7695,-0.771,-0.7865,-0.7454,-0.7391,-0.7604,-0.7118,-0.686,-0.6823,-0.6671,-0.6542,-0.6548,-0.6815,-0.6934,-0.6953,-0.6999,-0.6975,-0.6975,-0.6975,-0.6975,-0.6975,-0.6975,-0.6975,-0.7017,-0.7433,-0.7455,-0.7115,0.0,0.0,0.0,0.0,0.0,0.0,0.0,0.0,0.0,0.0,0.0,0.0,0.0,0.0,0.0,-0.9262,0.0,-0.977,-1.0155,0.0,0.0,0.0,-1.3617,-1.615,-1.7325,-1.8349,-1.9343,0.0,0.0,0.0,0.0,-2.0172,-2.045,-2.0346,-2.0054,-1.9457,-1.9391,-1.9479,-1.9675,-1.9767,-1.9957,-2.0368,-2.0671,-2.0949,-2.1255,-2.1175,-2.115,-2.107,-2.1135,-2.1276,-2.1269,-2.1661,-2.1928,-2.1827,-2.1928,-2.2064,-2.226,-2.1882,-2.1628,-2.1924,-2.1415,-2.0909,-0.7136,-0.7071,-0.7017,-0.7006,-0.7049,-0.7105,-0.709,-0.713,-0.7191,-0.7143,-0.713,-0.7197,-0.7169,-0.7102,-0.7048,-0.7164,-0.7276,-0.7164,-0.7298,-0.7619,-0.7571,-0.7676,-0.7845,-0.7848,-0.7904,-0.7898,-0.7885,-0.7835,-0.7892,-0.7775,-0.7742,-0.784,-0.7574,-0.7309,-0.7112,-0.7095,-0.7111,-0.7111,-0.7291,-0.7325,-0.7201,-0.7059,-0.6975,-0.6975,-0.6975,-0.6975,-0.6975,-0.6975,-0.6975,-0.7017,-0.7105,-0.7014,-0.6765,-0.6981,0.0,0.0,0.0,0.0,0.0,0.0,0.0,0.0,0.0,-0.7778,-0.7807,0.0,-0.916,0.0,-0.9423,-0.9962,-1.056,-1.1035,0.0,0.0,-1.3794,-1.5273,-1.7294,-1.8223,-1.9219,-2.0477,-2.1125,-2.1453,-2.1254,-2.1513,-2.1686,-2.148,-2.0402,-1.9545,-1.9428,-1.9428,-1.956,-1.997,-2.0084,-2.0231,-2.0835,-2.123,-2.1675,-2.2222,-2.1962,-2.1834,-2.2166,-2.2098,-2.1853,-2.1462,-2.1899,-2.2166,-2.192,-2.2061,-2.2229,-2.2321,-2.2032,-2.1773,-2.1911,-2.1554,-2.1182,-0.7136,-0.7136,-0.7136,-0.7136,-0.7136,-0.7136,-0.7136,-0.7136,-0.7195,-0.7195,-0.7136,-0.7252,-0.7311,-0.7303,-0.7252,-0.7255,-0.7365,-0.7255,-0.7357,-0.7619,-0.7619,-0.7678,-0.7788,-0.7848,-0.7904,-0.7904,-0.7904,-0.7904,-0.7904,-0.7904,-0.7904,-0.7901,-0.7804,-0.7653,-0.7508,-0.7328,-0.7257,-0.7257,-0.7353,-0.7415,-0.7392,-0.7201,-0.7135,-0.7138,-0.7052,-0.6975,-0.6975,-0.6975,-0.7105,-0.7308,-0.7308,-0.7238,-0.7108,-0.7303,-0.7374,0.0,0.0,0.0,0.0,0.0,0.0,0.0,0.0,0.0,0.0,0.0,-0.9729,0.0,-1.028,0.0,-1.1394,-1.1885,-1.2602,-1.3549,-1.4937,-1.6492,-1.8183,-1.9143,-2.0126,-2.1452,-2.1827,-2.2083,-2.2175,-2.2372,-2.2469,-2.2257,-2.137,-2.0692,-2.0685,-2.0677,-2.0863,-2.1247,-2.1255,-2.128,-2.1532,-2.1707,-2.1999,-2.2528,-2.2543,-2.2471,-2.2683,-2.2651,-2.2387,-2.1735,-2.2023,-2.2377,-2.2135,-2.218,-2.2319,-2.2302,-2.2163,-2.204,-2.2061,-2.1789,-2.1515,-0.7133,-0.7133,-0.713,-0.713,-0.7128,-0.7095,-0.7136,-0.7136,-0.7136,-0.7136,-0.7136,-0.7198,-0.7359,-0.7413,-0.7311,-0.7362,-0.7467,-0.7362,-0.7362,-0.7518,-0.7619,-0.767,-0.767,-0.7845,-0.7904,-0.7904,-0.7904,-0.7904,-0.7904,-0.7904,-0.7904,-0.7904,-0.7904,-0.7904,-0.7883,-0.7487,-0.7303,-0.7303,-0.7324,-0.7406,-0.7535,-0.737,-0.7295,-0.7327,-0.7095,-0.6975,-0.6975,-0.6975,-0.7189,-0.7603,-0.7599,-0.7596,-0.7634,-0.776,-0.7829,0.0,-0.8005,0.0,0.0,0.0,0.0,0.0,0.0,0.0,0.0,-1.0091,-1.0261,-1.1002,-1.1398,-1.1753,-1.2138,-1.2783,-1.3542,-1.4489,-1.593,-1.7436,-1.8888,-1.9855,-2.0888,-2.2142,-2.2275,-2.2543,-2.3083,-2.3041,-2.293,-2.2838,-2.2746,-2.2632,-2.2601,-2.2347,-2.2291,-2.2823,-2.2815,-2.2552,-2.2454,-2.2338,-2.2545,-2.3007,-2.3192,-2.3156,-2.3025,-2.3034,-2.2795,-2.2099,-2.2163,-2.2358,-2.2302,-2.2291,-2.2319,-2.2319,-2.2282,-2.2291,-2.2254,-2.2077,-2.1886,-0.7325,-0.7327,-0.7327,-0.7327,-0.7311,-0.7171,-0.7136,-0.7136,-0.7136,-0.7136,-0.7136,-0.7139,-0.7139,-0.7195,-0.7139,-0.7198,-0.7311,-0.7195,-0.7249,-0.7521,-0.7518,-0.7619,-0.7723,-0.7842,-0.7904,-0.7904,-0.7904,-0.7904,-0.7904,-0.7904,-0.7904,-0.7904,-0.7904,-0.7904,0.0,0.0,0.0,0.0,-0.7691,-0.7672,-0.7806,-0.747,-0.7337,-0.7462,-0.7174,0.0,-0.6975,-0.6975,-0.7021,-0.7105,-0.7143,0.0,0.0,0.0,0.0,0.0,0.0,0.0,0.0,0.0,0.0,0.0,-1.0758,-1.0496,-1.0344,-1.0934,-1.1482,-1.1849,-1.2013,-1.2278,-1.2623,-1.354,-1.4465,-1.5389,-1.6828,-1.8168,-1.9143,-1.993,-2.0802,-2.1935,-2.2189,-2.2455,-2.2875,-2.328,-2.3523,-2.3312,-2.3912,-2.439,-2.4359,-2.3204,-2.2453,-2.2618,-2.3163,-2.3525,-2.3769,-2.3896,-2.4123,-2.4818,-2.4642,-2.4359,-2.4191,-2.3718,-2.3156,-2.2386,-2.2293,-2.2386,-2.231,-2.2319,-2.2319,-2.2319,-2.2319,-2.2319,-2.2319,-2.2245,-2.2217,-0.7565,0.0,-0.744,-0.7394,0.0,-0.7187,-0.7136,-0.7136,-0.7136,-0.7136,-0.7136,-0.7136,-0.7136,-0.7136,-0.7136,-0.7139,-0.7195,-0.7139,-0.7198,-0.7419,-0.747,-0.7571,-0.7723,-0.7845,-0.7904,-0.7904,-0.7904,-0.7904,-0.7904,-0.7904,-0.7904,-0.7904,-0.7904,-0.7904,-0.7904,-0.7904,-0.7904,-0.7904,-0.7819,-0.7854,-0.7887,-0.7653,-0.7506,-0.7501,0.0,0.0,0.0,0.0,0.0,0.0,0.0,0.0,0.0,0.0,0.0,-0.8854,-0.9551,-1.0164,-1.0574,-1.0795,-1.1094,-1.1453,-1.1565,-1.1385,-1.0942,-1.1579,-1.2094,-1.2365,-1.2345,-1.2497,-1.308,-1.389,-1.4908,-1.5986,-1.749,-1.8783,-1.9715,-2.0581,-2.1389,-2.2196,-2.2694,-2.3091,-2.3443,-2.3774,-2.3964,-2.3871,-2.4412,-2.4902,-2.4855,-2.4171,-2.3678,-2.3845,-2.4107,-2.4379,-2.4589,-2.453,-2.4777,-2.5304,-2.5365,-2.5215,-2.515,-2.4499,-2.3765,-2.2995,-2.2592,-2.2338,-2.2319,-2.2319,-2.2319,-2.2319,-2.2319,-2.2319,-2.2319,-2.2319,-2.2319,-0.7863,-0.7838,-0.7546,-0.7458,-0.7434,-0.7209,-0.7136,-0.7136,0.0,0.0,0.0,-0.7136,-0.7136,-0.7136,-0.7136,-0.7136,-0.7139,-0.7139,-0.7195,-0.7371,-0.7467,-0.7625,-0.7726,-0.7845,-0.7904,-0.7904,-0.7904,-0.7904,-0.7904,-0.7904,-0.7904,-0.7904,-0.7904,-0.7904,-0.7904,-0.7904,-0.7904,-0.7904,-0.7904,-0.7898,-0.7996,-0.7844,-0.7697,-0.7663,-0.7524,-0.7349,-0.7155,-0.7418,-0.7609,-0.7717,-0.8196,-0.8372,-0.8121,-0.9239,-0.979,-0.957,-1.046,-1.1039,-1.1117,-1.1393,-1.159,-1.159,-1.2048,-1.2094,-1.1661,-1.2039,-1.2414,-1.2637,-1.2515,-1.2726,-1.3488,-1.435,-1.5383,-1.6713,-1.8145,-1.9422,-2.0344,-2.1215,-2.1928,-2.2565,-2.3143,-2.3688,-2.4135,-2.4211,-2.431,-2.4336,-2.4615,-2.4942,-2.4973,-2.4949,-2.4963,-2.5191,-2.525,-2.5328,-2.5355,-2.5219,-2.5129,-2.5744,-2.5893,-2.5849,-2.562,-2.5054,-2.4286,-2.3469,-2.2809,-2.2395,-2.2319,-2.2319,-2.2319,-2.2319,-2.2319,-2.2319,-2.2319,-2.2319,-2.2319,-0.8161,-0.8142,-0.7849,-0.7752,-0.7715,-0.7273,-0.7136,-0.7136,-0.7136,-0.7136,-0.7136,-0.7136,-0.7136,-0.7136,-0.7136,-0.7139,-0.7255,-0.7255,-0.7362,0.0,-0.7616,-0.767,-0.7726,-0.7845,-0.7904,-0.7904,-0.7904,-0.7904,-0.7904,-0.7904,-0.7904,-0.7904,-0.7904,-0.7904,-0.7904,-0.7904,-0.7904,-0.7904,-0.7904,-0.8058,-0.8315,-0.8043,-0.7992,-0.8254,-0.7971,-0.7802,-0.7809,-0.7792,-0.7849,-0.7849,-0.798,-0.7957,-0.7967,-0.8924,-0.9618,-0.9951,-1.0854,-1.1592,-1.187,-1.201,-1.1994,-1.1994,-1.2166,-1.2274,-1.2209,-1.2388,-1.245,-1.2362,-1.269,-1.3248,-1.4192,-1.5427,-1.6719,-1.8071,-1.9183,-2.0073,-2.0642,-2.1124,-2.1779,-2.2473,-2.2957,-2.3587,-2.4177,-2.4302,-2.4343,-2.4385,-2.4759,-2.5051,-2.5381,-2.5419,-2.5577,-2.5888,-2.6054,-2.625,-2.6404,-2.6646,-2.6534,-2.6754,-2.6713,-2.6442,-2.5883,-2.5079,-2.4303,-2.3553,-2.2843,-2.2386,-2.2319,-2.2319,-2.2319,-2.2319,-2.2319,-2.2319,-2.2319,-2.2319,-2.2319,-0.8347,-0.8301,-0.7954,-0.7871,-0.8012,-0.7486,-0.7206,-0.7085,-0.7136,-0.7136,-0.7136,-0.7136,-0.7136,-0.7136,-0.7195,-0.7198,-0.7195,-0.7362,-0.7416,-0.7521,-0.7619,-0.7729,-0.7785,-0.7848,-0.7904,-0.7904,-0.7904,-0.7904,-0.7904,-0.7904,-0.7904,-0.7904,-0.7904,-0.7904,-0.7904,-0.7904,-0.7904,-0.7904,-0.7904,-0.7955,-0.8159,-0.809,-0.8111,-0.8116,-0.8022,-0.7979,-0.7892,-0.8086,-0.81,-0.7892,-0.8233,-0.834,-0.8235,-0.9038,-0.973,-1.0218,-1.0953,-1.159,-1.2062,-1.2076,-1.2076,-1.2076,-1.2443,-1.2551,-1.2337,-1.2391,-1.2391,-1.2243,-1.2953,-1.3661,-1.4393,-1.5936,-1.7389,-1.8485,-1.9447,-2.0289,-2.0983,-2.1492,-2.2063,-2.274,-2.329,-2.3852,-2.45,-2.4614,-2.4719,-2.4942,-2.5291,-2.5697,-2.606,-2.6131,-2.6131,-2.6235,-2.6392,-2.6607,-2.6851,-2.6926,-2.6959,-2.6959,-2.6926,-2.674,-2.6306,-2.5393,-2.4481,-2.3985,-2.3088,-2.2412,-2.2319,-2.2319,-2.2319,-2.2319,-2.2319,-2.2319,-2.2319,-2.2319,-2.2319,-0.8514,-0.8471,-0.7997,-0.7841,-0.7939,-0.7523,-0.726,-0.709,-0.7136,-0.7136,-0.7136,-0.7136,-0.7136,-0.7136,-0.7198,-0.7198,-0.7195,-0.7359,-0.747,-0.7518,-0.7625,-0.7726,-0.7845,-0.7848,-0.7845,-0.7901,-0.7904,-0.7904,-0.7904,-0.7904,-0.7904,-0.7904,-0.7904,-0.7904,-0.7904,-0.7904,-0.7904,-0.7904,-0.7904,-0.7907,-0.7955,-0.8115,-0.8115,-0.8015,-0.8142,-0.814,-0.8097,-0.835,-0.8367,-0.8166,-0.8561,-0.8707,-0.8548,-0.9332,-0.9965,-1.0423,-1.1103,-1.1669,-1.2076,-1.2076,-1.2076,-1.2081,-1.2556,-1.2669,-1.2346,-1.2485,-1.2586,-1.2627,-1.3391,-1.4205,-1.5153,-1.6593,-1.795,-1.8839,-1.9674,-2.0547,-2.1361,-2.1915,-2.2466,-2.3106,-2.366,-2.4219,-2.4695,-2.4879,-2.502,-2.5419,-2.577,-2.6096,-2.6462,-2.6581,-2.6487,-2.6512,-2.6607,-2.6708,-2.6834,-2.6834,-2.6851,-2.6851,-2.6834,-2.6707,-2.6384,-2.5368,-2.4489,-2.4086,-2.3156,-2.2437,-2.2319,-2.2319,-2.2319,-2.2319,-2.2319,-2.2319,-2.2319,-2.2319,-2.2319,-0.8514,-0.8441,-0.8008,-0.755,-0.7233,-0.7157,-0.712,-0.7093,-0.7136,-0.7136,-0.7136,-0.7136,-0.7136,-0.7136,-0.7136,-0.7195,-0.7255,-0.7311,-0.7362,-0.7464,-0.7518,-0.7568,-0.7726,-0.7726,-0.7785,-0.7848,-0.7901,-0.7901,-0.7901,-0.7904,-0.7904,-0.7904,-0.7904,-0.7904,-0.7904,-0.7904,-0.7904,-0.7904,-0.7904,-0.7955,-0.8171,-0.8171,-0.8259,-0.8333,-0.8482,-0.8577,-0.8515,-0.8692,-0.8754,-0.8731,-0.8768,-0.8794,-0.8866,-0.9751,-1.0312,-1.047,-1.1405,-1.2076,-1.2076,-1.2076,-1.2076,-1.2081,-1.2262,-1.232,-1.2184,-1.2652,-1.315,-1.3576,-1.4057,-1.5097,-1.6808,-1.7867,-1.8787,-1.9585,-2.0408,-2.1082,-2.1554,-2.2203,-2.283,-2.3326,-2.3832,-2.4367,-2.4799,-2.5028,-2.5168,-2.5569,-2.5726,-2.5872,-2.6202,-2.6272,-2.6401,-2.6674,-2.6784,-2.67,-2.6742,-2.6742,-2.675,-2.6733,-2.6733,-2.6505,-2.5912,-2.5158,-2.4337,-2.3723,-2.2928,-2.2361,-2.2319,-2.2319,-2.2319,-2.2319,-2.2319,-2.2319,-2.2319,-2.2319,-2.2319,-0.8514,-0.8482,-0.8148,-0.7814,-0.751,-0.7365,-0.7303,-0.7234,-0.7147,-0.7136,-0.7136,-0.7136,-0.7136,-0.7136,-0.7195,-0.7198,-0.7195,-0.7362,-0.7422,-0.7416,-0.7467,-0.7515,-0.7566,-0.7566,-0.7625,-0.7681,-0.7735,-0.7785,-0.7785,-0.7845,-0.7904,-0.7904,-0.7904,-0.7904,-0.7904,-0.7904,-0.7904,-0.7904,-0.7904,-0.7958,-0.8011,-0.8112,-0.8218,-0.8271,-0.8424,-0.8477,-0.8471,-0.8533,-0.859,-0.8685,-0.8689,-0.8745,-0.8808,-0.9506,-1.0064,-1.0419,-1.1447,-1.2076,-1.2076,-1.2076,-1.2076,-1.2076,-1.2393,-1.2457,-1.2184,-1.2886,-1.3567,-1.4137,-1.4835,-1.5747,-1.6879,-1.8181,-1.9265,-1.9664,-2.0429,-2.1124,-2.1458,-2.2203,-2.2868,-2.3223,-2.3832,-2.4475,-2.5168,-2.5689,-2.5988,-2.6167,-2.6202,-2.6245,-2.6436,-2.647,-2.6547,-2.6716,-2.6742,-2.675,-2.6784,-2.6733,-2.67,-2.67,-2.67,-2.6437,-2.5693,-2.4983,-2.4277,-2.3503,-2.2792,-2.2344,-2.2319,-2.2319,-2.2319,-2.2319,-2.2319,-2.2319,-2.2319,-2.2319,-2.2319,-0.8514,-0.8474,-0.8316,-0.7976,-0.7696,-0.7466,-0.7357,-0.7279,-0.7157,-0.7136,-0.7136,-0.7136,-0.7136,-0.7136,-0.7198,-0.7195,-0.7136,-0.7303,-0.7357,-0.7255,-0.7357,-0.7413,-0.747,-0.7473,-0.7467,-0.7518,-0.7566,-0.7673,-0.767,-0.7732,-0.7791,-0.7845,-0.7845,-0.7848,-0.7904,-0.7904,-0.7904,-0.7904,-0.7904,-0.7904,-0.7901,-0.8062,-0.8112,-0.8118,-0.8265,-0.8321,-0.8371,-0.8378,-0.8424,-0.8524,-0.8527,-0.8682,-0.8959,-0.9462,-1.0119,-1.083,-1.1606,-1.2076,-1.2076,-1.2076,-1.2076,-1.2135,-1.2452,-1.2497,-1.249,-1.3095,-1.3884,-1.4593,-1.5411,-1.6126,-1.7023,-1.8191,-1.9064,-1.9536,-2.0369,-2.0937,-2.1431,-2.2196,-2.2823,-2.3179,-2.3789,-2.4556,-2.5351,-2.6024,-2.6436,-2.6615,-2.6666,-2.67,-2.67,-2.67,-2.67,-2.67,-2.67,-2.6733,-2.6825,-2.6775,-2.67,-2.6623,-2.6564,-2.6074,-2.5423,-2.4701,-2.3934,-2.3038,-2.2581,-2.2369,-2.2327,-2.2319,-2.2319,-2.2319,-2.2319,-2.2319,-2.2319,-2.2319,-2.2319,-0.8514,-0.8482,-0.8248,-0.7908,-0.7421,-0.7415,-0.7274,-0.7171,-0.7106,-0.709,-0.7085,-0.7136,-0.7136,-0.7136,-0.7136,-0.7136,-0.7136,-0.7136,-0.7139,-0.7136,-0.7139,-0.7195,-0.7311,-0.7311,-0.7365,-0.7467,-0.7521,-0.7521,-0.7518,-0.7521,-0.7568,-0.7726,-0.7726,-0.7783,-0.7901,-0.7901,-0.7904,-0.7904,-0.7904,-0.7904,-0.7904,-0.7904,-0.7955,-0.7958,-0.8115,-0.8218,-0.8215,-0.8321,-0.8421,-0.8424,-0.8424,-0.8682,-0.9309,-0.9913,-1.0732,-1.1819,-1.2026,-1.2076,-1.2076,-1.2076,-1.2076,-1.2076,-1.2139,-1.2314,-1.2681,-1.3276,-1.3999,-1.4952,-1.5471,-1.6339,-1.7514,-1.7949,-1.8604,-1.9687,-2.009,-2.0704,-2.1465,-2.2203,-2.2785,-2.3179,-2.3782,-2.4533,-2.5389,-2.5807,-2.6262,-2.6556,-2.67,-2.67,-2.67,-2.67,-2.67,-2.67,-2.67,-2.67,-2.6691,-2.6691,-2.67,-2.6497,-2.6031,-2.5439,-2.467,-2.3964,-2.3241,-2.2699,-2.2462,-2.2336,-2.2327,-2.2319,-2.2319,-2.2319,-2.231,-2.231,-2.2394,-2.2319,-2.2319,-0.812,-0.8425,-0.8001,-0.7889,-0.8102,-0.7812,-0.762,-0.7529,-0.7378,-0.7227,-0.7101,-0.7136,-0.7136,-0.7136,-0.7136,-0.7136,-0.7136,-0.7136,-0.7136,-0.7136,-0.7136,-0.7136,-0.7195,-0.7195,-0.7195,-0.7249,-0.7306,-0.7416,-0.7518,-0.7521,-0.7518,-0.7568,-0.767,-0.7726,-0.7785,-0.7845,-0.7904,-0.7904,-0.7904,-0.7904,-0.7904,-0.7904,-0.7904,-0.7904,-0.7952,-0.8005,-0.8011,-0.8055,-0.8109,-0.8268,-0.8374,-0.8685,-0.9413,-1.0387,-1.1255,-1.1972,-1.2076,-1.2076,-1.2076,-1.2076,-1.2076,-1.2076,-1.2076,-1.2304,-1.2769,-1.3314,-1.3878,-1.4586,-1.5111,-1.589,-1.6956,-1.779,-1.8542,-1.9071,-2.007,-2.0773,-2.1155,-2.2016,-2.2701,-2.2815,-2.3643,-2.4664,-2.5176,-2.5631,-2.6049,-2.6512,-2.6632,-2.6649,-2.67,-2.67,-2.67,-2.67,-2.67,-2.67,-2.67,-2.67,-2.659,-2.6133,-2.5634,-2.4932,-2.4218,-2.3697,-2.3071,-2.2609,-2.2372,-2.2338,-2.2338,-2.2413,-2.2413,-2.2487,-2.246,-2.2405,-2.2506,-2.2386,-2.2319,-0.7328,-0.7832,-0.7506,-0.7678,-0.8162,-0.7872,-0.7706,-0.7693,-0.7538,-0.737,-0.7233,-0.7203,-0.7206,-0.7187,-0.7122,-0.7136,-0.7136,-0.7136,-0.7136,-0.7136,-0.7136,-0.7136,-0.7136,-0.7136,-0.7136,-0.7136,-0.7195,-0.7306,-0.7357,-0.7357,-0.7413,-0.7464,-0.7515,-0.7566,-0.7619,-0.7735,-0.7791,-0.7842,-0.7845,-0.7845,-0.7901,-0.7904,-0.7904,-0.7904,-0.7904,-0.7904,-0.7904,-0.7904,-0.7952,-0.8115,-0.8421,-0.8984,-0.9865,-1.0952,-1.1723,-1.2026,-1.2076,-1.2076,-1.2076,-1.2076,-1.2076,-1.2076,-1.2126,-1.2358,-1.2967,-1.342,-1.3905,-1.4529,-1.5072,-1.5711,-1.6448,-1.7699,-1.8634,-1.8939,-1.9885,-2.0664,-2.0766,-2.1759,-2.2498,-2.295,-2.3658,-2.4461,-2.5036,-2.5414,-2.5868,-2.6382,-2.6529,-2.6649,-2.6708,-2.67,-2.67,-2.67,-2.67,-2.67,-2.659,-2.6454,-2.6251,-2.5812,-2.5211,-2.4515,-2.3875,-2.3397,-2.3028,-2.2589,-2.2394,-2.2386,-2.2405,-2.2506,-2.2587,-2.2685,-2.2614,-2.2533,-2.2487,-2.2386,-2.231,-0.6203,-0.6673,-0.6669,-0.7023,-0.7538,-0.7554,-0.7479,-0.7491,-0.7661,-0.761,-0.7407,-0.7386,-0.7354,-0.733,-0.7182,-0.7136,-0.7136,-0.7136,-0.7136,-0.7136,-0.7136,-0.7136,-0.7136,-0.7136,-0.7136,-0.7136,-0.7136,-0.7136,-0.7136,-0.7136,-0.7195,-0.7257,-0.7311,-0.7416,-0.7521,-0.7518,-0.7568,-0.7676,-0.7673,-0.7785,-0.7901,-0.7901,-0.7901,-0.7901,-0.7901,-0.7904,-0.7904,-0.7904,-0.7904,-0.8005,-0.8573,-0.9644,-1.072,-1.1551,-1.2017,-1.2071,-1.2076,-1.2076,-1.2076,-1.2076,-1.2076,-1.2076,-1.2076,-1.2505,-1.3218,-1.3568,-1.401,-1.4872,-1.5468,-1.5929,-1.6263,-1.7616,-1.8744,-1.9288,-1.976,-2.026,-2.0752,-2.1534,-2.2551,-2.3421,-2.3867,-2.4105,-2.4671,-2.5114,-2.5572,-2.6041,-2.6375,-2.664,-2.67,-2.67,-2.67,-2.67,-2.67,-2.67,-2.6437,-2.6133,-2.5828,-2.5465,-2.4828,-2.4133,-2.3547,-2.302,-2.2871,-2.2515,-2.255,-2.2542,-2.265,-2.2729,-2.2756,-2.2808,-2.2703,-2.2543,-2.2426,-2.2352,-2.2229,-0.5345,-0.6073,-0.5807,-0.6242,-0.6914,-0.6974,-0.714,-0.753,-0.7655,-0.7667,-0.7635,-0.7464,-0.7394,-0.7341,-0.7195,-0.7136,-0.7136,-0.7136,-0.7136,-0.7136,-0.7136,-0.7136,-0.7136,-0.7136,-0.7136,-0.7136,-0.7136,-0.7136,-0.7136,-0.7136,-0.7136,-0.7195,-0.7255,-0.7311,-0.7365,-0.7467,-0.7518,-0.7568,-0.7574,-0.7574,-0.7628,-0.7732,-0.7783,-0.7785,-0.7845,-0.7904,-0.7904,-0.7904,-0.7904,-0.7904,-0.8633,-0.9614,-1.085,-1.1368,-1.1728,-1.2026,-1.2076,-1.2076,-1.2076,-1.2076,-1.2076,-1.2076,-1.2076,-1.2398,-1.3001,-1.3404,-1.4021,-1.4982,-1.5601,-1.6118,-1.6941,-1.7891,-1.8689,-1.8818,-1.9779,-2.0463,-2.0782,-2.1534,-2.2543,-2.3559,-2.3789,-2.4086,-2.45,-2.4807,-2.5192,-2.5832,-2.6129,-2.633,-2.6598,-2.6666,-2.67,-2.67,-2.67,-2.6598,-2.6294,-2.5821,-2.5314,-2.4892,-2.4306,-2.3795,-2.3193,-2.2803,-2.2636,-2.2587,-2.2614,-2.2685,-2.2825,-2.2893,-2.2884,-2.2816,-2.2668,-2.2517,-2.2383,-2.2262,-2.2147,-0.442,-0.5148,-0.5145,-0.5609,-0.6476,-0.6675,-0.7026,-0.7375,-0.7553,-0.7589,-0.7675,-0.7446,-0.7462,-0.745,-0.7235,-0.7141,-0.7136,-0.7136,-0.7136,-0.7136,-0.7136,-0.7136,-0.7136,-0.7136,-0.7136,-0.7136,-0.7136,-0.7136,-0.7136,-0.7136,-0.7136,-0.7136,-0.7195,-0.7252,-0.7255,-0.7306,-0.7357,-0.7413,-0.7413,-0.7467,-0.7515,-0.7568,-0.7619,-0.7726,-0.7785,-0.7845,-0.7901,-0.7904,-0.8002,-0.8318,-0.889,-0.9769,-1.0596,-1.0799,-1.115,-1.1551,-1.176,-1.1868,-1.2026,-1.2076,-1.2076,-1.2076,-1.2076,-1.2304,-1.2759,-1.316,-1.3781,-1.4946,-1.5564,-1.6304,-1.73,-1.8346,-1.8823,-1.8943,-1.9958,-2.0828,-2.116,-2.1711,-2.2536,-2.3414,-2.3754,-2.4002,-2.4204,-2.4525,-2.4759,-2.5384,-2.5729,-2.6002,-2.634,-2.6487,-2.6572,-2.6615,-2.6623,-2.6446,-2.6143,-2.5569,-2.4852,-2.4318,-2.3752,-2.3348,-2.2848,-2.2639,-2.246,-2.2506,-2.2533,-2.2624,-2.2738,-2.2807,-2.2849,-2.2738,-2.2571,-2.2419,-2.2265,-2.2124,-2.2036,-0.3493,-0.4028,-0.4554,-0.5281,-0.6079,-0.6546,-0.6847,-0.7105,-0.7364,-0.7466,-0.7529,-0.7436,-0.7496,-0.7573,-0.7271,-0.713,-0.7087,-0.7136,-0.7136,-0.7136,-0.7136,-0.7136,-0.7136,-0.7136,-0.7136,-0.7136,-0.7136,-0.7136,-0.7136,-0.7136,-0.7136,-0.7136,-0.7136,-0.7136,-0.7139,-0.7136,-0.7192,-0.7255,-0.7311,-0.7365,-0.7467,-0.7467,-0.7518,-0.7619,-0.7676,-0.7732,-0.7845,-0.8005,-0.8262,-0.8778,-0.9242,-0.9662,-0.9969,-1.0119,-1.0419,-1.0969,-1.1154,-1.1569,-1.1923,-1.2081,-1.2076,-1.2076,-1.2126,-1.2264,-1.2633,-1.2827,-1.3481,-1.4822,-1.5532,-1.6338,-1.7416,-1.8574,-1.9239,-1.949,-2.0066,-2.0879,-2.1777,-2.193,-2.2379,-2.3208,-2.3643,-2.3832,-2.3917,-2.4279,-2.451,-2.4776,-2.5275,-2.5594,-2.5823,-2.6057,-2.6355,-2.6392,-2.6308,-2.6126,-2.5798,-2.4886,-2.425,-2.3912,-2.3355,-2.2917,-2.2666,-2.2509,-2.2462,-2.2508,-2.2462,-2.2553,-2.2634,-2.2738,-2.2669,-2.2493,-2.2366,-2.2256,-2.2124,-2.199,-2.194,-0.3494,-0.4028,-0.4159,-0.4823,-0.5681,-0.5879,-0.632,-0.6939,-0.6981,-0.723,-0.7462,-0.7541,-0.7466,-0.7411,-0.7374,-0.7262,-0.7133,-0.7085,-0.7136,-0.7136,-0.7136,-0.7136,-0.7136,-0.7136,-0.7136,-0.7136,-0.7136,-0.7136,-0.7136,-0.7136,-0.7136,-0.7136,-0.7136,-0.7136,-0.7136,-0.7136,-0.7136,-0.7139,-0.7139,-0.7195,-0.7192,-0.7308,-0.7365,-0.7416,-0.7521,-0.7625,-0.7783,-0.8309,-0.8626,-0.8778,-0.8732,-0.9201,-0.981,-0.9817,-0.9965,-1.047,-1.0998,-1.1318,-1.1528,-1.1877,-1.2076,-1.2076,-1.2076,-1.2126,-1.2264,-1.2633,-1.338,-1.444,-1.538,-1.6395,-1.7662,-1.8736,-1.9387,-1.9701,-1.9837,-2.0258,-2.0831,-2.1279,-2.1819,-2.2489,-2.3275,-2.3699,-2.3925,-2.4051,-2.4245,-2.4502,-2.4776,-2.5059,-2.5321,-2.5464,-2.5696,-2.5837,-2.5775,-2.5648,-2.5236,-2.4312,-2.3676,-2.3456,-2.3046,-2.2564,-2.2445,-2.2447,-2.2526,-2.266,-2.249,-2.2482,-2.2599,-2.2704,-2.2511,-2.2239,-2.2211,-2.2116,-2.1969,-2.184,-2.184,-0.336,-0.3695,-0.3894,-0.4359,-0.4953,-0.5418,-0.5881,-0.6348,-0.6613,-0.6878,-0.7158,-0.7178,-0.7207,-0.7189,-0.7188,-0.7094,-0.7018,-0.7076,-0.7136,-0.7136,-0.7136,-0.7136,-0.7136,-0.7136,-0.7136,-0.7136,-0.7136,-0.7136,-0.7136,-0.7136,-0.7136,-0.7136,-0.7136,-0.7136,-0.7136,-0.7136,-0.7136,-0.7136,-0.7136,-0.7136,-0.7136,-0.7195,-0.7306,-0.7362,-0.747,-0.7574,-0.7833,-0.8206,-0.8415,-0.8418,-0.8524,-0.8781,-0.9141,-0.9197,-0.935,-0.9961,-1.0584,-1.1006,-1.1372,-1.1773,-1.2076,-1.2076,-1.2076,-1.2076,-1.217,-1.2545,-1.3243,-1.4296,-1.5157,-1.6215,-1.7467,-1.8448,-1.9049,-1.927,-1.9224,-1.941,-2.0055,-2.0615,-2.1239,-2.201,-2.279,-2.3476,-2.3779,-2.3817,-2.3929,-2.4139,-2.4372,-2.4615,-2.4831,-2.4898,-2.4967,-2.5061,-2.4923,-2.4663,-2.4468,-2.3728,-2.319,-2.2946,-2.2768,-2.2271,-2.2274,-2.233,-2.2371,-2.2429,-2.2392,-2.2392,-2.2429,-2.2385,-2.22,-2.201,-2.2031,-2.1982,-2.1861,-2.1789,-2.1789,-0.3227,-0.3358,-0.3829,-0.4029,-0.4292,-0.5084,-0.5481,-0.5617,-0.5951,-0.6346,-0.651,-0.6497,-0.6606,-0.6943,-0.6802,-0.6812,-0.6857,-0.6962,-0.7074,-0.7098,-0.7031,-0.7028,-0.7136,-0.7136,-0.7136,-0.7136,-0.7136,-0.7136,-0.7136,-0.7136,-0.7136,-0.7136,-0.7136,-0.7136,-0.7136,-0.7136,-0.7136,-0.7136,-0.7136,-0.7136,-0.7136,-0.7139,-0.7249,-0.7413,-0.7518,-0.7628,-0.7791,-0.7952,-0.7955,-0.7901,-0.8418,-0.8524,-0.8325,-0.8374,-0.8788,-0.9409,-1.0072,-1.0635,-1.1217,-1.1723,-1.2026,-1.2031,-1.2022,-1.2076,-1.2121,-1.2452,-1.3115,-1.3998,-1.473,-1.5719,-1.7077,-1.7895,-1.8374,-1.8643,-1.8369,-1.8623,-1.9239,-1.9889,-2.0607,-2.1599,-2.2152,-2.282,-2.3191,-2.3408,-2.3383,-2.3126,-2.3407,-2.3546,-2.3677,-2.3763,-2.4021,-2.4324,-2.4012,-2.3572,-2.3375,-2.3147,-2.2757,-2.2458,-2.237,-2.2135,-2.2115,-2.2143,-2.2077,-2.2089,-2.213,-2.2093,-2.2027,-2.194,-2.1861,-2.1861,-2.1911,-2.1861,-2.1789,-2.1789,-2.1789,-0.3426,-0.3828,-0.3961,-0.4224,-0.4619,-0.4882,-0.4946,-0.5014,-0.5084,-0.5276,-0.5333,-0.5498,-0.5811,-0.6144,-0.6386,-0.6478,-0.662,-0.6795,-0.6993,-0.7093,-0.6866,-0.692,-0.7028,-0.7082,-0.7085,-0.7085,-0.7136,-0.7136,-0.7136,-0.7136,-0.7136,-0.7136,-0.7136,-0.7082,-0.7085,-0.7082,-0.7136,-0.7082,-0.7079,-0.7136,-0.7136,-0.7136,-0.7195,-0.7362,-0.7571,-0.7673,-0.7732,-0.7845,-0.7904,-0.7955,-0.8165,-0.8321,-0.8221,-0.8371,-0.8685,-0.9256,-0.9817,-1.0379,-1.0964,-1.1473,-1.1778,-1.1823,-1.1819,-1.1773,-1.1828,-1.222,-1.2686,-1.3332,-1.406,-1.5301,-1.6828,-1.7635,-1.7924,-1.7933,-1.7937,-1.7824,-1.7827,-1.8775,-1.9655,-2.0178,-2.1156,-2.1964,-2.2113,-2.2241,-2.2218,-2.2169,-2.2232,-2.2297,-2.2483,-2.2748,-2.2977,-2.3354,-2.3093,-2.2703,-2.287,-2.2756,-2.253,-2.2224,-2.2119,-2.2061,-2.2049,-2.1982,-2.1966,-2.1907,-2.1886,-2.1819,-2.1811,-2.1811,-2.1811,-2.1781,-2.1789,-2.1759,-2.1759,-2.1759,-2.1789,-0.3292,-0.3423,-0.3559,-0.3825,-0.4088,-0.4356,-0.4421,-0.4488,-0.4684,-0.4913,-0.5078,-0.5373,-0.5656,-0.5953,-0.6241,-0.6379,-0.6436,-0.6511,-0.6596,-0.666,-0.6537,-0.6539,-0.6642,-0.6701,-0.6812,-0.7028,-0.7136,-0.7136,-0.7136,-0.7082,-0.7136,-0.7136,-0.7082,-0.7025,-0.6977,-0.7031,-0.7028,-0.6972,-0.7025,-0.7136,-0.7136,-0.7136,-0.7192,-0.7359,-0.7568,-0.7726,-0.7785,-0.7845,-0.7904,-0.7898,-0.8008,-0.8115,-0.8275,-0.848,-0.8847,-0.9208,-1.0032,-1.0494,-1.0964,-1.1372,-1.1719,-1.1673,-1.1669,-1.1819,-1.2017,-1.2363,-1.2793,-1.3311,-1.4063,-1.5045,-1.6361,-1.6895,-1.713,-1.7464,-1.7534,-1.7391,-1.7336,-1.801,-1.8898,-1.9359,-2.0346,-2.1104,-2.1451,-2.1438,-2.1627,-2.1832,-2.1886,-2.1943,-2.1892,-2.2057,-2.2034,-2.2157,-2.2009,-2.1994,-2.2294,-2.2354,-2.2299,-2.2148,-2.2057,-2.1995,-2.1966,-2.1899,-2.1832,-2.1811,-2.1819,-2.1759,-2.1751,-2.1751,-2.173,-2.1708,-2.1686,-2.1716,-2.1738,-2.1746,-2.1768,-0.2956,-0.2753,-0.3091,-0.3227,-0.3293,-0.3693,-0.3894,-0.3957,-0.4334,-0.4592,-0.4972,-0.5187,-0.5172,-0.5714,-0.577,-0.588,-0.598,-0.5804,-0.5727,-0.5939,-0.5825,-0.5882,-0.5989,-0.6098,-0.6315,-0.6858,-0.6864,-0.6918,-0.6974,-0.6974,-0.692,-0.6974,-0.6972,-0.6753,-0.6701,-0.6812,-0.681,-0.6647,-0.6807,-0.6918,-0.7028,-0.7028,-0.7141,-0.7413,-0.7568,-0.7729,-0.7785,-0.7845,-0.7901,-0.7904,-0.7904,-0.8008,-0.8218,-0.8639,-0.9162,-0.9364,-1.0293,-1.0761,-1.1019,-1.1372,-1.1623,-1.1628,-1.1623,-1.1773,-1.2121,-1.2452,-1.2885,-1.342,-1.4021,-1.4677,-1.5585,-1.6021,-1.6442,-1.6901,-1.7093,-1.7157,-1.7205,-1.7488,-1.816,-1.8856,-1.9559,-2.0248,-2.0754,-2.0966,-2.1214,-2.1449,-2.1481,-2.1482,-2.1393,-2.1364,-2.1329,-2.1482,-2.1487,-2.1694,-2.1991,-2.2073,-2.2016,-2.1961,-2.1907,-2.1811,-2.1781,-2.1691,-2.1631,-2.1781,-2.1789,-2.1759,-2.173,-2.1759,-2.1708,-2.1634,-2.1634,-2.1686,-2.1686,-2.1694,-2.1716,-0.2753,-0.2686,-0.3024,-0.3227,-0.3227,-0.3294,-0.3361,-0.3345,-0.3414,-0.3426,-0.3529,-0.3531,-0.3881,-0.4198,-0.4256,-0.4478,-0.4926,-0.4813,-0.4789,-0.5062,-0.5007,-0.4954,-0.5283,-0.555,-0.5764,-0.5873,-0.6152,-0.6485,-0.6647,-0.6534,-0.6593,-0.6645,-0.6537,-0.6317,-0.6317,-0.6315,-0.6372,-0.632,-0.6426,-0.6537,-0.6701,-0.6812,-0.6925,-0.7255,-0.741,-0.7622,-0.7726,-0.7729,-0.7785,-0.7901,-0.7904,-0.7952,-0.8109,-0.8577,-0.9201,-0.9829,-1.0237,-1.0604,-1.0964,-1.1217,-1.1368,-1.1372,-1.1372,-1.1473,-1.1719,-1.2062,-1.2594,-1.3122,-1.371,-1.4378,-1.5102,-1.5445,-1.5762,-1.6262,-1.6784,-1.6954,-1.6924,-1.7141,-1.7515,-1.8079,-1.8753,-1.9362,-1.9814,-2.015,-2.0339,-2.0467,-2.052,-2.052,-2.0467,-2.0565,-2.0655,-2.0899,-2.1199,-2.1474,-2.1801,-2.1809,-2.1789,-2.173,-2.1661,-2.1501,-2.1448,-2.1402,-2.1442,-2.144,-2.1623,-2.173,-2.173,-2.1738,-2.1708,-2.1625,-2.1625,-2.1648,-2.1656,-2.1625,-2.1642,-0.2016,-0.2149,-0.2687,-0.2956,-0.2957,-0.3159,-0.3227,-0.3222,-0.318,-0.3233,-0.3357,-0.3453,-0.3703,-0.3988,-0.4076,-0.4238,-0.4178,-0.4115,-0.4187,-0.4406,-0.4298,-0.4465,-0.4739,-0.5066,-0.5287,-0.5452,-0.5675,-0.5998,-0.6376,-0.6317,-0.6263,-0.6374,-0.6263,-0.6157,-0.605,-0.6159,-0.6048,-0.605,-0.6105,-0.6263,-0.6431,-0.6593,-0.6761,-0.6815,-0.7198,-0.7464,-0.7571,-0.7622,-0.7625,-0.7684,-0.7687,-0.7892,-0.8209,-0.8524,-0.8935,-0.9514,-0.9825,-1.0083,-1.0446,-1.0651,-1.0812,-1.0858,-1.1116,-1.1418,-1.1673,-1.1972,-1.2309,-1.288,-1.3213,-1.3836,-1.4703,-1.5073,-1.5567,-1.6058,-1.6637,-1.6833,-1.6888,-1.6967,-1.7164,-1.7393,-1.7976,-1.8534,-1.8886,-1.9194,-1.9369,-1.9472,-1.9581,-1.9661,-1.9697,-1.9889,-2.0181,-2.0429,-2.0786,-2.1103,-2.137,-2.1401,-2.1424,-2.1401,-2.1308,-2.1182,-2.1047,-2.0966,-2.0926,-2.0942,-2.1197,-2.1501,-2.1656,-2.1634,-2.1625,-2.1587,-2.1548,-2.1518,-2.1556,-2.1556,-2.1573,-0.1479,-0.1681,-0.2284,-0.2619,-0.2753,-0.2957,-0.3092,-0.3088,-0.3135,-0.3244,-0.3434,-0.3565,-0.3737,-0.3904,-0.3951,-0.3893,-0.3747,-0.3688,-0.3691,-0.3747,-0.3856,-0.4135,-0.4354,-0.4689,-0.4912,-0.5128,-0.5187,-0.5513,-0.6,-0.5996,-0.6048,-0.605,-0.6105,-0.5946,-0.5791,-0.5727,-0.5729,-0.5673,-0.5673,-0.5773,-0.6048,-0.6376,-0.6482,-0.6265,-0.6761,-0.7144,-0.7306,-0.7359,-0.741,-0.7521,-0.7574,-0.7783,-0.8259,-0.8365,-0.8412,-0.8616,-0.9201,-0.9514,-0.9769,-1.0186,-1.0506,-1.0506,-1.1015,-1.1423,-1.1719,-1.1963,-1.23,-1.2822,-1.3112,-1.3632,-1.4566,-1.5022,-1.5517,-1.6058,-1.6565,-1.6888,-1.6882,-1.6882,-1.6931,-1.7164,-1.7447,-1.7754,-1.8187,-1.8784,-1.9094,-1.9206,-1.9354,-1.9516,-1.9596,-1.9718,-1.9917,-2.0093,-2.0361,-2.0697,-2.091,-2.0942,-2.0942,-2.0942,-2.0878,-2.0747,-2.0581,-2.0447,-2.0465,-2.0499,-2.0812,-2.1119,-2.1309,-2.1559,-2.1581,-2.1534,-2.1456,-2.1425,-2.1456,-2.1495,-2.1472,-0.1546,-0.1614,-0.2085,-0.242,-0.2619,-0.2686,-0.2754,-0.2813,-0.2955,-0.2972,-0.2738,-0.287,-0.2981,-0.304,-0.3022,-0.293,-0.2916,-0.2912,-0.2913,-0.2968,-0.3188,-0.3411,-0.3688,-0.441,-0.4522,-0.4686,-0.4743,-0.5187,-0.5515,-0.551,-0.5567,-0.5677,-0.5513,-0.5352,-0.524,-0.5071,-0.4853,-0.4798,-0.452,-0.4629,-0.5232,-0.5884,-0.6159,-0.6209,-0.6317,-0.6596,-0.6925,-0.6982,-0.709,-0.7357,-0.7461,-0.7515,-0.7625,-0.7628,-0.7622,-0.804,-0.8722,-0.9618,-0.9558,-0.998,-1.0348,-1.045,-1.0913,-1.1322,-1.1565,-1.195,-1.2384,-1.2914,-1.3122,-1.3695,-1.4531,-1.5079,-1.5585,-1.5994,-1.6436,-1.6669,-1.6754,-1.6705,-1.6754,-1.6797,-1.7031,-1.7234,-1.7509,-1.8233,-1.8867,-1.8981,-1.9131,-1.9295,-1.9487,-1.9617,-1.9803,-1.9972,-1.9987,-2.0285,-2.0345,-2.0413,-2.0413,-2.0447,-2.0345,-2.0277,-2.0104,-1.9957,-1.9984,-2.0089,-2.0405,-2.0648,-2.0853,-2.1095,-2.1411,-2.1481,-2.134,-2.1332,-2.1394,-2.1394,-2.1269,-0.1075,-0.1344,-0.1748,-0.195,-0.2084,-0.2285,-0.242,-0.2415,-0.2524,-0.2486,-0.2309,-0.2469,-0.2613,-0.2705,-0.2702,-0.2579,-0.2465,-0.241,-0.2353,-0.224,-0.2462,-0.2685,-0.2904,-0.3293,-0.357,-0.4073,-0.413,-0.4241,-0.4684,-0.4908,-0.4963,-0.4796,-0.4908,-0.48,-0.4688,-0.4413,-0.4354,-0.4354,-0.4358,-0.441,-0.4739,-0.5399,-0.5839,-0.5611,-0.5937,-0.6268,-0.6433,-0.649,-0.6542,-0.6756,-0.6756,-0.6923,-0.709,-0.7201,-0.7249,-0.7568,-0.8262,-0.8742,-0.8844,-0.9465,-0.9877,-1.0336,-1.0804,-1.1326,-1.1414,-1.1606,-1.2053,-1.2652,-1.2706,-1.3276,-1.4077,-1.449,-1.5,-1.5496,-1.6032,-1.6349,-1.6485,-1.6534,-1.6577,-1.6577,-1.6577,-1.6784,-1.6983,-1.7509,-1.814,-1.8408,-1.8686,-1.9011,-1.9258,-1.9457,-1.9667,-1.9907,-1.9866,-1.9854,-1.9811,-1.9811,-1.9811,-1.9803,-1.9767,-1.966,-1.9588,-1.9515,-1.9536,-1.9573,-1.9788,-2.0062,-2.0322,-2.0804,-2.1222,-2.1238,-2.1222,-2.1103,-2.0942,-2.0804,-2.0665,-0.0333,-0.0933,-0.1341,-0.1541,-0.1599,-0.1944,-0.201,-0.2064,-0.2213,-0.2127,-0.201,-0.2254,-0.244,-0.2494,-0.2467,-0.2353,-0.2128,-0.2128,-0.1959,-0.1847,-0.1958,-0.2235,-0.2568,-0.2734,-0.3012,-0.3457,-0.3347,-0.3515,-0.3795,-0.4019,-0.4075,-0.3965,-0.441,-0.4356,-0.4079,-0.3913,-0.3858,-0.3913,-0.4304,-0.4413,-0.4467,-0.513,-0.5293,-0.5344,-0.5561,-0.5941,-0.5939,-0.6052,-0.6109,-0.6265,-0.632,-0.6485,-0.6655,-0.6709,-0.6812,-0.7079,-0.7506,-0.7723,-0.8146,-0.8774,-0.9454,-1.002,-1.0541,-1.1023,-1.1074,-1.1124,-1.1322,-1.2013,-1.2224,-1.2652,-1.3362,-1.3925,-1.449,-1.4943,-1.535,-1.5756,-1.6113,-1.6163,-1.6306,-1.6405,-1.6368,-1.6324,-1.6571,-1.6899,-1.729,-1.772,-1.8166,-1.8616,-1.886,-1.9064,-1.9258,-1.9419,-1.9442,-1.9406,-1.9501,-1.9435,-1.9369,-1.9295,-1.9213,-1.9169,-1.9199,-1.9124,-1.9124,-1.9199,-1.9266,-1.9544,-1.9914,-2.0457,-2.0967,-2.0772,-2.0581,-2.0514,-2.0364,-2.0219,-2.0074,0.0517,-0.0519,-0.0931,-0.1323,-0.1556,-0.1597,-0.1655,-0.1692,-0.1995,-0.1942,-0.1784,-0.209,-0.2154,-0.205,-0.2138,-0.2079,-0.1791,-0.1847,-0.1735,-0.1901,-0.2178,-0.2235,-0.2345,-0.2565,-0.2899,-0.2954,-0.2735,-0.2737,-0.296,-0.3128,-0.3462,-0.3912,-0.3967,-0.4022,-0.3801,-0.3412,-0.3299,-0.3411,-0.3799,-0.4192,-0.4356,-0.4796,-0.4904,-0.4853,-0.5077,-0.5297,-0.5181,-0.5513,-0.5784,-0.5991,-0.6048,-0.6159,-0.6273,-0.6273,-0.6376,-0.6534,-0.6696,-0.6964,-0.7388,-0.8448,-0.9406,-0.9773,-1.0194,-1.0616,-1.0557,-1.0565,-1.0816,-1.1309,-1.1769,-1.2393,-1.3097,-1.3711,-1.4113,-1.4571,-1.4932,-1.5248,-1.5611,-1.575,-1.5894,-1.6138,-1.615,-1.6106,-1.61,-1.6429,-1.6808,-1.7236,-1.7673,-1.812,-1.8133,-1.8291,-1.8511,-1.8712,-1.8833,-1.8975,-1.928,-1.925,-1.9131,-1.9056,-1.8974,-1.8936,-1.8891,-1.8867,-1.8882,-1.8853,-1.8952,-1.9214,-1.9361,-1.9557,-1.9748,-1.9919,-1.9934,-1.9821,-1.9715,-1.9571,-1.9471,0.1237,0.0595,-0.0258,-0.0834,-0.1225,-0.1217,-0.1219,-0.1228,-0.1372,-0.1509,-0.157,-0.1723,-0.1837,-0.1812,-0.1843,-0.1767,-0.1518,-0.1457,-0.1401,-0.1344,-0.14,-0.1511,-0.1566,-0.1733,-0.1789,-0.1957,-0.1847,-0.1903,-0.2181,-0.2348,-0.2404,-0.2796,-0.3298,-0.3187,-0.2964,-0.2741,-0.2572,-0.2627,-0.2905,-0.3239,-0.3404,-0.3904,-0.4125,-0.4072,-0.4298,-0.4465,-0.452,-0.4851,-0.5124,-0.5344,-0.5565,-0.5784,-0.5948,-0.5948,-0.5998,-0.6154,-0.6315,-0.6586,-0.6851,-0.7859,-0.8652,-0.9451,-0.998,-1.0356,-1.0142,-1.0304,-1.0867,-1.1368,-1.1669,-1.2246,-1.3059,-1.3367,-1.3621,-1.4107,-1.4514,-1.4789,-1.5062,-1.5248,-1.5579,-1.5869,-1.5919,-1.5925,-1.5919,-1.5957,-1.6337,-1.6752,-1.7188,-1.751,-1.7558,-1.7693,-1.7954,-1.8302,-1.8496,-1.8581,-1.8846,-1.8891,-1.8936,-1.8815,-1.87,-1.8609,-1.8532,-1.8736,-1.8743,-1.8669,-1.8433,-1.8373,-1.8366,-1.8412,-1.8674,-1.9111,-1.9229,-1.9155,-1.9014,-1.8916,-1.8772,0.166,0.1171,0.0431,-0.0247,-0.0706,-0.0947,-0.1008,-0.1021,-0.1041,-0.1162,-0.1336,-0.1449,-0.1466,-0.1525,-0.162,-0.149,-0.1238,-0.1178,-0.1066,-0.1009,-0.0953,-0.0897,-0.0897,-0.0953,-0.1177,-0.1178,-0.1234,-0.1345,-0.1681,-0.1849,-0.196,-0.2126,-0.246,-0.2461,-0.2294,-0.2015,-0.1958,-0.2124,-0.2347,-0.2624,-0.279,-0.3124,-0.3349,-0.3347,-0.3569,-0.3849,-0.4018,-0.4351,-0.4739,-0.5018,-0.5242,-0.5409,-0.5574,-0.5679,-0.5729,-0.5996,-0.6209,-0.6428,-0.6586,-0.7331,-0.8019,-0.8712,-0.9517,-0.9729,-0.9777,-1.0091,-1.0761,-1.1217,-1.1573,-1.2121,-1.2885,-1.3002,-1.3157,-1.361,-1.3742,-1.4014,-1.452,-1.4795,-1.5215,-1.5597,-1.5597,-1.5558,-1.5418,-1.5412,-1.568,-1.6064,-1.6404,-1.6854,-1.7194,-1.7319,-1.7558,-1.7914,-1.827,-1.8355,-1.8408,-1.8401,-1.8394,-1.8266,-1.818,-1.8087,-1.8094,-1.8233,-1.7928,-1.7375,-1.7164,-1.732,-1.7361,-1.7382,-1.7906,-1.8514,-1.8475,-1.8352,-1.8334,-1.8192,-1.8007,0.1865,0.1223,0.11,0.0535,-0.0192,-0.0772,-0.0949,-0.0935,-0.1041,-0.1039,-0.1121,-0.1273,-0.1233,-0.1084,-0.1256,-0.1191,-0.1012,-0.0953,-0.0897,-0.0897,-0.0897,-0.0897,-0.0897,-0.0897,-0.0897,-0.0897,-0.0953,-0.1122,-0.1347,-0.1458,-0.1569,-0.1568,-0.1734,-0.1846,-0.1847,-0.2015,-0.2237,-0.2401,-0.2458,-0.2568,-0.2679,-0.2735,-0.2681,-0.2624,-0.2789,-0.3067,-0.3404,-0.3793,-0.4293,-0.4796,-0.5022,-0.5187,-0.524,-0.5297,-0.535,-0.5405,-0.5462,-0.5462,-0.546,-0.6964,-0.7602,-0.7978,-0.8728,-0.9001,-0.9211,-0.9729,-1.0399,-1.0753,-1.1255,-1.1823,-1.2269,-1.252,-1.2715,-1.2856,-1.2939,-1.3213,-1.3669,-1.4075,-1.444,-1.4681,-1.4937,-1.5051,-1.4915,-1.4869,-1.5051,-1.5367,-1.5686,-1.607,-1.652,-1.6889,-1.7085,-1.7299,-1.7646,-1.7585,-1.7592,-1.7847,-1.79,-1.7727,-1.751,-1.7225,-1.704,-1.6915,-1.6524,-1.5997,-1.5898,-1.601,-1.6176,-1.6385,-1.6631,-1.6844,-1.7436,-1.7504,-1.7524,-1.7401,-1.7146,0.2454,0.1962,0.1384,0.0937,0.0681,0.012,-0.0237,-0.0542,-0.0873,-0.1017,-0.1013,-0.111,-0.1075,-0.0994,-0.098,-0.0972,-0.0899,-0.0897,-0.0897,-0.0897,-0.0897,-0.0897,-0.0897,-0.0897,-0.0897,-0.0897,-0.0897,-0.0897,-0.101,-0.1178,-0.1122,-0.1121,-0.1064,-0.112,-0.1289,-0.1458,-0.1401,-0.14,-0.1456,-0.1511,-0.1679,-0.1791,-0.1791,-0.1623,-0.1956,-0.2289,-0.2681,-0.3125,-0.3681,-0.4349,-0.4575,-0.4737,-0.4847,-0.4906,-0.5014,-0.5071,-0.5128,-0.5244,-0.5238,-0.5934,-0.6475,-0.7125,-0.7824,-0.8312,-0.8533,-0.8959,-0.9625,-1.0182,-1.058,-1.1196,-1.1714,-1.1665,-1.181,-1.1855,-1.199,-1.2272,-1.2686,-1.3004,-1.3328,-1.3475,-1.3679,-1.419,-1.4253,-1.4118,-1.4253,-1.4185,-1.4354,-1.5028,-1.5549,-1.6089,-1.6458,-1.661,-1.6815,-1.6705,-1.6686,-1.6593,-1.6338,-1.5991,-1.5942,-1.5972,-1.5805,-1.5413,-1.5159,-1.4603,-1.4654,-1.4705,-1.4665,-1.4677,-1.4693,-1.5009,-1.5542,-1.6059,-1.6114,-1.6083,-1.6015,0.2765,0.229,0.1607,0.1445,0.1442,0.0763,0.0238,-0.0061,-0.049,-0.068,-0.0752,-0.0853,-0.0945,-0.0929,-0.0867,-0.0863,-0.0898,-0.0897,-0.0841,-0.0841,-0.0841,-0.0841,-0.0785,-0.0841,-0.0841,-0.0841,-0.0897,-0.0897,-0.0841,-0.1009,-0.0897,-0.0673,-0.0505,-0.0673,-0.0897,-0.0897,-0.0897,-0.0953,-0.1009,-0.1009,-0.1065,-0.1066,-0.1066,-0.1066,-0.1177,-0.1455,-0.1902,-0.2403,-0.2847,-0.3461,-0.3847,-0.4122,-0.4346,-0.4457,-0.451,-0.4513,-0.457,-0.4739,-0.4903,-0.4849,-0.55,-0.6152,-0.706,-0.7714,-0.8165,-0.8712,-0.9271,-0.9721,-0.9906,-1.0364,-1.088,-1.0779,-1.0724,-1.0817,-1.0969,-1.1249,-1.1494,-1.1814,-1.2357,-1.2512,-1.2807,-1.322,-1.3489,-1.3457,-1.3362,-1.3193,-1.3024,-1.3737,-1.444,-1.5027,-1.5386,-1.5487,-1.558,-1.5413,-1.5168,-1.4929,-1.4626,-1.4247,-1.4173,-1.42,-1.3749,-1.3258,-1.3257,-1.3199,-1.2714,-1.2474,-1.2753,-1.2869,-1.2949,-1.315,-1.3439,-1.3964,-1.4516,-1.475,-1.4841,0.2961,0.2335,0.1991,0.1999,0.206,0.1145,0.0568,0.0462,0.0061,-0.012,-0.0184,-0.0637,-0.0736,-0.0845,-0.0843,-0.0843,-0.0898,-0.0897,-0.0785,-0.0729,-0.0729,-0.0729,-0.0729,-0.0729,-0.0785,-0.0841,-0.0841,-0.0785,-0.0673,-0.0673,-0.0561,-0.0449,-0.0336,-0.0393,-0.0449,-0.0561,-0.0673,-0.0729,-0.0729,-0.0785,-0.0841,-0.0729,-0.0729,-0.0673,-0.0673,-0.0952,-0.1344,-0.1734,-0.2347,-0.279,-0.3008,-0.351,-0.3789,-0.3846,-0.368,-0.3624,-0.3626,-0.3904,-0.4237,-0.4185,-0.4568,-0.5273,-0.6197,-0.706,-0.7667,-0.8121,-0.858,-0.8977,-0.9218,-0.957,-0.9875,-0.9773,-0.967,-0.9773,-0.9879,-1.0081,-1.0238,-1.0683,-1.1332,-1.1729,-1.2073,-1.2337,-1.2218,-1.2187,-1.1828,-1.1643,-1.1517,-1.1987,-1.2738,-1.3637,-1.3919,-1.3936,-1.3976,-1.3971,-1.3683,-1.3049,-1.2765,-1.2368,-1.2045,-1.1918,-1.1465,-1.1309,-1.1447,-1.123,-1.046,-1.032,-1.081,-1.1115,-1.1269,-1.1472,-1.1657,-1.2255,-1.2921,-1.3569,-1.381,0.3425,0.2998,0.2587,0.2368,0.2225,0.1883,0.1448,0.0911,0.0465,0.0232,0.0238,0.0057,-0.0168,-0.0393,-0.0393,-0.0561,-0.0673,-0.0841,-0.0785,-0.0673,-0.0504,-0.0673,-0.0729,-0.0673,-0.0729,-0.0729,-0.0729,-0.0617,-0.0505,-0.0449,-0.0336,-0.028,-0.0112,-0.0056,-0.0112,-0.0168,-0.0336,-0.0504,-0.0448,-0.0561,-0.0617,-0.0505,-0.0393,-0.0336,-0.028,-0.0616,-0.0953,-0.1065,-0.1622,-0.2067,-0.2123,-0.2401,-0.2402,-0.2566,-0.2675,-0.2952,-0.2953,-0.3011,-0.34,-0.335,-0.3626,-0.4231,-0.4893,-0.5502,-0.6211,-0.691,-0.7441,-0.7738,-0.805,-0.8196,-0.841,-0.8416,-0.8199,-0.814,-0.8301,-0.8518,-0.8728,-0.9141,-0.9794,-1.0253,-1.065,-1.065,-1.0586,-1.025,-0.9909,-0.9849,-1.0006,-1.0331,-1.096,-1.1812,-1.2239,-1.2248,-1.2181,-1.2114,-1.1465,-1.0843,-1.066,-1.0479,-1.0066,-0.9807,-0.9745,-0.965,-0.975,-0.9456,-0.8884,-0.8849,-0.9124,-0.9318,-0.9489,-0.9769,-0.9967,-1.0675,-1.1327,-1.1787,-1.2178,0.4121,0.3735,0.3183,0.263,0.2249,0.2404,0.2079,0.1499,0.1088,0.0868,0.0704,0.0625,0.0392,0.0056,0.0056,0.0,0.0,0.0,0.0056,0.0336,0.0,-0.0112,-0.0224,-0.0449,-0.0561,-0.0561,-0.0448,-0.028,-0.0224,-0.0168,-0.0056,0.028,0.0392,0.0448,0.0504,0.0504,0.0392,0.0112,-0.0056,-0.028,-0.0336,-0.028,-0.0168,-0.0168,-0.0168,-0.0336,-0.0505,-0.0561,-0.084,-0.1231,-0.1288,-0.1399,-0.1511,-0.1788,-0.1672,-0.1838,-0.173,-0.1785,-0.2062,-0.2511,-0.2843,-0.3233,-0.3465,-0.3738,-0.4341,-0.4992,-0.5582,-0.6058,-0.634,-0.6617,-0.6838,-0.7004,-0.6622,-0.6293,-0.6566,-0.6838,-0.7157,-0.7525,-0.7994,-0.8511,-0.8711,-0.8753,-0.859,-0.8257,-0.81,-0.8223,-0.8184,-0.8177,-0.8889,-0.9851,-1.0237,-1.0292,-1.0268,-1.0147,-0.9391,-0.8691,-0.842,-0.8155,-0.7697,-0.7544,-0.7767,-0.7764,-0.755,-0.7564,-0.7525,-0.7472,-0.7348,-0.7581,-0.7726,-0.7882,-0.775,-0.7868,-0.8524,-0.9413,-0.9773,0.4893,0.446,0.3734,0.3014,0.2406,0.2694,0.2581,0.2247,0.19,0.1581,0.128,0.1134,0.0895,0.0616,0.056,0.0672,0.0727,0.0727,0.0895,0.1566,0.1063,0.0783,0.0448,0.028,0.0168,-0.0056,-0.0056,0.0392,0.0168,0.028,0.0672,0.1009,0.1119,0.1119,0.1007,0.1119,0.0951,0.0616,0.0336,0.0056,-0.0112,-0.0056,0.0,-0.0112,-0.0056,0.0,0.0056,-0.0056,-0.0168,-0.0336,-0.0392,-0.0448,-0.0671,-0.0727,-0.0502,-0.039,-0.0279,-0.0558,-0.0892,-0.1395,-0.1732,-0.1956,-0.2071,-0.2237,-0.2733,-0.3782,-0.4542,-0.4816,-0.5146,-0.537,-0.5588,-0.5362,-0.4978,-0.4814,-0.4924,-0.5138,-0.535,-0.588,-0.6513,-0.6772,-0.6508,-0.6607,-0.6757,-0.6427,-0.6292,-0.6474,-0.6482,-0.6274,-0.6865,-0.7855,-0.806,-0.8263,-0.825,-0.8016,-0.7401,-0.6742,-0.6218,-0.5799,-0.559,-0.5418,-0.5662,-0.5515,-0.5271,-0.5305,-0.5444,-0.5558,-0.5556,-0.5441,-0.5271,-0.5377,-0.5257,-0.4938,-0.5515,-0.6554,-0.7261,0.5281,0.4889,0.44,0.3906,0.3462,0.3519,0.3134,0.2636,0.2706,0.2437,0.2037,0.1856,0.1679,0.1344,0.1287,0.1343,0.1453,0.1453,0.1398,0.1621,0.1621,0.1453,0.1175,0.1064,0.1007,0.1119,0.123,0.123,0.1343,0.1399,0.1399,0.168,0.1734,0.1621,0.1286,0.1454,0.1343,0.1008,0.0729,0.0336,0.0056,0.0168,0.0224,0.0168,0.0168,0.0168,0.0336,0.0617,0.0673,0.0729,0.112,0.1119,0.1006,0.1119,0.1174,0.1228,0.1118,0.0726,0.0279,-0.0279,-0.0671,-0.1176,-0.1401,-0.1233,-0.1733,-0.2951,-0.3667,-0.3724,-0.3889,-0.411,-0.4166,-0.3776,-0.3441,-0.3387,-0.3332,-0.3492,-0.3597,-0.4239,-0.4929,-0.4718,-0.4401,-0.4506,-0.466,-0.4725,-0.4585,-0.4482,-0.4428,-0.4486,-0.5091,-0.5837,-0.5885,-0.599,-0.6117,-0.5846,-0.5307,-0.4974,-0.4595,-0.4431,-0.4321,-0.3989,-0.3657,-0.3431,-0.3262,-0.3207,-0.3255,-0.336,-0.3189,-0.2531,-0.2475,-0.269,-0.2799,-0.2576,-0.2471,-0.3214,-0.4201,0.5782,0.5559,0.5177,0.4627,0.4127,0.3906,0.3574,0.3244,0.3131,0.2907,0.2575,0.2464,0.2296,0.2015,0.1958,0.2069,0.2179,0.2179,0.2404,0.246,0.2236,0.2067,0.1956,0.1845,0.1566,0.1622,0.1734,0.1846,0.246,0.207,0.1903,0.2127,0.2125,0.1957,0.1566,0.1566,0.151,0.1231,0.1065,0.0729,0.0336,0.0449,0.0449,0.0336,0.0336,0.0336,0.0505,0.0841,0.1009,0.1233,0.1456,0.1735,0.1678,0.1734,0.2014,0.2125,0.2069,0.1845,0.1452,0.0893,0.0391,-0.0056,-0.0729,-0.0616,-0.0112,-0.117,-0.1557,-0.1668,-0.1888,-0.2108,-0.2611,-0.2446,-0.2111,-0.1944,-0.1888,-0.1997,-0.1829,-0.1934,-0.2258,-0.2149,-0.2154,-0.2488,-0.2759,-0.3257,-0.3106,-0.3,-0.2838,-0.2947,-0.3502,-0.3828,-0.3831,-0.3776,-0.3883,-0.3778,-0.3333,-0.3222,-0.3115,-0.3003,-0.2943,-0.2775,-0.2495,-0.1769,-0.127,-0.1271,-0.127,-0.1268,-0.0937,-0.0275,0.011,-0.0055,-0.0165,-0.022,-0.0165,-0.011,-0.0658,0.6282,0.6175,0.5843,0.5291,0.4627,0.4239,0.4019,0.3852,0.3462,0.3296,0.3186,0.2912,0.2747,0.2634,0.2464,0.2741,0.2963,0.2909,0.3246,0.3302,0.3189,0.2909,0.2628,0.2404,0.2347,0.2236,0.2237,0.2961,0.3685,0.2962,0.2461,0.2406,0.2348,0.2291,0.1845,0.1734,0.1679,0.1567,0.14,0.1121,0.0953,0.0785,0.0617,0.0505,0.0505,0.0505,0.0673,0.1009,0.1289,0.1569,0.1958,0.2237,0.2404,0.246,0.2739,0.2907,0.2851,0.2795,0.2683,0.1953,0.1674,0.1284,0.0447,0.0391,0.1006,0.0949,0.0557,0.039,0.0167,-0.0389,-0.089,-0.0945,-0.0612,-0.0445,-0.0389,-0.05,-0.0278,0.0,0.0,-0.0056,-0.0389,-0.0724,-0.1112,-0.1612,-0.1781,-0.1673,-0.1619,-0.173,-0.184,-0.1947,-0.2,-0.1833,-0.172,-0.1558,-0.1618,-0.173,-0.184,-0.1505,-0.1391,-0.1446,-0.1222,-0.0277,0.0388,0.0609,0.0609,0.0827,0.1157,0.1707,0.2039,0.2368,0.2094,0.1874,0.2095,0.2263,0.2707,0.6657,0.6175,0.6116,0.5789,0.5401,0.5234,0.5067,0.4677,0.4179,0.3958,0.3793,0.3297,0.3021,0.302,0.2746,0.2913,0.3359,0.3471,0.3473,0.353,0.3473,0.3416,0.3357,0.3184,0.3405,0.3351,0.3186,0.3579,0.3967,0.363,0.3297,0.3131,0.3132,0.2739,0.1902,0.1846,0.1901,0.1845,0.1956,0.179,0.1845,0.1511,0.0785,0.0785,0.0953,0.1177,0.1511,0.218,0.2459,0.2684,0.2909,0.3184,0.3294,0.3349,0.3462,0.3629,0.3572,0.3408,0.3182,0.2956,0.2732,0.2504,0.2003,0.2167,0.2614,0.2727,0.2555,0.2663,0.2216,0.1331,0.0888,0.1223,0.1503,0.1448,0.1393,0.0946,0.0834,0.0892,0.0893,0.0726,0.0447,0.0279,0.0167,-0.0334,-0.0781,-0.0671,-0.0671,-0.0782,-0.0725,-0.0557,-0.0279,-0.0056,0.0167,-0.0502,-0.1004,-0.0781,-0.0725,-0.0279,0.0223,0.0389,0.0722,0.1391,0.1947,0.2439,0.2936,0.326,0.3593,0.3528,0.3975,0.4197,0.4042,0.3937,0.4213,0.458,0.5052]}]]